[[{"header":{"parameterUnit":"m.s-1","parameterCategory":1,"la1":30.6,"la2":28.766,"lo1":-90.7593,"lo2":-88.6598,"dy":0.0162,"dx":0.0183,"nx":116,"ny":114,"refTime":"2023-11-02T00:00:00:Z","depth":0,"parameterNumber":2,"parameterNumberName":"U-component_of_WINDS"},"data":[0.0,0.0,0.0,0.0,0.0,0.0,0.0,0.0,0.0,0.0,0.0,0.0,0.0,0.0,0.0,0.0,0.0,0.0,0.0,0.0,0.0,0.0,0.0,0.0,0.0,0.0,0.0,0.0,0.0,0.0,0.0,0.0,0.0,0.0,0.0,0.0,0.0,0.0,0.0,0.0,0.0,0.0,0.0,0.0,0.0,0.0,0.0,0.0,0.0,0.0,0.0,0.0,0.0,0.0,0.0,0.0,0.0,0.0,0.0,0.0,0.0,0.0,0.0,0.0,0.0,0.0,0.0,0.0,0.0,0.0,0.0,0.0,0.0,0.0,0.0,0.0,0.0,0.0,0.0,0.0,0.0,0.0,0.0,0.0,0.0,0.0,0.0,0.0,0.0,0.0,0.0,0.0,0.0,0.0,0.0,0.0,0.0,0.0,0.0,0.0,0.0,0.0,0.0,0.0,0.0,0.0,0.0,0.0,0.0,0.0,0.0,0.0,0.0,0.0,0.0,0.0,0.0,0.0,0.0,0.0,0.0,0.0,0.0,0.0,0.0,0.0,0.0,0.0,0.0,0.0,0.0,0.0,0.0,0.0,0.0,0.0,0.0,0.0,0.0,0.0,0.0,0.0,0.0,0.0,0.0,0.0,0.0,0.0,0.0,0.0,0.0,0.0,0.0,0.0,0.0,0.0,0.0,0.0,0.0,0.0,0.0,0.0,0.0,0.0,0.0,0.0,0.0,0.0,0.0,0.0,0.0,0.0,0.0,0.0,0.0,0.0,0.0,0.0,0.0,0.0,0.0,0.0,0.0,0.0,0.0,0.0,0.0,0.0,0.0,0.0,0.0,0.0,0.0,0.0,0.0,0.0,0.0,0.0,0.0,0.0,0.0,0.0,0.0,0.0,0.0,0.0,0.0,0.0,0.0,0.0,0.0,0.0,0.0,0.0,0.0,0.0,0.0,0.0,0.0,0.0,0.0,0.0,0.0,0.0,0.0,0.0,0.0,0.0,0.0,0.0,0.0,0.0,0.0,0.0,0.0,0.0,0.0,0.0,0.0,0.0,0.0,0.0,0.0,0.0,0.0,0.0,0.0,0.0,0.0,0.0,0.0,0.0,0.0,0.0,0.0,0.0,0.0,0.0,0.0,0.0,0.0,0.0,0.0,0.0,0.0,0.0,0.0,0.0,0.0,0.0,0.0,0.0,0.0,0.0,0.0,0.0,0.0,0.0,0.0,0.0,0.0,0.0,0.0,0.0,0.0,0.0,0.0,0.0,0.0,0.0,0.0,0.0,0.0,0.0,0.0,0.0,0.0,0.0,0.0,0.0,0.0,0.0,0.0,0.0,0.0,0.0,0.0,0.0,0.0,0.0,0.0,0.0,0.0,0.0,0.0,0.0,0.0,0.0,0.0,0.0,0.0,0.0,0.0,0.0,0.0,0.0,0.0,0.0,0.0,0.0,0.0,0.0,0.0,0.0,0.0,0.0,0.0,0.0,0.0,0.0,0.0,0.0,0.0,0.0,0.0,0.0,0.0,0.0,0.0,0.0,0.0,0.0,0.0,0.0,0.0,0.0,0.0,0.0,0.0,0.0,0.0,0.0,0.0,0.0,0.0,0.0,0.0,0.0,0.0,0.0,0.0,0.0,0.0,0.0,0.0,0.0,0.0,0.0,0.0,0.0,0.0,0.0,0.0,0.0,0.0,0.0,0.0,0.0,0.0,0.0,0.0,0.0,0.0,0.0,0.0,0.0,0.0,0.0,0.0,0.0,0.0,0.0,0.0,0.0,0.0,0.0,0.0,0.0,0.0,0.0,0.0,0.0,0.0,0.0,0.0,0.0,0.0,0.0,0.0,0.0,0.0,0.0,0.0,0.0,0.0,0.0,0.0,0.0,0.0,0.0,0.0,0.0,0.0,0.0,0.0,0.0,0.0,0.0,0.0,0.0,0.0,0.0,0.0,0.0,0.0,0.0,0.0,0.0,0.0,0.0,0.0,0.0,0.0,0.0,0.0,0.0,0.0,0.0,0.0,0.0,0.0,0.0,0.0,0.0,0.0,0.0,0.0,0.0,0.0,0.0,0.0,0.0,0.0,0.0,0.0,0.0,0.0,0.0,0.0,0.0,0.0,0.0,0.0,0.0,0.0,0.0,0.0,0.0,0.0,0.0,0.0,0.0,0.0,0.0,0.0,0.0,0.0,0.0,0.0,0.0,0.0,0.0,0.0,0.0,0.0,0.0,0.0,0.0,0.0,0.0,0.0,0.0,0.0,0.0,0.0,0.0,0.0,0.0,0.0,0.0,0.0,0.0,0.0,0.0,0.0,0.0,0.0,0.0,0.0,0.0,0.0,0.0,0.0,0.0,0.0,0.0,0.0,0.0,0.0,0.0,0.0,0.0,0.0,0.0,0.0,0.0,0.0,0.0,0.0,0.0,0.0,0.0,0.0,0.0,0.0,0.0,0.0,0.0,0.0,0.0,0.0,0.0,0.0,0.0,0.0,0.0,0.0,0.0,0.0,0.0,0.0,0.0,0.0,0.0,0.0,0.0,0.0,0.0,0.0,0.0,0.0,0.0,0.0,0.0,0.0,0.0,0.0,0.0,0.0,0.0,0.0,0.0,0.0,0.0,0.0,0.0,0.0,0.0,0.0,0.0,0.0,0.0,0.0,0.0,0.0,0.0,0.0,0.0,0.0,0.0,0.0,0.0,0.0,0.0,0.0,0.0,0.0,0.0,0.0,0.0,0.0,0.0,0.0,0.0,0.0,0.0,0.0,0.0,0.0,0.0,0.0,0.0,0.0,0.0,0.0,0.0,0.0,0.0,0.0,0.0,0.0,0.0,0.0,0.0,0.0,0.0,0.0,0.0,0.0,0.0,0.0,0.0,0.0,0.0,0.0,0.0,0.0,0.0,0.0,0.0,0.0,0.0,0.0,0.0,0.0,0.0,0.0,0.0,0.0,0.0,0.0,0.0,0.0,0.0,0.0,0.0,0.0,0.0,0.0,0.0,0.0,0.0,0.0,0.0,0.0,0.0,0.0,0.0,0.0,0.0,0.0,0.0,0.0,0.0,0.0,0.0,0.0,0.0,0.0,0.0,0.0,0.0,0.0,0.0,0.0,0.0,0.0,0.0,0.0,0.0,0.0,0.0,0.0,0.0,0.0,0.0,0.0,0.0,0.0,0.0,0.0,0.0,0.0,0.0,0.0,0.0,0.0,0.0,0.0,0.0,0.0,0.0,0.0,0.0,0.0,0.0,0.0,0.0,0.0,0.0,0.0,0.0,0.0,0.0,0.0,0.0,0.0,0.0,0.0,0.0,0.0,0.0,0.0,0.0,0.0,0.0,0.0,0.0,0.0,0.0,0.0,0.0,0.0,0.0,0.0,0.0,0.0,0.0,0.0,0.0,0.0,0.0,0.0,0.0,0.0,0.0,0.0,0.0,0.0,0.0,0.0,0.0,0.0,0.0,0.0,0.0,0.0,0.0,0.0,0.0,0.0,0.0,0.0,0.0,0.0,0.0,0.0,0.0,0.0,0.0,0.0,0.0,0.0,0.0,0.0,0.0,0.0,0.0,0.0,0.0,0.0,0.0,0.0,0.0,0.0,0.0,0.0,0.0,0.0,0.0,0.0,0.0,0.0,0.0,0.0,0.0,0.0,0.0,0.0,0.0,0.0,0.0,0.0,0.0,0.0,0.0,0.0,0.0,0.0,0.0,0.0,0.0,0.0,0.0,0.0,0.0,0.0,0.0,0.0,0.0,0.0,0.0,0.0,0.0,0.0,0.0,0.0,0.0,0.0,0.0,0.0,0.0,0.0,0.0,0.0,0.0,0.0,0.0,0.0,0.0,0.0,0.0,0.0,0.0,0.0,0.0,0.0,0.0,0.0,0.0,0.0,0.0,0.0,0.0,0.0,0.0,0.0,0.0,0.0,0.0,0.0,0.0,0.0,0.0,0.0,0.0,0.0,0.0,0.0,0.0,0.0,0.0,0.0,0.0,0.0,0.0,0.0,0.0,0.0,0.0,0.0,0.0,0.0,0.0,0.0,0.0,0.0,0.0,0.0,0.0,0.0,0.0,0.0,0.0,0.0,0.0,0.0,0.0,0.0,0.0,0.0,0.0,0.0,0.0,0.0,0.0,0.0,0.0,0.0,0.0,0.0,0.0,0.0,0.0,0.0,0.0,0.0,0.0,0.0,0.0,0.0,0.0,0.0,0.0,0.0,0.0,0.0,0.0,0.0,0.0,0.0,0.0,0.0,0.0,0.0,0.0,0.0,0.0,0.0,0.0,0.0,0.0,0.0,0.0,0.0,0.0,0.0,0.0,0.0,0.0,0.0,0.0,0.0,0.0,0.0,0.0,0.0,0.0,0.0,0.0,0.0,0.0,0.0,0.0,0.0,0.0,0.0,0.0,0.0,0.0,0.0,0.0,0.0,0.0,0.0,0.0,0.0,0.0,0.0,0.0,0.0,0.0,0.0,0.0,0.0,0.0,0.0,0.0,0.0,0.0,0.0,0.0,0.0,0.0,0.0,0.0,0.0,0.0,0.0,0.0,0.0,0.0,0.0,0.0,0.0,0.0,0.0,0.0,0.0,0.0,0.0,0.0,0.0,0.0,0.0,0.0,0.0,0.0,0.0,0.0,0.0,0.0,0.0,0.0,0.0,0.0,0.0,0.0,0.0,0.0,0.0,0.0,0.0,0.0,0.0,0.0,0.0,0.0,0.0,0.0,0.0,0.0,0.0,0.0,0.0,0.0,0.0,0.0,0.0,0.0,0.0,0.0,0.0,0.0,0.0,0.0,0.0,0.0,0.0,0.0,0.0,0.0,0.0,0.0,0.0,0.0,0.0,0.0,0.0,0.0,0.0,0.0,0.0,0.0,0.0,0.0,0.0,0.0,0.0,0.0,0.0,0.0,0.0,0.0,0.0,0.0,0.0,0.0,0.0,0.0,0.0,0.0,0.0,0.0,0.0,0.0,0.0,0.0,0.0,0.0,0.0,0.0,0.0,0.0,0.0,0.0,0.0,0.0,0.0,0.0,0.0,0.0,0.0,0.0,0.0,0.0,0.0,0.0,0.0,0.0,0.0,0.0,0.0,0.0,0.0,0.0,0.0,0.0,0.0,0.0,0.0,0.0,0.0,0.0,0.0,0.0,0.0,0.0,0.0,0.0,0.0,0.0,0.0,0.0,0.0,0.0,0.0,0.0,0.0,0.0,0.0,0.0,0.0,0.0,0.0,0.0,0.0,0.0,0.0,0.0,0.0,0.0,0.0,0.0,0.0,0.0,0.0,0.0,0.0,0.0,0.0,0.0,0.0,0.0,0.0,0.0,0.0,0.0,0.0,0.0,0.0,0.0,0.0,0.0,0.0,0.0,0.0,0.0,0.0,0.0,0.0,0.0,0.0,0.0,0.0,0.0,0.0,0.0,0.0,0.0,0.0,0.0,0.0,0.0,0.0,0.0,0.0,0.0,0.0,0.0,0.0,0.0,0.0,0.0,0.0,0.0,0.0,0.0,0.0,0.0,0.0,0.0,0.0,0.0,0.0,0.0,0.0,0.0,0.0,0.0,0.0,0.0,0.0,0.0,0.0,0.0,0.0,0.0,0.0,0.0,0.0,0.0,0.0,0.0,0.0,0.0,0.0,0.0,0.0,0.0,0.0,0.0,0.0,0.0,0.0,0.0,0.0,0.0,0.0,0.0,0.0,0.0,0.0,0.0,0.0,0.0,0.0,0.0,0.0,0.0,0.0,0.0,0.0,0.0,0.0,0.0,0.0,0.0,0.0,0.0,0.0,0.0,0.0,0.0,0.0,0.0,0.0,0.0,0.0,0.0,0.0,0.0,0.0,0.0,0.0,0.0,0.0,0.0,0.0,0.0,0.0,0.0,0.0,0.0,0.0,0.0,0.0,0.0,0.0,0.0,0.0,0.0,0.0,0.0,0.0,0.0,0.0,0.0,0.0,0.0,0.0,0.0,0.0,0.0,0.0,0.0,0.0,0.0,0.0,0.0,0.0,0.0,0.0,0.0,0.0,0.0,0.0,0.0,0.0,0.0,0.0,0.0,0.0,0.0,0.0,0.0,0.0,0.0,0.0,0.0,-1.9596,-1.9043,0.0,0.0,0.0,0.0,0.0,0.0,0.0,0.0,0.0,0.0,0.0,0.0,0.0,0.0,0.0,0.0,0.0,0.0,0.0,0.0,0.0,0.0,0.0,0.0,0.0,0.0,0.0,0.0,0.0,0.0,0.0,0.0,0.0,0.0,0.0,0.0,0.0,0.0,0.0,0.0,0.0,0.0,0.0,0.0,0.0,0.0,0.0,0.0,0.0,0.0,0.0,0.0,0.0,0.0,0.0,0.0,0.0,0.0,0.0,0.0,0.0,0.0,0.0,0.0,0.0,0.0,0.0,0.0,0.0,0.0,0.0,0.0,0.0,0.0,0.0,0.0,0.0,0.0,0.0,0.0,0.0,0.0,0.0,0.0,0.0,0.0,0.0,0.0,0.0,0.0,0.0,0.0,0.0,0.0,0.0,0.0,0.0,0.0,0.0,0.0,0.0,0.0,0.0,0.0,0.0,0.0,0.0,0.0,0.0,0.0,0.0,0.0,0.0,0.0,-2.1145,-2.0786,0.0,0.0,0.0,0.0,0.0,0.0,0.0,0.0,0.0,0.0,0.0,0.0,0.0,0.0,0.0,0.0,0.0,0.0,0.0,0.0,0.0,0.0,0.0,0.0,0.0,0.0,0.0,0.0,0.0,0.0,0.0,0.0,0.0,0.0,0.0,0.0,0.0,0.0,0.0,0.0,0.0,0.0,0.0,0.0,0.0,0.0,0.0,0.0,0.0,0.0,0.0,0.0,0.0,0.0,0.0,0.0,0.0,0.0,0.0,0.0,0.0,0.0,0.0,0.0,0.0,0.0,0.0,0.0,0.0,0.0,0.0,0.0,0.0,0.0,0.0,0.0,0.0,0.0,0.0,0.0,0.0,0.0,0.0,0.0,0.0,0.0,0.0,0.0,0.0,0.0,0.0,0.0,0.0,0.0,0.0,0.0,0.0,0.0,0.0,0.0,0.0,0.0,0.0,0.0,0.0,0.0,0.0,0.0,-2.1656,-2.1878,-2.1939,-2.2278,-2.2601,-2.2843,-2.2644,-2.2559,-2.2468,-2.1905,0.0,0.0,0.0,0.0,0.0,0.0,0.0,0.0,0.0,0.0,0.0,0.0,0.0,0.0,0.0,0.0,0.0,0.0,0.0,0.0,0.0,0.0,-2.0308,-2.0308,-2.0308,-2.0308,0.0,0.0,0.0,0.0,0.0,0.0,0.0,0.0,0.0,0.0,0.0,-2.4897,-2.512,-2.5211,-2.5146,-2.4937,-2.5069,0.0,0.0,0.0,0.0,0.0,0.0,0.0,0.0,0.0,0.0,0.0,0.0,0.0,0.0,0.0,0.0,0.0,0.0,0.0,0.0,0.0,0.0,0.0,0.0,0.0,0.0,0.0,0.0,0.0,0.0,0.0,0.0,0.0,0.0,0.0,0.0,0.0,0.0,0.0,0.0,0.0,0.0,0.0,-1.9917,-1.9937,0.0,0.0,0.0,0.0,0.0,0.0,0.0,0.0,0.0,0.0,0.0,0.0,0.0,-2.1294,-2.1003,-2.1569,-2.2009,-2.2304,-2.288,-2.334,-2.3667,-2.4015,-2.4178,-2.4255,-2.4677,0.0,-2.2487,-2.2396,0.0,0.0,0.0,0.0,0.0,0.0,0.0,0.0,0.0,0.0,0.0,0.0,0.0,0.0,0.0,0.0,0.0,0.0,0.0,0.0,0.0,-2.0314,-2.0308,-2.0308,-2.0308,-2.0308,-2.0308,0.0,0.0,0.0,0.0,0.0,0.0,0.0,0.0,0.0,-2.551,-2.5978,-2.6038,-2.6524,-2.6729,-2.6672,-2.6672,-2.6096,-2.5121,-2.5243,0.0,0.0,0.0,0.0,0.0,0.0,0.0,0.0,0.0,0.0,0.0,0.0,0.0,0.0,0.0,0.0,0.0,0.0,0.0,0.0,0.0,0.0,0.0,0.0,0.0,0.0,0.0,0.0,0.0,0.0,0.0,0.0,0.0,0.0,0.0,0.0,0.0,0.0,0.0,-2.0982,-2.0926,-2.136,-2.1375,-2.1278,0.0,0.0,0.0,0.0,0.0,0.0,0.0,0.0,0.0,-2.2673,-2.2819,-2.2721,-2.2348,-2.3243,-2.3672,-2.3643,-2.4653,-2.5236,-2.5419,-2.5794,-2.5738,-2.5362,-2.5591,-2.5001,-2.3892,-2.3818,-2.3745,-2.3647,0.0,0.0,0.0,0.0,-2.2574,-2.2366,0.0,0.0,0.0,0.0,0.0,0.0,0.0,0.0,0.0,0.0,0.0,0.0,-2.0424,-2.0366,-2.0314,-2.0294,-2.0306,-2.0295,-2.0296,0.0,0.0,0.0,0.0,0.0,0.0,0.0,0.0,-2.5635,-2.6505,-2.6928,-2.6948,-2.7601,-2.7895,-2.7895,-2.7895,-2.7001,-2.5485,-2.5585,-2.55,0.0,0.0,0.0,0.0,0.0,0.0,0.0,0.0,0.0,0.0,0.0,0.0,0.0,0.0,0.0,0.0,0.0,0.0,0.0,0.0,0.0,0.0,0.0,0.0,0.0,0.0,0.0,0.0,0.0,0.0,0.0,0.0,0.0,0.0,0.0,0.0,0.0,0.0,-2.1947,-2.1991,-2.254,-2.2463,-2.225,0.0,0.0,0.0,0.0,0.0,0.0,-2.421,-2.421,-2.4301,-2.4505,-2.4591,-2.4453,-2.4066,-2.4865,-2.5212,-2.5137,-2.6072,-2.6614,-2.6848,-2.7019,-2.682,-2.6365,-2.636,-2.6054,-2.5507,-2.5048,-2.491,-2.4946,-2.4446,-2.4096,-2.3885,-2.383,-2.3534,-2.3248,0.0,0.0,0.0,0.0,0.0,0.0,0.0,0.0,0.0,0.0,0.0,-2.0486,-2.0494,-2.0437,-2.0364,-2.031,-2.0308,-2.0308,-2.0296,-2.0308,-2.0635,0.0,0.0,0.0,0.0,0.0,0.0,-2.6524,-2.7409,-2.7838,-2.7838,-2.7876,-2.7895,-2.7895,-2.7895,-2.739,-2.6533,-2.6519,-2.6058,-2.5308,0.0,0.0,0.0,0.0,0.0,0.0,0.0,0.0,0.0,0.0,0.0,0.0,0.0,0.0,0.0,0.0,0.0,0.0,0.0,0.0,0.0,0.0,0.0,0.0,0.0,0.0,0.0,0.0,0.0,0.0,0.0,0.0,0.0,0.0,0.0,0.0,0.0,0.0,0.0,-2.288,-2.3148,0.0,0.0,0.0,0.0,-2.3937,-2.4513,-2.4893,-2.4945,-2.585,-2.6217,-2.591,-2.6217,-2.6217,-2.5864,-2.5918,-2.6219,-2.6779,-2.6576,-2.6918,-2.7721,-2.7296,-2.7179,-2.7331,-2.7321,-2.7195,-2.6893,-2.5555,-2.4985,-2.5005,-2.4966,-2.495,-2.4918,-2.4918,-2.4902,-2.4871,0.0,0.0,0.0,0.0,0.0,0.0,0.0,0.0,0.0,-2.0604,-2.0533,-2.0494,-2.0498,-2.0448,-2.0385,-2.0372,-2.0368,-2.0582,-2.1109,-2.1108,-2.1446,0.0,0.0,0.0,0.0,0.0,-2.7448,-2.7448,-2.8832,-2.95,-2.9519,-3.0602,-3.1121,-3.1121,-3.1121,-3.0352,-2.8962,-2.789,-2.6928,-2.613,-2.6036,-2.5663,0.0,0.0,0.0,0.0,0.0,0.0,0.0,0.0,0.0,0.0,0.0,0.0,0.0,0.0,0.0,0.0,0.0,0.0,0.0,0.0,0.0,0.0,0.0,0.0,0.0,0.0,0.0,0.0,0.0,0.0,0.0,0.0,0.0,0.0,0.0,0.0,0.0,-2.4195,-2.4367,0.0,-2.4741,-2.5082,-2.5367,-2.5586,-2.5826,-2.6075,-2.6339,-2.6439,-2.6563,-2.6704,-2.6829,-2.6929,-2.7018,-2.7673,-2.8217,-2.8724,-2.9265,-2.9792,-3.0215,-2.9441,-2.9048,-2.8979,-2.8319,-2.7849,-2.752,-2.7025,-2.6634,-2.634,-2.634,-2.6056,-2.5629,-2.5629,-2.5381,-2.5005,0.0,0.0,0.0,0.0,0.0,0.0,0.0,0.0,0.0,-2.0605,-2.056,-2.0532,-2.0534,-2.0498,-2.0446,-2.0408,-2.0673,-2.1053,-2.1564,-2.1805,-2.2451,0.0,-2.4764,0.0,0.0,-2.8159,-2.8736,-2.8736,-3.0423,-3.1231,-3.1269,-3.2372,-3.2891,-3.2891,-3.2891,-3.2275,-3.1173,-3.0063,-2.8602,-2.7038,-2.6943,-2.6378,-2.5524,0.0,0.0,0.0,0.0,0.0,0.0,0.0,0.0,0.0,0.0,0.0,0.0,0.0,0.0,0.0,0.0,0.0,0.0,0.0,0.0,0.0,0.0,0.0,0.0,0.0,0.0,0.0,0.0,0.0,0.0,0.0,0.0,0.0,0.0,-2.427,-2.4539,-2.5254,-2.5333,-2.5537,-2.5983,-2.6246,-2.6456,-2.6679,-2.7132,-2.7487,-2.7756,-2.7964,-2.8215,-2.8467,-2.8489,-2.8581,-2.8818,-2.9478,-2.9998,-3.0349,-3.0928,-3.1379,-3.1686,-3.0903,-3.0513,-3.0435,-2.9762,-2.9341,-2.9097,-2.9183,-2.9033,-2.8646,-2.7705,-2.6973,-2.6465,-2.6465,-2.6154,-2.5713,0.0,0.0,0.0,0.0,0.0,0.0,0.0,0.0,-2.0605,-2.0605,-2.0605,-2.0605,-2.0605,-2.0604,-2.0551,-2.0455,-2.1199,-2.1684,-2.1722,-2.2425,-2.3638,0.0,0.0,0.0,-2.7992,-2.9596,-3.0442,-3.0481,-3.2141,-3.2949,-3.2949,-3.2968,-3.2987,-3.2987,-3.2987,-3.2968,-3.2949,-3.2949,-3.1044,-2.8049,-2.8011,-2.7448,-2.6629,0.0,0.0,0.0,0.0,0.0,0.0,0.0,0.0,0.0,0.0,0.0,0.0,0.0,0.0,0.0,0.0,0.0,0.0,0.0,0.0,0.0,0.0,0.0,0.0,0.0,0.0,0.0,0.0,0.0,0.0,0.0,0.0,0.0,-2.5076,-2.5037,-2.527,-2.5945,-2.604,-2.634,-2.7099,-2.7162,-2.7194,-2.7225,-2.8435,-2.9177,-2.9177,-3.0456,-3.1198,-3.1198,-3.1198,-3.1198,-3.1214,-3.1214,-3.1369,-3.1646,-3.1385,-3.1516,-3.1941,-3.146,-3.1378,-3.1638,-3.1614,-3.1622,-3.163,-3.1916,-3.2034,-3.1758,-2.8983,-2.772,-2.7485,-2.7432,-2.7301,-2.7099,0.0,0.0,0.0,0.0,0.0,0.0,0.0,-2.0605,-2.0605,-2.0605,-2.0605,-2.0605,-2.0605,-2.0604,-2.0804,-2.1305,-2.0975,-2.1773,-2.4193,-2.3974,0.0,0.0,0.0,0.0,-2.9692,-3.0769,-3.1641,-3.2218,-3.3314,-3.384,-3.3859,-3.4487,-3.4788,-3.4788,-3.4788,-3.443,-3.384,-3.384,-3.2949,-3.141,-3.0198,-2.8832,-2.7544,0.0,0.0,0.0,0.0,0.0,0.0,0.0,0.0,0.0,0.0,0.0,0.0,0.0,0.0,0.0,0.0,0.0,0.0,0.0,0.0,0.0,0.0,0.0,0.0,0.0,0.0,0.0,0.0,0.0,0.0,0.0,-2.5807,-2.5814,-2.5745,-2.5724,-2.5993,-2.672,-2.6799,-2.7273,-2.8435,-2.8546,-2.8972,-3.0006,-3.0409,-3.0614,-3.0614,-3.0977,-3.1198,-3.1198,-3.1198,-3.146,-3.1991,-3.2007,-3.2285,-3.2843,-3.275,-3.2905,-3.3178,-3.238,-3.2217,-3.2587,-3.2087,-3.1979,-3.2134,-3.2387,-3.25,-3.2346,-3.0701,-2.9713,-2.9146,-2.8613,-2.7949,-2.7311,0.0,0.0,0.0,0.0,0.0,0.0,0.0,-2.0605,-2.0605,-2.0605,-2.0605,-2.0605,-2.0605,-2.0605,-2.0904,-2.1642,-2.1565,-2.2599,-2.5222,-2.5932,0.0,0.0,0.0,-3.0429,-3.0923,-3.2122,-3.2987,-3.343,-3.4314,-3.4911,-3.5257,-3.5769,-3.6192,-3.6519,-3.6173,-3.5712,-3.5238,-3.4891,-3.4237,-3.3353,-3.2372,-3.0775,-2.8909,-2.8549,-2.7832,-2.6983,-2.6619,-2.6078,-2.5456,-2.5009,0.0,0.0,0.0,0.0,0.0,0.0,0.0,0.0,0.0,0.0,0.0,0.0,0.0,0.0,0.0,0.0,0.0,0.0,0.0,0.0,0.0,0.0,0.0,0.0,-2.6656,-2.6651,-2.7102,-2.6751,-2.683,-2.7804,-2.793,-2.8467,-2.984,-2.9982,-3.0314,-3.1135,-3.1492,-3.165,-3.165,-3.1934,-3.2092,-3.2092,-3.2092,-3.2297,-3.2718,-3.2734,-3.2976,-3.3477,-3.3477,-3.3607,-3.3832,-3.3303,-3.3212,-3.3453,-3.3048,-3.2942,-3.3077,-3.3336,-3.3446,-3.333,0.0,0.0,0.0,0.0,-2.9687,-2.9311,0.0,0.0,0.0,0.0,0.0,0.0,0.0,-2.0605,-2.0605,-2.0605,-2.0605,-2.0605,-2.0605,-2.0605,-2.0908,-2.163,-2.2408,-2.3622,-2.5425,0.0,0.0,-2.9242,-3.0814,-3.1737,-3.1833,-3.3391,-3.4244,-3.4359,-3.5218,-3.6,-3.6692,-3.6788,-3.7257,-3.7969,-3.7199,-3.6788,-3.6654,-3.5942,-3.5141,-3.434,-3.4244,-3.2737,-3.0462,-2.9679,-2.8838,-2.7915,-2.7063,-2.6614,-2.6293,-2.5401,0.0,0.0,0.0,0.0,0.0,0.0,0.0,0.0,0.0,0.0,0.0,0.0,0.0,0.0,0.0,0.0,0.0,0.0,0.0,0.0,0.0,0.0,0.0,0.0,-2.7738,-2.7868,-2.8927,-2.8201,-2.7984,-2.9082,-2.9311,-2.9903,-3.1207,-3.1358,-3.139,-3.1444,-3.2054,-3.2402,-3.2402,-3.2977,0.0,0.0,0.0,-3.3293,-3.3346,-3.3361,-3.3477,-3.3761,-3.3761,-3.3873,-3.4101,-3.4101,-3.4101,-3.4101,-3.4126,-3.4151,-3.4176,-3.4423,-3.4546,-3.4439,-3.3274,-3.2485,-3.1972,-3.1766,-3.1798,-3.1916,0.0,0.0,0.0,0.0,0.0,0.0,0.0,-2.0605,-2.0605,-2.0605,-2.0605,-2.0605,-2.0605,-2.0605,-2.0907,-2.1638,-2.185,-2.322,0.0,0.0,-2.947,-3.0121,-3.116,-3.2006,-3.2641,-3.366,-3.4545,-3.525,-3.6077,-3.6538,-3.6712,-3.743,-3.7834,-3.7988,-3.7815,-3.7353,-3.6692,-3.6519,-3.6,-3.5192,-3.4468,-3.3083,-3.1429,-3.1256,-3.0237,-2.8761,-2.7934,-2.7187,-2.64,-2.543,-2.5072,-2.5018,-2.4816,-2.473,0.0,0.0,0.0,0.0,0.0,0.0,0.0,0.0,0.0,0.0,0.0,0.0,0.0,0.0,0.0,0.0,0.0,0.0,0.0,-2.9262,-2.9386,-2.9712,-3.0693,-3.0585,-3.0306,-3.0006,-3.0656,-3.1373,-3.2032,-3.2272,-3.2536,-3.2876,-3.3024,-3.3103,-3.3103,-3.323,-3.3309,-3.3309,-3.3309,-3.3398,-3.3633,-3.3633,-3.3745,-3.4025,-3.4025,0.0,-3.4101,-3.4101,-3.4101,-3.4126,-3.4325,-3.4423,-3.4448,-3.4715,-3.4828,-3.4728,-3.3922,-3.2896,-3.1923,-3.2111,-3.1963,-3.1686,0.0,0.0,0.0,0.0,0.0,0.0,0.0,-2.0605,-2.0605,-2.0605,-2.0605,-2.0605,-2.0605,-2.0565,-2.0862,-2.1623,-2.2838,0.0,0.0,-2.8261,-2.9359,-2.9737,-3.1391,-3.2487,-3.2891,-3.418,-3.5064,-3.55,-3.5904,-3.6519,-3.7353,-3.7796,-3.8238,-3.8623,-3.818,-3.7526,-3.6673,-3.6269,-3.5865,-3.5462,-3.5026,-3.3833,-3.2256,-3.1852,-3.0891,-2.964,-2.88,-2.7953,-2.7115,-2.6173,-2.5524,-2.5086,-2.4929,-2.4816,-2.4684,0.0,0.0,0.0,0.0,0.0,0.0,0.0,0.0,0.0,0.0,0.0,0.0,0.0,0.0,-2.839,-2.8734,0.0,-2.9467,-3.075,-3.0749,-3.1022,-3.2275,-3.2503,-3.2351,-3.1861,-3.1902,-3.224,-3.294,-3.3004,-3.3085,-3.3277,-3.3309,-3.3309,-3.3309,-3.3309,-3.3309,-3.3309,-3.3424,-3.3581,-3.3694,-3.3822,-3.4025,-3.43,-3.43,-3.4374,-3.4497,-3.4497,-3.4497,-3.4497,-3.4497,-3.4497,-3.4521,-3.4643,-3.4691,-3.4682,-3.4595,-3.4004,-3.3185,-3.304,-3.2934,-3.2868,0.0,0.0,0.0,0.0,0.0,0.0,0.0,0.0,-2.0605,-2.0605,-2.0605,-2.0605,-2.0585,-2.0522,-2.0815,-2.1638,-2.367,0.0,0.0,-2.801,-2.8993,-2.9118,-3.1397,-3.2737,-3.2891,-3.4449,-3.5327,-3.55,-3.5654,-3.6423,-3.7757,-3.7911,-3.8373,-3.9015,-3.8315,-3.7526,-3.6654,-3.6,-3.5635,-3.5481,-3.5327,-3.4295,-3.2814,-3.2006,-3.1154,-3.0288,-2.941,-2.8588,-2.778,-2.689,-2.5932,-2.5109,-2.5061,-2.4895,-2.47,-2.4668,-2.4582,0.0,0.0,0.0,0.0,0.0,0.0,0.0,0.0,-2.6704,-2.7034,-2.7771,-2.8456,-2.8969,-2.9204,-2.9731,-3.0641,-3.2109,-3.2018,-3.2312,-3.3816,-3.4081,-3.4089,-3.3968,-3.3364,-3.313,-3.3646,-3.3617,-3.3461,-3.3293,-3.3361,-3.3346,-3.3309,-3.3398,-3.3424,-3.3372,-3.3658,-3.3797,-3.3848,-3.4075,-3.4325,-3.457,-3.457,-3.4691,-3.4899,-3.4899,-3.4899,-3.4899,-3.4667,-3.457,-3.457,-3.457,-3.457,-3.4635,-3.4994,-3.4923,-3.4521,-3.4134,-3.4084,-3.4209,0.0,0.0,0.0,0.0,0.0,0.0,0.0,0.0,0.0,-2.0605,-2.0605,-2.0585,-2.0519,-2.0497,-2.0827,-2.1634,0.0,0.0,-2.5449,-2.7118,-2.8395,-2.9159,-3.0883,-3.2179,-3.2872,-3.3853,-3.4718,-3.55,-3.6212,-3.6654,-3.6865,-3.7642,-3.8046,-3.8142,-3.8046,-3.7526,-3.6692,-3.6596,-3.6154,-3.5423,-3.4661,-3.3757,-3.2814,-3.2006,-3.1154,-3.0288,-2.941,-2.8588,-2.778,-2.689,-2.5932,-2.5072,-2.4968,-2.4811,-2.4676,-2.4549,-2.4517,-2.45,-2.45,-2.4678,-2.4986,-2.5566,-2.603,-2.6388,0.0,-2.7104,-2.7806,-2.8596,-2.8842,-2.9302,-3.0605,-3.0953,-3.1547,-3.3001,-3.3392,-3.3977,-3.5275,-3.5168,-3.5211,-3.5891,-3.5469,-3.4754,-3.3781,-3.4168,-3.4127,-3.3346,-3.3529,-3.3555,-3.3293,-3.3745,-3.3899,-3.3658,-3.3924,-3.4176,-3.4399,-3.4448,-3.4594,-3.4851,-3.4851,-3.4875,-3.4899,-3.4899,-3.4899,-3.4899,-3.4875,-3.4851,-3.4851,-3.4851,-3.4851,-3.4851,-3.4667,-3.4691,-3.4859,-3.5008,-3.4904,-3.4761,0.0,0.0,0.0,0.0,0.0,0.0,0.0,0.0,0.0,0.0,-2.0605,-2.0586,-2.0565,-2.049,-2.0774,0.0,0.0,0.0,-2.4617,-2.6259,-2.7581,-2.842,-3.0045,-3.1338,-3.2191,-3.3019,-3.3872,-3.4737,-3.5084,-3.5738,-3.6712,-3.7065,-3.7238,-3.7238,-3.7238,-3.6769,-3.6,-3.6,-3.55,-3.4718,-3.4359,-3.3391,-3.216,-3.1833,-3.1154,-3.0346,-2.9981,-2.9267,0.0,0.0,-2.6561,-2.5485,-2.5046,-2.4757,-2.4574,-2.4525,-2.4834,-2.5272,-2.5577,-2.5654,-2.5779,-2.6315,-2.6521,-2.6704,-2.7139,-2.7841,-2.8491,-2.8842,-2.9614,-3.044,-3.1039,-3.1898,-3.2897,-3.3984,-3.4582,-3.525,-3.6195,-3.6201,-3.6143,-3.628,-3.6329,-3.5808,-3.4374,-3.4292,-3.4034,-3.3346,-3.3398,-3.3477,-3.3529,-3.3761,-3.3873,-3.3924,-3.4201,-3.4399,-3.4497,-3.4643,-3.4804,-3.4899,-3.4899,-3.4899,-3.4899,-3.4899,-3.4899,-3.4899,-3.4899,-3.4899,-3.4899,-3.4899,-3.4899,-3.4906,-3.5171,-3.5333,-3.5379,-3.4961,-3.4802,-3.4833,0.0,0.0,0.0,0.0,0.0,0.0,0.0,0.0,0.0,0.0,0.0,0.0,0.0,-2.0476,-2.0659,0.0,0.0,0.0,0.0,-2.528,-2.6597,-2.7195,-2.904,-3.0469,-3.133,-3.214,-3.3,-3.384,-3.384,-3.4468,-3.5654,-3.5654,-3.5654,-3.5654,-3.5654,-3.5327,-3.4769,-3.4769,-3.443,-3.3821,-3.3609,-3.2776,-3.166,-3.1179,-3.0583,-3.0038,-3.0038,-2.9404,0.0,-2.7716,-2.6631,-2.5485,-2.4993,-2.47,-2.4537,-2.4778,-2.541,-2.6173,-2.6784,-2.6776,-2.6728,-2.7223,-2.7338,-2.7469,-2.7927,-2.8649,-2.9299,-2.9492,-3.0422,-3.1281,-3.1493,-3.2599,-3.3757,-3.4565,-3.5281,-3.5994,-3.6764,-3.6869,-3.6771,-3.6509,-3.6771,-3.6451,-3.5128,-3.4625,-3.4152,-3.3575,-3.3513,-3.3642,-3.3933,-3.3984,-3.4101,-3.4201,-3.4472,-3.4618,-3.4618,-3.4804,-3.4899,-3.4899,-3.4899,-3.4899,-3.4899,-3.4899,-3.4899,-3.4899,-3.4899,-3.4899,-3.4899,-3.4899,-3.4899,-3.493,-3.5379,-3.565,-3.5722,-3.5085,-3.5062,-3.5322,0.0,0.0,0.0,0.0,0.0,0.0,0.0,0.0,0.0,0.0,0.0,0.0,0.0,0.0,-2.042,0.0,0.0,0.0,0.0,-2.4039,-2.5456,-2.5475,-2.7893,-2.9611,-3.0423,-3.1286,-3.2133,-3.2949,-3.2949,-3.2968,-3.3026,-3.3026,-3.3026,-3.3026,-3.3026,-3.3006,-3.2987,-3.2987,-3.2968,-3.2872,-3.2083,-3.1756,-3.1525,-2.9819,-2.9165,-2.9146,-2.9146,0.0,-2.7523,-2.672,-2.5675,-2.4718,-2.4707,-2.4615,-2.4648,-2.5429,-2.6219,-2.7037,-2.7844,-2.7867,-2.7782,-2.833,-2.8829,-2.9147,-2.8921,-2.9492,-3.0264,-3.0984,-3.1176,-3.144,-3.2213,-3.2985,-3.3757,-3.4565,-3.532,-3.6073,-3.6884,-3.6989,-3.6987,-3.6987,-3.6888,-3.6609,-3.6097,-3.5459,-3.4821,-3.4235,-3.4093,-3.4234,-3.4553,-3.4747,-3.4756,-3.4497,-3.4756,-3.4899,-3.4899,-3.4899,-3.4899,-3.4899,-3.4899,-3.4899,-3.4899,-3.4899,-3.4899,-3.4899,-3.4899,-3.4899,-3.4899,-3.4899,-3.4899,-3.4899,-3.4923,-3.5264,-3.5805,-3.5783,-3.6148,-3.6623,0.0,0.0,0.0,0.0,0.0,0.0,0.0,0.0,0.0,0.0,0.0,0.0,0.0,0.0,0.0,0.0,-2.1175,0.0,0.0,-2.2941,-2.424,-2.5339,-2.6212,-2.7335,-2.8711,-2.9547,-3.0383,-3.1231,-3.1814,-3.2372,-3.2891,-3.2891,-3.2891,-3.2891,-3.2891,-3.2891,-3.2891,-3.2891,-3.2256,-3.1212,-3.0942,-3.0179,-2.9102,-2.853,-2.8299,-2.8212,0.0,0.0,-2.7338,-2.6547,-2.5865,-2.5291,-2.4837,-2.4962,-2.5559,-2.6907,-2.7483,-2.7843,-2.8503,-2.8636,-2.8649,-2.895,-2.9337,-2.9641,-2.9687,-3.0457,-3.1168,-3.1191,-3.1616,-3.223,-3.2985,-3.3775,-3.4547,-3.532,-3.6092,-3.6691,-3.6954,-3.7007,-3.7007,-3.7007,-3.6968,-3.6713,-3.6161,-3.5825,-3.5414,-3.4844,-3.456,-3.4673,-3.518,-3.5045,-3.5108,-3.5419,-3.5293,-3.5218,-3.5218,-3.5001,-3.4899,-3.4899,-3.4899,-3.4899,-3.4899,-3.4899,-3.4899,-3.4899,-3.4899,-3.4899,-3.4899,-3.4899,-3.4899,-3.493,-3.5407,-3.5705,-3.5924,-3.6409,-3.6731,-3.6869,0.0,0.0,0.0,0.0,0.0,0.0,0.0,0.0,0.0,0.0,0.0,0.0,0.0,0.0,0.0,0.0,0.0,-2.1214,0.0,0.0,-2.2917,-2.3989,-2.4621,-2.5572,-2.694,-2.7782,-2.8632,-2.95,-3.0063,-3.0602,-3.1102,-3.1102,-3.1102,-3.1102,-3.1102,-3.1102,-3.1102,-3.1102,-3.066,-2.991,-2.9615,-2.9025,-2.8261,-2.7659,-2.7448,0.0,0.0,-2.614,-2.6418,-2.5844,-2.5496,-2.5205,-2.4756,-2.533,-2.6386,-2.7706,-2.8319,-2.8641,-2.9041,-2.9348,-2.9577,-2.9608,-3.0134,-3.0626,-3.0652,-3.1331,-3.1896,-3.1666,-3.2037,-3.2546,-3.302,-3.3739,-3.453,-3.5285,-3.6057,-3.6673,-3.6954,-3.7007,-3.7007,-3.7007,-3.7007,-3.6851,-3.6451,-3.6329,-3.6062,-3.5504,-3.5117,-3.5203,-3.5825,-3.5532,-3.5509,-3.5885,-3.5825,-3.5772,-3.5772,-3.5721,-3.5694,-3.5694,-3.5694,-3.5694,-3.5694,-3.5694,-3.575,-3.5902,-3.5902,-3.5973,-3.6115,-3.6115,-3.6115,-3.6162,-3.6588,-3.6816,-3.6956,-3.7157,-3.7294,-3.7319,0.0,0.0,0.0,0.0,0.0,0.0,0.0,0.0,0.0,0.0,0.0,0.0,0.0,0.0,0.0,0.0,0.0,0.0,0.0,0.0,0.0,-2.1602,-2.3122,-2.4343,-2.5154,-2.6034,-2.6901,-2.778,-2.7818,-2.7857,-2.7895,-2.7895,-2.7895,-2.7895,-2.7895,-2.7895,-2.7895,-2.7895,-2.8319,-2.8915,-2.8145,-2.8261,-2.8723,-2.714,0.0,0.0,0.0,-2.4902,-2.4881,-2.4734,-2.4615,-2.4518,-2.4592,-2.5671,-2.7074,-2.7929,-2.8746,-2.9396,-2.9396,-2.9991,-3.0531,-3.0311,-3.1198,-3.2076,-3.1834,-3.2109,-3.2422,-3.2422,-3.2405,-3.2406,-3.2441,-3.302,-3.3774,-3.4618,-3.5337,-3.6092,-3.6884,-3.7007,-3.7007,-3.7007,-3.7007,-3.7007,-3.7007,-3.7007,-3.6753,-3.6182,-3.5781,-3.5847,-3.6485,-3.6174,-3.6002,-3.6023,-3.6418,-3.6599,-3.6575,-3.6937,-3.7102,-3.7102,-3.7102,-3.7102,-3.7102,-3.7127,-3.7336,-3.7694,-3.7718,-3.795,-3.8294,-3.8294,-3.8294,-3.8294,-3.8317,-3.8527,-3.8712,-3.7949,-3.7899,-3.8038,0.0,0.0,0.0,0.0,0.0,0.0,0.0,0.0,0.0,0.0,0.0,0.0,0.0,0.0,0.0,0.0,0.0,0.0,0.0,0.0,0.0,0.0,0.0,0.0,0.0,0.0,0.0,-2.5962,-2.6621,-2.7255,-2.7895,-2.7895,-2.7895,-2.7895,-2.7895,-2.7895,-2.7895,-2.7895,-2.764,-2.7217,0.0,-2.6678,-2.6212,0.0,0.0,0.0,0.0,-2.4902,-2.4867,-2.4629,-2.4534,-2.4704,-2.5912,-2.6572,-2.7185,-2.8635,-2.9229,-2.9396,-2.9396,-2.9991,-3.068,-3.0937,-3.1748,-3.2543,-3.2828,-3.2798,-3.2702,-3.2702,-3.254,-3.2564,-3.3125,-3.3353,-3.395,-3.5302,-3.5669,-3.6092,-3.6884,-3.7007,-3.7007,-3.7007,-3.7007,-3.7007,-3.7007,-3.7007,-3.693,-3.6774,-3.643,-3.6426,-3.6849,-3.7071,-3.7282,-3.753,-3.7979,-3.8065,-3.7767,-3.7335,-3.7102,-3.7102,-3.7102,-3.7102,-3.7102,-3.741,-3.7614,-3.7735,-3.802,-3.8224,-3.8294,-3.8294,-3.8294,-3.834,-3.8572,-3.8711,-3.8803,-3.8849,-3.8923,-3.888,0.0,0.0,0.0,0.0,0.0,0.0,0.0,0.0,0.0,0.0,0.0,0.0,0.0,0.0,0.0,0.0,0.0,0.0,0.0,0.0,0.0,0.0,0.0,0.0,0.0,0.0,0.0,0.0,0.0,0.0,-2.5664,-2.6048,-2.6222,-2.6241,-2.6601,-2.6755,-2.6755,-2.6755,0.0,0.0,0.0,0.0,0.0,0.0,0.0,0.0,0.0,-2.4818,-2.4696,-2.4549,-2.45,-2.4778,-2.6386,-2.6907,-2.7222,-2.8913,-2.9396,-2.9396,-2.9396,-2.9991,-3.0757,-3.1357,-3.2065,-3.2763,-3.3386,-3.2901,-3.2313,-3.2313,-3.1828,-3.1616,-3.2335,-3.2493,-3.3003,-3.4547,-3.5092,-3.5583,-3.6355,-3.6796,-3.7007,-3.7007,-3.7007,-3.7007,-3.7007,-3.7007,-3.7007,-3.7007,-3.6829,-3.6809,-3.6987,-3.751,-3.7909,-3.8091,-3.886,-3.9164,-3.894,-3.8354,-3.8063,-3.8063,-3.8063,-3.8166,-3.8345,-3.8564,-3.8843,-3.9163,-3.9392,-3.9595,-3.9754,-3.9754,-3.9754,-3.9777,-3.9978,-4.0027,-4.0014,-3.9873,-3.9831,-3.9708,0.0,0.0,0.0,0.0,0.0,0.0,0.0,0.0,0.0,0.0,0.0,0.0,0.0,0.0,0.0,0.0,0.0,0.0,0.0,0.0,0.0,0.0,0.0,0.0,0.0,0.0,0.0,0.0,0.0,0.0,0.0,0.0,0.0,0.0,0.0,0.0,0.0,0.0,0.0,0.0,0.0,0.0,0.0,0.0,0.0,0.0,-2.5,-2.4749,-2.4515,-2.4508,-2.45,-2.476,-2.6275,-2.6814,-2.7204,-2.8765,-2.9304,-2.9396,-2.9396,-2.9991,-3.0772,-3.1478,-3.204,-3.2614,-3.3369,-3.2502,-3.1561,-3.1589,-3.0829,-3.0382,-3.107,-3.1228,-3.1736,-3.3248,-3.4091,-3.4846,-3.5669,-3.6391,-3.6884,-3.6989,-3.7007,-3.7007,-3.7007,-3.7007,-3.7007,-3.7007,-3.7007,-3.7007,-3.7007,-3.7795,-3.8357,-3.8567,-3.9494,-3.9969,-3.9961,-3.959,-3.9352,-3.9299,-3.9388,-3.9599,-3.9901,-3.9986,-4.0395,-4.1001,-4.1047,-4.1295,-4.1604,-4.1604,-4.1604,-4.1604,-4.1604,-4.1604,-4.1516,-4.0889,-4.066,-4.0537,0.0,0.0,0.0,0.0,0.0,0.0,0.0,0.0,0.0,0.0,-2.0605,0.0,0.0,0.0,0.0,0.0,0.0,0.0,0.0,0.0,0.0,0.0,0.0,0.0,0.0,-2.0512,-2.0905,-2.1735,-2.1735,0.0,0.0,0.0,0.0,0.0,0.0,0.0,0.0,0.0,0.0,0.0,0.0,0.0,0.0,0.0,0.0,0.0,-2.5,-2.4804,-2.4647,0.0,-2.45,-2.4667,-2.5615,-2.6349,-2.7092,-2.804,-2.8839,-2.9396,-2.9396,-2.9991,-3.0623,-3.0772,-3.1179,-3.1642,-3.2038,-3.1392,-3.077,-3.099,-3.0718,-3.0599,-3.1103,-3.1372,-3.1948,-3.3284,-3.3617,-3.4196,-3.5599,-3.5915,-3.625,-3.6919,-3.7007,-3.7007,-3.7007,-3.7007,-3.7007,-3.7007,-3.7007,-3.7007,-3.7007,-3.8339,-3.9691,-4.0955,-4.0544,-4.0305,-4.0319,-3.9969,-3.9642,-3.9299,-3.991,-4.0087,-3.9926,-4.0524,-4.0884,-4.1024,-4.134,-4.1538,-4.1604,-4.1604,-4.1604,-4.1604,-4.1604,-4.1604,-4.1587,-4.1464,-4.1411,-4.1306,0.0,0.0,0.0,0.0,0.0,0.0,0.0,0.0,0.0,0.0,-2.0605,-2.0605,0.0,0.0,0.0,0.0,0.0,0.0,0.0,0.0,0.0,0.0,0.0,0.0,0.0,-2.0317,-2.0492,-2.0885,0.0,-2.11,-2.1504,-2.1927,-2.212,-2.2139,-2.2605,-2.2797,-2.2797,0.0,0.0,-2.2797,-2.2797,-2.3047,0.0,0.0,0.0,0.0,0.0,-2.4871,-2.4682,-2.4634,-2.4555,-2.4648,-2.5448,-2.6238,-2.7055,-2.7854,-2.8709,-2.9396,-2.9396,-2.9675,-3.0084,-3.0493,-3.0765,-3.1097,-3.1667,-3.0936,-3.017,-3.0301,-2.9741,-2.9538,-3.0469,-3.0853,-3.1444,-3.2721,-3.3248,-3.3897,-3.5056,-3.5547,-3.611,-3.6902,-3.7007,-3.7007,-3.7007,-3.7007,-3.7007,-3.7007,-3.7007,-3.7007,-3.7007,-3.8462,-4.0024,-4.1552,-4.1007,-4.0707,-4.0707,-4.0336,-4.0062,-3.9885,-4.0245,-4.0417,-4.0476,-4.0836,-4.1117,-4.1318,-4.1515,-4.1604,-4.1604,-4.1604,-4.1604,-4.1604,-4.1604,-4.1604,-4.1604,-4.1604,-4.1604,-4.1552,0.0,0.0,0.0,0.0,0.0,0.0,0.0,-2.0605,-2.0605,-2.0605,-2.0605,-2.0605,-2.0605,-2.0605,-2.0605,0.0,0.0,0.0,0.0,0.0,0.0,0.0,0.0,0.0,0.0,0.0,0.0,-2.0292,-2.0308,0.0,0.0,0.0,0.0,0.0,-2.1966,-2.2254,-2.2259,-2.2263,-2.2263,0.0,0.0,-2.2382,0.0,0.0,0.0,0.0,0.0,-2.4968,-2.4756,-2.4712,-2.4618,-2.4601,-2.5243,-2.6005,-2.6795,-2.7613,-2.8449,-2.9155,-2.9341,-2.9396,-2.9545,-3.0177,-3.0344,-3.0511,-3.1143,-3.0368,-2.952,-2.952,-2.8801,-2.8602,-2.9945,-3.0396,-3.1001,-3.2276,-3.2915,-3.3529,-3.4337,-3.5092,-3.5864,-3.6656,-3.6902,-3.7007,-3.7007,-3.7007,-3.7007,-3.7007,-3.7007,-3.7148,-3.7481,-3.8638,-4.0024,-4.1552,-4.1226,-4.1001,-4.1001,-4.0683,-4.049,-4.04,-4.057,-4.0795,-4.1001,-4.1094,-4.1295,-4.1604,-4.1604,-4.1604,-4.1604,-4.1604,-4.1604,-4.1604,-4.1604,-4.1604,-4.1604,-4.1604,-4.1604,-4.1604,0.0,0.0,0.0,0.0,0.0,0.0,0.0,-2.0605,-2.0605,-2.0605,-2.0605,-2.0605,-2.0605,-2.0605,-2.0605,0.0,0.0,0.0,0.0,0.0,0.0,0.0,0.0,0.0,0.0,0.0,0.0,-2.0294,-2.0292,0.0,0.0,0.0,0.0,0.0,0.0,-2.0538,-2.0523,-2.0523,0.0,0.0,0.0,0.0,0.0,0.0,0.0,0.0,0.0,-2.5061,-2.4929,-2.4763,-2.4615,-2.4505,-2.4582,-2.5169,-2.5968,-2.6776,-2.7575,-2.8393,-2.9174,-2.9396,-2.9415,-2.9489,-2.9508,-2.9527,-2.9601,-2.9108,-2.8625,-2.8625,-2.8545,-2.8876,-3.0219,-3.0683,-3.1276,-3.2563,-3.2627,-3.2757,-3.3512,-3.4302,-3.5074,-3.581,-3.6549,-3.7007,-3.7007,-3.7007,-3.7007,-3.7007,-3.7007,-3.7602,-3.9024,-3.9213,-4.0024,-4.1552,-4.1226,-4.1001,-4.1001,-4.0977,-4.0772,-4.04,-4.1146,-4.1318,-4.1001,-4.1386,-4.156,-4.1604,-4.1604,-4.1604,-4.1604,-4.1604,-4.1604,-4.1604,-4.1604,-4.1604,-4.1604,-4.1604,-4.1604,-4.1604,0.0,0.0,0.0,0.0,0.0,0.0,0.0,-2.0605,-2.0605,-2.0605,-2.0605,-2.0605,-2.0605,-2.0605,-2.0605,0.0,0.0,0.0,0.0,0.0,0.0,0.0,0.0,0.0,0.0,0.0,-2.0369,-2.0295,-2.0294,0.0,0.0,0.0,0.0,0.0,0.0,-2.0292,-2.0292,-2.0299,0.0,0.0,0.0,0.0,0.0,0.0,0.0,0.0,0.0,0.0,-2.4987,-2.4915,-2.4704,-2.4503,-2.4505,-2.4721,-2.515,-2.5949,-2.6739,-2.7557,-2.8393,-2.8616,-2.8746,-2.9266,-2.9396,-2.9396,-2.9396,-2.9093,-2.8803,-2.8803,-2.8646,-2.8967,-3.0454,-3.0697,-3.1133,-3.2579,-3.2573,-3.2651,-3.3406,-3.4196,-3.4969,-3.5704,-3.6513,-3.7007,-3.7007,-3.7007,-3.7007,-3.7007,-3.7007,-3.7444,-3.8532,-3.9038,-3.9814,-4.0906,-4.1226,-4.1363,-4.1363,-4.1363,-4.1277,-4.1123,-4.1453,-4.1515,-4.1363,-4.1538,-4.1604,-4.1604,-4.1604,-4.1604,-4.1604,-4.1604,-4.1604,-4.1604,-4.1604,-4.1604,-4.1604,-4.1604,-4.1604,-4.1604,0.0,0.0,0.0,0.0,0.0,0.0,-2.0605,-2.0605,-2.0605,-2.0605,-2.0605,-2.0605,-2.0605,-2.0605,-2.0605,-2.0605,0.0,0.0,0.0,0.0,0.0,0.0,0.0,0.0,0.0,0.0,-2.0403,-2.0323,-2.0305,-2.0304,0.0,0.0,-2.0297,-2.0297,0.0,0.0,0.0,0.0,0.0,0.0,0.0,0.0,0.0,0.0,0.0,0.0,0.0,0.0,0.0,0.0,0.0,-2.4575,-2.4537,-2.4524,0.0,-2.5466,-2.6089,-2.6721,-2.7538,-2.7929,-2.8244,-2.8858,-2.9211,-2.9396,-2.9396,-2.9189,-2.9003,-2.9003,-2.8737,-2.8946,-3.0433,-3.0596,-3.0957,-3.235,-3.2479,-3.2581,-3.309,-3.4056,-3.4881,-3.5425,-3.6373,-3.7007,-3.7007,-3.7007,-3.7007,-3.7007,-3.7007,-3.7235,-3.7742,-3.8532,-3.9322,-4.0133,-4.0656,-4.1025,-4.1271,-4.1271,-4.1376,-4.1604,-4.1604,-4.1604,-4.1604,-4.1604,-4.1604,-4.1604,-4.1604,-4.1604,-4.1604,-4.1604,-4.1604,-4.1604,-4.1604,-4.1604,-4.1604,-4.1604,-4.1604,-4.1604,0.0,0.0,0.0,0.0,0.0,0.0,0.0,-2.0605,-2.0605,-2.0605,-2.0605,-2.0605,-2.0605,-2.0605,-2.0605,-2.0605,0.0,0.0,0.0,0.0,0.0,0.0,0.0,0.0,0.0,0.0,-2.0462,-2.04,-2.0329,-2.0305,-2.0305,-2.0304,-2.0297,-2.0297,0.0,0.0,0.0,0.0,0.0,0.0,0.0,0.0,0.0,0.0,0.0,0.0,0.0,0.0,0.0,0.0,0.0,0.0,0.0,-2.4549,-2.4667,-2.5466,-2.5708,-2.5894,-2.6684,-2.7483,-2.8096,-2.8114,-2.8765,-2.9396,-2.9396,-2.9189,-2.9003,-2.9003,-2.8737,-2.8857,-3.0002,-3.0369,-3.0856,-3.1935,-3.2272,-3.2406,-3.2406,-3.3722,-3.4706,-3.4705,-3.6076,-3.7007,-3.7007,-3.7007,-3.7007,-3.7007,-3.7007,-3.7007,-3.7007,-3.7707,-3.8497,-3.9284,-3.9319,-3.9708,-4.0502,-4.052,-4.0889,-4.1604,-4.1604,-4.1604,-4.1604,-4.1604,-4.1604,-4.1604,-4.1604,-4.1604,-4.1604,-4.1604,-4.1604,-4.1604,-4.1604,-4.1604,-4.1604,-4.1604,-4.1604,-4.1604,0.0,0.0,0.0,0.0,0.0,0.0,0.0,-2.0605,-2.0605,-2.0605,-2.0605,-2.0605,-2.0605,-2.0605,-2.0605,-2.0605,0.0,0.0,0.0,0.0,0.0,0.0,0.0,0.0,0.0,0.0,-2.0462,-2.04,-2.0374,-2.0376,-2.0376,-2.037,-2.0366,-2.0366,-2.0366,-2.0366,0.0,0.0,0.0,0.0,0.0,0.0,-2.0324,0.0,0.0,0.0,0.0,0.0,0.0,0.0,0.0,0.0,0.0,0.0,0.0,-2.4822,-2.487,-2.5057,-2.5856,-2.6275,-2.6721,-2.7836,-2.8319,-2.8672,-2.9248,-2.9326,-2.9272,-2.9272,-2.8855,-2.8907,-3.0224,-3.0498,-3.0846,-3.1931,-3.2406,-3.2669,-3.2669,-3.4053,-3.5013,-3.4977,-3.6175,-3.7007,-3.7007,-3.7007,-3.7007,-3.7007,-3.7007,-3.7007,-3.7007,-3.7218,-3.769,-3.8462,-3.9003,-3.9427,-3.9691,-3.9691,-3.9796,-4.0042,-4.0586,-4.0854,-4.0871,-4.1358,-4.1604,-4.1604,-4.1604,-4.1604,-4.1604,-4.1604,-4.1604,-4.1604,-4.1604,-4.1604,-4.1604,-4.1604,-4.1604,-4.1604,0.0,0.0,0.0,0.0,0.0,0.0,0.0,-2.0605,-2.0605,-2.0605,-2.0605,-2.0605,-2.0605,-2.0605,-2.0605,-2.0605,0.0,0.0,0.0,0.0,0.0,0.0,0.0,0.0,0.0,-2.0508,-2.0482,-2.0445,-2.0412,-2.0407,-2.0402,-2.0402,-2.0402,-2.0402,-2.0402,-2.0402,0.0,0.0,0.0,0.0,0.0,0.0,-2.0334,0.0,0.0,0.0,0.0,0.0,0.0,0.0,0.0,0.0,0.0,0.0,0.0,0.0,-2.4549,-2.461,-2.5113,-2.5466,-2.6024,-2.7315,-2.7873,-2.8337,-2.9192,-2.9396,-2.9396,-2.9396,-2.9019,-2.8997,-2.9964,-3.0421,-3.0883,-3.1534,-3.2301,-3.2765,-3.2653,-3.412,-3.5399,-3.5935,-3.6603,-3.7007,-3.7007,-3.7007,-3.7007,-3.7007,-3.7007,-3.7007,-3.7007,-3.7007,-3.7218,-3.7672,-3.8164,-3.8567,-3.8827,-3.8866,-3.8985,-3.9301,-3.9814,-4.0042,-4.0059,-4.0832,-4.1165,-4.12,-4.1481,-4.1604,0.0,-4.1604,-4.1604,-4.1604,-4.1604,-4.1604,-4.1604,-4.1604,-4.1604,-4.1604,0.0,0.0,0.0,0.0,0.0,0.0,0.0,0.0,0.0,0.0,-2.0605,-2.0605,-2.0605,-2.0605,-2.0605,0.0,0.0,0.0,0.0,0.0,0.0,0.0,0.0,0.0,0.0,-2.0522,-2.0507,-2.0503,-2.0424,-2.0393,-2.0408,-2.0402,-2.0402,-2.0402,-2.0402,-2.0402,-2.0402,-2.0402,-2.0402,-2.0402,-2.0402,-2.0402,0.0,0.0,0.0,0.0,0.0,0.0,0.0,0.0,0.0,0.0,0.0,0.0,0.0,0.0,0.0,0.0,0.0,-2.5039,-2.5819,-2.6684,-2.7464,-2.8263,-2.9192,-2.9396,0.0,-2.9396,-2.9189,-2.9089,-2.9347,-3.0228,-3.0926,-3.0939,-3.1993,-3.275,-3.249,-3.4053,-3.5826,-3.7381,-3.7262,-3.7046,-3.7046,-3.7009,-3.7007,-3.7007,-3.7007,-3.7007,-3.7007,-3.7007,-3.7007,-3.7007,-3.7007,-3.7341,-3.8023,-3.8023,-3.8409,-3.9147,-3.9199,-3.9196,-3.9231,-4.0042,-4.045,-4.0537,-4.1218,-4.1552,-4.1604,-4.1604,-4.1604,-4.1604,-4.1604,-4.1604,-4.1604,-4.1604,-4.1604,-4.1604,0.0,0.0,0.0,0.0,0.0,0.0,0.0,0.0,0.0,0.0,-2.0605,-2.0605,-2.0605,-2.0605,-2.0605,0.0,0.0,0.0,0.0,0.0,0.0,0.0,0.0,0.0,0.0,-2.0522,-2.0494,-2.0509,-2.0437,-2.0393,-2.0398,-2.0407,-2.0402,-2.0402,-2.0402,-2.0402,-2.0402,-2.0402,-2.0402,-2.0402,-2.0402,-2.0402,0.0,0.0,0.0,0.0,-2.1585,-2.2477,0.0,0.0,0.0,0.0,0.0,0.0,0.0,0.0,-2.4631,-2.459,-2.4582,0.0,-2.5113,-2.6553,-2.7037,-2.7575,0.0,-2.9396,-2.9396,-2.9396,-2.9189,-2.9089,-2.9347,-3.0443,-3.1272,-3.1221,-3.2327,-3.3154,-3.3096,-3.4542,-3.6272,-3.8127,-3.7773,-3.7394,-3.7394,-3.7147,-3.7007,-3.7007,-3.7007,-3.7007,-3.7007,-3.7007,-3.7007,-3.7007,-3.7007,-3.7077,-3.7271,-3.7271,-3.7358,-3.7532,-3.8111,-3.8392,-3.8409,-3.9217,-3.9919,-4.052,-4.0678,-4.1078,-4.1604,-4.1604,-4.1604,-4.1604,-4.1604,-4.1604,-4.1604,-4.1604,-4.1604,-4.1604,0.0,0.0,0.0,0.0,0.0,0.0,0.0,0.0,0.0,0.0,0.0,0.0,0.0,0.0,0.0,0.0,0.0,0.0,0.0,0.0,0.0,0.0,0.0,0.0,-2.0605,-2.0565,-2.0521,-2.0496,-2.0458,-2.042,-2.0398,-2.0396,-2.0402,-2.0402,-2.0402,-2.0402,-2.0402,-2.0402,-2.0402,-2.0402,-2.0402,0.0,0.0,0.0,0.0,0.0,-2.1336,-2.219,0.0,-2.3669,-2.4438,-2.5055,0.0,0.0,0.0,0.0,-2.4663,-2.465,-2.465,-2.4574,-2.4897,-2.6535,-2.6925,-2.7334,-2.9006,0.0,-2.9396,-2.9396,-2.9283,-2.924,-2.9376,-3.0283,-3.1088,-3.1262,-3.2237,-3.3377,-3.4466,-3.5566,-3.6848,-3.8417,-3.8097,-3.7703,-3.7523,-3.7339,-3.7166,-3.7009,-3.7007,-3.7007,-3.7007,-3.7007,-3.7007,-3.7007,-3.7007,-3.7007,-3.7007,-3.7007,-3.7007,-3.7007,-3.7391,-3.7584,-3.7619,-3.8409,-3.8989,-3.941,-3.9779,-4.0182,-4.0586,-4.0937,-4.1095,-4.113,-4.1464,-4.1604,-4.1604,-4.1604,-4.1394,-4.1095,0.0,0.0,0.0,0.0,0.0,0.0,0.0,0.0,0.0,0.0,0.0,0.0,0.0,0.0,0.0,0.0,0.0,0.0,0.0,0.0,0.0,0.0,0.0,-2.0605,-2.0605,-2.0605,-2.0565,-2.0496,-2.0494,-2.0462,-2.0398,-2.0396,-2.0402,-2.0402,-2.0402,-2.0402,-2.0402,-2.0402,-2.0402,-2.0402,-2.0402,0.0,0.0,0.0,0.0,0.0,0.0,0.0,0.0,-2.3758,-2.4499,-2.509,-2.4955,0.0,0.0,0.0,0.0,0.0,-2.4698,-2.4717,-2.5079,-2.6637,-2.6972,-2.7353,-2.9016,0.0,-2.9399,-2.9407,-2.9407,-2.9407,-2.9407,-3.0158,-3.0898,-3.1311,-3.2278,-3.3715,-3.5909,-3.6644,-3.74,-3.8533,-3.8378,-3.805,-3.7703,-3.7578,-3.7394,-3.7106,-3.7029,-3.7007,-3.7007,-3.7007,-3.7007,-3.7007,-3.7007,-3.7007,-3.7007,-3.7007,-3.7007,-3.7007,-3.7007,-3.7007,-3.7025,-3.7637,-3.7988,-3.8146,-3.881,-3.9199,-3.9336,-4.0024,-4.0327,-4.0379,-4.1007,-4.1253,-4.1253,-4.1253,-4.0849,-4.0309,0.0,0.0,0.0,0.0,0.0,0.0,0.0,0.0,0.0,0.0,0.0,0.0,0.0,0.0,0.0,0.0,0.0,0.0,0.0,0.0,0.0,0.0,-2.0605,-2.0605,-2.0605,-2.0605,-2.0565,-2.0496,-2.0494,-2.0462,-2.0398,-2.0396,-2.0402,-2.0402,-2.0402,-2.0402,-2.0402,-2.0402,-2.0402,-2.0402,-2.0402,0.0,0.0,0.0,0.0,0.0,0.0,0.0,0.0,-2.3758,-2.4563,-2.5228,-2.4987,0.0,0.0,0.0,0.0,0.0,-2.4692,-2.5185,-2.5903,-2.685,-2.7083,-2.7475,-2.903,-2.9433,0.0,-2.9399,-2.9409,-2.9401,-2.9407,-3.0604,-3.1634,-3.1718,-3.3357,-3.4995,-3.6056,-3.6839,-3.7754,-3.8892,-3.8733,-3.8502,-3.8439,-3.7877,-3.7487,-3.7414,-3.7166,-3.7007,-3.7007,-3.7007,-3.7007,-3.7007,-3.7007,-3.7007,-3.7007,-3.7007,-3.7007,-3.7007,-3.7007,-3.7007,-3.7007,-3.713,-3.7496,-3.8111,-3.8234,-3.867,-3.9301,-3.9424,-3.9498,-3.9498,-3.9621,-3.9635,-3.9635,-3.9635,-3.9585,-3.9392,0.0,0.0,0.0,0.0,0.0,0.0,0.0,0.0,0.0,0.0,0.0,0.0,0.0,0.0,0.0,0.0,0.0,0.0,0.0,0.0,0.0,-2.0605,-2.0605,-2.0605,-2.0605,-2.0565,-2.0521,-2.0496,-2.0458,-2.042,-2.0398,-2.0396,-2.0402,-2.0402,-2.0402,-2.0402,-2.0402,-2.0402,-2.0402,-2.0402,0.0,0.0,0.0,0.0,0.0,0.0,0.0,0.0,0.0,0.0,-2.4638,-2.5288,-2.5168,0.0,0.0,0.0,0.0,0.0,-2.47,-2.5017,-2.5642,-2.6851,-2.7437,-2.7997,-2.914,-2.9411,-2.944,-2.9407,-2.9399,-2.9529,-2.9965,-3.0641,-3.144,-3.2314,-3.4395,-3.6038,-3.6407,-3.7549,-3.8516,-3.9031,-3.897,-3.8792,-3.8609,-3.8293,-3.7929,-3.7542,-3.7559,-3.743,-3.7009,-3.7185,-3.7204,-3.7007,-3.7007,-3.7007,-3.7007,-3.7007,-3.7007,-3.7007,-3.7007,-3.7007,-3.7007,-3.7007,-3.7183,-3.7496,-3.7496,-3.7707,-3.8093,-3.8497,-3.8634,-3.8687,-3.9126,-3.9284,-3.9231,-3.881,-3.8634,-3.855,0.0,0.0,0.0,0.0,0.0,0.0,0.0,0.0,0.0,0.0,0.0,0.0,0.0,0.0,0.0,0.0,0.0,0.0,0.0,0.0,-2.0605,-2.0605,-2.0605,-2.0605,-2.0605,-2.0544,-2.0517,-2.0509,-2.0446,-2.0424,-2.0398,-2.0407,-2.0402,-2.0402,-2.0402,-2.0402,-2.0402,-2.0402,-2.0402,-2.0421,0.0,0.0,0.0,0.0,0.0,0.0,0.0,0.0,0.0,0.0,0.0,0.0,0.0,0.0,0.0,-2.4915,-2.4816,-2.47,-2.47,-2.5073,-2.5757,-2.6892,-2.7594,-2.825,-2.9236,-2.9458,-2.9448,-2.9399,-2.9399,-2.9649,-3.0456,-3.0902,-3.1626,-3.3045,-3.52,-3.6699,-3.6699,-3.8079,-3.9101,-3.9101,-3.9101,-3.8998,-3.8748,-3.8658,-3.8357,-3.7808,-3.7878,-3.7739,-3.728,-3.7338,-3.7301,-3.7127,-3.7048,-3.7007,-3.7007,-3.7007,-3.7007,-3.7007,-3.7007,-3.7007,-3.7007,-3.7007,-3.7007,-3.7007,-3.7007,-3.7007,-3.7042,-3.7602,-3.7848,-3.79,-3.8532,-3.876,-3.869,-3.8076,-3.7848,-3.776,0.0,0.0,0.0,0.0,0.0,0.0,0.0,0.0,0.0,0.0,0.0,0.0,0.0,0.0,0.0,0.0,0.0,0.0,0.0,0.0,-2.0605,-2.0605,-2.0605,-2.0605,-2.0605,-2.0605,-2.0561,-2.0503,-2.0498,-2.0456,-2.0408,-2.0402,-2.0402,-2.0402,-2.0402,-2.0402,-2.0402,-2.0402,-2.0402,-2.0479,-2.1278,0.0,0.0,0.0,0.0,0.0,0.0,0.0,0.0,0.0,0.0,0.0,0.0,0.0,-2.5055,-2.4942,-2.4816,-2.47,-2.47,-2.5937,-2.721,-2.7131,-2.7271,-2.7832,-2.9261,-2.9588,-2.9559,-2.9423,-2.9402,-2.9653,-3.0448,-3.1831,-3.3101,-3.3956,-3.5572,-3.6699,-3.6699,-3.8079,-3.9101,-3.9101,-3.9101,-3.9101,-3.9073,-3.8778,-3.8579,-3.8533,-3.7911,-3.7685,-3.8,-3.7394,-3.7166,-3.745,-3.7166,-3.7007,-3.7007,-3.7007,-3.7007,-3.7007,-3.7007,-3.7007,-3.7007,-3.7007,-3.7007,-3.7007,-3.7007,-3.7007,-3.7007,-3.706,-3.7077,-3.7077,-3.7148,-3.7183,-3.7165,-3.7095,-3.7077,-3.7077,0.0,0.0,0.0,0.0,0.0,0.0,0.0,0.0,0.0,0.0,0.0,0.0,0.0,0.0,0.0,0.0,0.0,0.0,0.0,0.0,-2.0605,-2.0605,-2.0605,-2.0605,-2.0605,-2.0564,-2.0533,-2.0498,-2.0467,-2.041,-2.0402,-2.0402,-2.0402,-2.0402,-2.0402,-2.0402,-2.044,-2.0985,-2.1201,-2.1278,-2.211,-2.2458,0.0,0.0,0.0,0.0,0.0,0.0,0.0,0.0,-2.5507,-2.5484,-2.5432,-2.5274,-2.5084,-2.5031,-2.4867,-2.4723,-2.4808,-2.5777,-2.6879,-2.7295,-2.7934,-2.8646,-2.9326,-2.9481,-2.9453,-2.9412,-2.9791,-3.0551,-3.1849,-3.3001,-3.4011,-3.4866,-3.5974,-3.6872,-3.7373,-3.8395,-3.9101,-3.9101,-3.9584,-3.99,-3.99,-3.9781,-3.9616,-3.9362,-3.8823,-3.8392,-3.8118,-3.8032,-3.7843,-3.7523,-3.7376,-3.7206,-3.6989,-3.7007,-3.7007,-3.7007,-3.7007,-3.7007,-3.7007,-3.7007,-3.7007,-3.7007,-3.7007,-3.7007,-3.7007,-3.7007,-3.7007,-3.7007,-3.7007,-3.7007,-3.7007,-3.7007,-3.7007,-3.7007,0.0,0.0,0.0,0.0,0.0,0.0,0.0,0.0,0.0,0.0,0.0,0.0,0.0,0.0,0.0,0.0,0.0,0.0,0.0,-2.0605,-2.0605,-2.0605,-2.0605,-2.0605,-2.0605,-2.0564,-2.0512,-2.0498,-2.0424,-2.0402,-2.0402,-2.0402,-2.0556,-2.0811,-2.0811,-2.0946,-2.1233,-2.1839,-2.2075,-2.2152,-2.2981,-2.331,0.0,0.0,0.0,0.0,0.0,0.0,0.0,0.0,-2.5507,-2.5507,-2.5507,-2.5346,-2.5165,-2.5165,-2.4993,-2.484,-2.4948,-2.5887,-2.6966,-2.7459,-2.8511,-2.9441,-2.9522,-2.9541,-2.9513,-2.9434,-3.0256,-3.1478,-3.3083,-3.3826,-3.4494,-3.5361,-3.6179,-3.6978,-3.7782,-3.8581,-3.9101,-3.9101,-3.9621,-4.0085,-4.0378,-4.0416,-4.0385,-4.0379,-3.9974,-3.9586,-3.9209,-3.8953,-3.8578,-3.808,-3.7811,-3.7468,-3.6989,-3.7223,-3.728,-3.7166,-3.7166,-3.7089,-3.7007,-3.7007,-3.7007,-3.7007,-3.7007,-3.7007,-3.7007,-3.7007,-3.7007,-3.7007,-3.7007,-3.7007,-3.7007,-3.7007,-3.7007,-3.7007,0.0,0.0,0.0,0.0,0.0,0.0,0.0,0.0,0.0,0.0,0.0,0.0,0.0,0.0,0.0,0.0,0.0,0.0,0.0,-2.0605,-2.0605,-2.0605,-2.0605,-2.0605,-2.0605,-2.0605,-2.0561,-2.0498,-2.0424,-2.0402,-2.0402,-2.0402,-2.0869,-2.1707,-2.1707,-2.2152,-2.2903,-2.2903,-2.2903,-2.3,-2.3867,-2.4215,-2.4312,0.0,0.0,0.0,0.0,0.0,0.0,0.0,-2.5507,-2.5507,-2.5507,-2.5406,-2.5308,-2.5308,-2.5217,-2.509,-2.509,-2.6417,-2.7764,-2.7644,-2.8867,-3.004,-2.9859,-2.9801,-2.977,-2.9588,-3.0772,-3.2314,-3.3918,-3.4197,-3.4494,-3.538,-3.6179,-3.6978,-3.7801,-3.8599,-3.9101,-3.9101,-3.9101,-3.9454,-4.0323,-4.0416,-4.0717,-4.1534,-4.128,-4.1248,-4.1557,-4.0154,-3.9313,-3.9313,-3.8535,-3.7756,-3.7027,-3.7739,-3.7896,-3.7505,-3.7505,-3.732,-3.6989,-3.7007,-3.7007,-3.7007,-3.7007,-3.7007,-3.7007,-3.7007,-3.7007,-3.7007,-3.7007,-3.7007,-3.7007,-3.7007,-3.7007,-3.7007,0.0,0.0,0.0,0.0,0.0,0.0,0.0,0.0,0.0,0.0,0.0,0.0,0.0,0.0,0.0,0.0,0.0,0.0,0.0,-2.0605,-2.0605,-2.0605,-2.0605,-2.0605,-2.0605,-2.0556,-2.0516,-2.0498,-2.0424,-2.0402,-2.0402,-2.1024,-2.1453,-2.1727,-2.2284,-2.2671,-2.2942,-2.3557,-2.3809,-2.3886,-2.4757,-2.5105,-2.5143,0.0,0.0,0.0,0.0,0.0,0.0,0.0,0.0,0.0,-2.5507,-2.5406,-2.5308,-2.5308,-2.5217,-2.5126,-2.5222,-2.649,-2.782,-2.7875,-2.9074,-3.0203,-3.0047,-3.0736,-3.1868,-3.3456,-3.3666,-3.3892,-3.4915,-3.512,-3.538,-3.6216,-3.6551,-3.7169,-3.8544,-3.8952,-3.9101,-3.9101,-3.964,-4.0118,-4.0378,-4.0416,-4.0508,-4.075,-4.0663,-4.0648,-4.0754,-4.087,-4.0799,-4.0502,-3.9717,-3.9084,-3.8618,-3.8271,-3.8051,-3.7913,-3.7913,-3.7721,-3.7339,-3.7126,-3.7007,-3.7007,-3.7007,-3.7007,-3.7007,-3.7007,-3.7007,-3.7007,-3.7007,-3.7007,-3.7007,-3.7007,-3.7007,-3.7007,0.0,0.0,0.0,0.0,0.0,0.0,0.0,0.0,0.0,0.0,-2.0597,0.0,0.0,0.0,0.0,0.0,0.0,0.0,0.0,0.0,-2.0605,-2.0605,-2.0605,-2.0605,-2.0605,-2.0526,-2.0498,-2.0498,-2.0424,-2.0402,-2.0421,-2.1298,-2.1862,-2.2207,-2.3058,-2.3616,-2.3964,-2.4486,-2.4718,-2.4757,-2.5298,-2.5507,-2.5507,0.0,0.0,0.0,0.0,0.0,0.0,0.0,0.0,0.0,-2.5507,-2.5432,-2.5388,-2.5388,-2.5327,-2.5356,-2.5755,-2.6839,-2.7981,-2.8403,-2.9418,-3.0438,-3.097,-3.1676,-3.2782,-3.4752,-3.5044,-3.5156,-3.5889,-3.5727,-3.577,-3.6569,-3.6699,-3.7262,-3.8859,-3.9101,-3.9101,-3.9101,-3.9547,-4.0011,-4.0378,-4.0416,-4.0527,-4.0847,-4.0866,-4.0866,-4.0866,-4.1033,-4.0937,-4.0535,-3.9857,-3.9297,-3.8825,-3.8617,-3.8426,-3.8298,-3.8298,-3.8165,-3.7929,-3.7596,-3.7338,-3.7186,-3.7186,-3.7127,-3.7007,-3.7007,-3.7007,-3.7007,-3.7007,-3.7007,-3.7007,-3.7007,-3.7007,-3.7007,0.0,0.0,0.0,0.0,0.0,0.0,0.0,0.0,0.0,0.0,-2.0594,-2.0595,0.0,0.0,0.0,0.0,0.0,0.0,0.0,0.0,-2.0604,-2.0604,-2.0605,-2.0605,-2.0605,-2.0526,-2.0498,-2.0498,-2.0424,-2.044,-2.0537,-2.1395,-2.2246,-2.3058,-2.3925,-2.4757,-2.5507,-2.5507,-2.5507,-2.5507,-2.5507,-2.5507,-2.5507,-2.5507,0.0,0.0,0.0,0.0,0.0,0.0,0.0,0.0,-2.5507,-2.5507,-2.5507,-2.5507,-2.5546,-2.5778,-2.6493,-2.7387,-2.83,-2.9093,-2.9804,-3.0662,-3.2065,-3.2523,-3.3061,-3.4459,-3.548,-3.6272,-3.6721,-3.6155,-3.5826,-3.6495,-3.6662,-3.7225,-3.8767,-3.9045,-3.9101,-3.9101,-3.9101,-3.9417,-4.0197,-4.0285,-4.0583,-4.1311,-4.1441,-4.1479,-4.1479,-4.0866,-4.0341,-3.9979,-3.9478,-3.8922,-3.831,-3.8848,-3.8956,-3.8658,-3.8658,-3.8624,-3.8579,-3.8249,-3.7896,-3.756,-3.756,-3.7376,-3.7106,-3.7068,-3.7048,-3.7048,-3.7048,-3.7029,-3.6989,-3.7029,-3.7029,-3.7007,0.0,0.0,0.0,0.0,0.0,0.0,0.0,0.0,0.0,0.0,0.0,0.0,0.0,0.0,0.0,0.0,0.0,0.0,0.0,0.0,-2.0604,-2.0604,-2.0605,-2.0605,-2.0605,-2.0526,-2.0498,-2.0498,-2.0424,-2.0753,-2.1433,-2.2265,-2.3097,-2.3964,-2.4834,-2.5314,-2.5507,-2.5507,-2.5507,-2.5507,-2.5507,-2.5507,-2.5507,-2.5507,-2.5507,0.0,0.0,0.0,0.0,0.0,0.0,0.0,-2.5507,-2.5507,-2.5507,-2.5507,-2.5952,-2.6474,-2.6644,-2.7851,-2.9074,-2.9248,-2.9804,-3.0361,-3.0595,-3.2769,-3.5112,-3.636,-3.7287,-3.7664,-3.6988,-3.6684,-3.6366,-3.592,-3.6316,-3.7052,-3.8024,-3.8692,-3.9101,-3.9101,-3.9101,-3.9175,-3.9361,-3.938,-3.9454,-3.9621,-4.0271,-4.0661,-4.0661,-4.1089,-4.1301,-4.1223,-4.0502,-4.0047,-3.9915,-3.9379,-3.9055,-3.8984,-3.8984,-3.8851,-3.8579,-3.8249,-3.8051,-3.7965,-3.7965,-3.7931,-3.7844,-3.7523,-3.7394,-3.7394,-3.7394,-3.7225,-3.7029,-3.73,-3.7225,-3.7007,0.0,0.0,0.0,0.0,0.0,0.0,0.0,0.0,0.0,0.0,0.0,0.0,0.0,0.0,0.0,0.0,0.0,0.0,0.0,0.0,0.0,-2.0603,-2.0604,-2.0605,-2.0605,-2.0529,-2.0501,-2.0498,-2.0853,-2.1259,-2.1727,-2.2517,-2.3364,-2.4234,-2.5105,-2.5507,-2.5507,-2.5507,-2.5507,-2.5507,-2.5507,-2.5507,-2.5507,-2.5507,-2.5507,-2.5507,-2.5507,0.0,0.0,0.0,0.0,0.0,0.0,0.0,-2.5507,-2.5507,-2.6068,-2.6783,-2.7213,-2.8296,-2.9403,-2.9824,-3.0118,-3.0319,-3.0327,-3.2666,-3.5119,-3.6133,-3.7861,-3.8893,-3.7814,-3.7168,-3.6646,-3.6192,-3.613,-3.642,-3.7206,-3.7689,-3.8079,-3.8469,-3.8525,-3.8674,-3.9064,-3.9101,-3.9101,-3.9101,-3.951,-3.977,-3.977,-4.0178,-4.0401,-4.0401,-3.9993,-3.977,-3.977,-3.9324,-3.9101,-3.9101,-3.9101,-3.8998,-3.8822,-3.8489,-3.8346,-3.8346,-3.8346,-3.8249,-3.8085,-3.7879,-3.7791,-3.7791,-3.7791,-3.7667,-3.7541,-3.7721,-3.7667,-3.7504,0.0,0.0,0.0,0.0,0.0,0.0,0.0,0.0,0.0,0.0,0.0,0.0,0.0,0.0,0.0,0.0,0.0,0.0,0.0,0.0,0.0,0.0,-2.0601,-2.0603,-2.0604,-2.0532,-2.0504,-2.05,-2.1302,-2.1765,-2.192,-2.2749,-2.3596,-2.4467,-2.5182,-2.5507,-2.5507,-2.5507,-2.5507,-2.5507,-2.5507,-2.5507,-2.5507,-2.5507,-2.5507,-2.5507,-2.5507,-2.5507,-2.5507,-2.5507,0.0,0.0,0.0,0.0,-2.5507,-2.5507,-2.6184,-2.7073,-2.7797,-2.8745,-2.9689,-3.0424,-3.0476,-3.0395,-3.0559,-3.2367,-3.4244,-3.5065,-3.7734,-3.9652,-3.8669,-3.7743,-3.7068,-3.6827,-3.6323,-3.6149,-3.6625,-3.6829,-3.7108,-3.7634,-3.7689,-3.7949,-3.8618,-3.8692,-3.8692,-3.8692,-3.8692,-3.8692,-3.8692,-3.8692,-3.8748,-3.8897,-3.8897,-3.8952,-3.9101,-3.9101,-3.9101,-3.9101,-3.9101,-3.9101,-3.9101,-3.8807,-3.8688,-3.8688,-3.8688,-3.8535,-3.8283,-3.8218,-3.8201,-3.8201,-3.8201,-3.8152,-3.8101,-3.815,-3.8152,-3.8051,0.0,0.0,0.0,0.0,0.0,0.0,0.0,0.0,0.0,0.0,-2.0594,-2.0594,0.0,0.0,0.0,0.0,0.0,0.0,0.0,0.0,0.0,0.0,-2.0601,-2.0602,-2.0602,-2.0534,-2.0506,-2.0504,-2.1305,-2.2056,-2.2768,-2.3616,-2.4486,-2.5333,-2.5449,-2.5507,-2.5507,-2.5507,-2.5507,-2.5507,-2.5507,-2.5507,-2.5507,-2.5507,-2.5507,-2.5507,-2.5507,-2.5507,-2.5507,-2.5507,-2.5507,0.0,0.0,0.0,-2.5507,-2.5507,-2.6594,-2.7855,-2.7972,-2.919,-3.0443,-3.0578,-3.0588,-3.0564,-3.0593,-3.1975,-3.3492,-3.4367,-3.7082,-3.9213,-3.8888,-3.868,-3.823,-3.7287,-3.7593,-3.764,-3.6812,-3.7299,-3.7522,-3.6928,-3.6866,-3.6891,-3.7015,-3.7021,-3.7021,-3.7021,-3.7021,-3.7021,-3.7021,-3.7021,-3.7336,-3.8042,-3.8061,-3.8395,-3.9082,-3.9101,-3.9101,-3.9101,-3.9101,-3.9101,-3.9101,-3.9041,-3.9027,-3.9027,-3.9027,-3.8998,-3.8942,-3.8658,-3.8533,-3.8533,-3.8533,-3.8362,-3.8135,-3.8426,-3.8346,-3.8085,0.0,0.0,0.0,0.0,0.0,0.0,0.0,0.0,0.0,0.0,0.0,-2.0594,0.0,0.0,0.0,0.0,0.0,0.0,0.0,0.0,0.0,0.0,-2.0598,-2.0598,-2.0601,-2.0537,-2.0724,-2.1167,-2.1984,-2.2807,-2.3654,-2.4525,-2.5124,-2.5507,-2.5507,-2.5507,-2.5507,-2.5507,-2.5507,-2.5507,-2.5507,-2.5507,-2.5507,-2.5507,-2.5507,-2.5507,-2.5507,-2.5507,-2.5507,-2.5507,-2.5507,-2.5507,-2.5507,0.0,0.0,0.0,-2.7387,-2.8823,-2.9326,-3.0017,-3.0598,-3.0598,-3.0598,-3.0598,-3.0598,-3.1521,-3.2623,-3.3499,-3.5575,-3.7609,-3.8802,-3.8904,-3.8575,-3.7912,-3.7713,-3.7418,-3.6794,-3.7002,-3.7262,-3.7355,-3.7355,-3.7541,-3.7986,-3.8042,-3.7856,-3.7411,-3.7355,-3.7169,-3.6705,-3.6699,-3.6866,-3.7219,-3.7225,-3.7392,-3.7745,-3.8191,-3.8655,-3.9101,-3.9101,-3.9101,-3.9101,-3.9101,-3.9101,-3.9101,-3.9101,-3.9101,-3.9087,-3.8942,-3.8865,-3.8865,-3.8865,-3.8792,-3.8673,-3.8822,-3.8778,-3.8628,0.0,0.0,0.0,0.0,0.0,0.0,0.0,0.0,0.0,0.0,0.0,0.0,0.0,0.0,0.0,0.0,0.0,0.0,0.0,0.0,0.0,0.0,0.0,-2.0595,-2.0598,-2.0734,-2.1097,-2.1695,-2.2738,-2.3557,-2.4215,-2.5085,-2.5507,-2.5507,-2.5507,-2.5507,-2.5507,-2.5507,-2.5507,-2.5507,-2.5507,-2.5507,-2.5507,-2.5507,-2.5623,-2.5797,0.0,-2.5952,-2.6149,-2.6149,-2.6149,-2.6149,-2.6149,-2.6555,0.0,0.0,0.0,-2.9495,-3.0366,-3.0598,-3.0598,-3.0598,-3.0598,-3.0598,-3.0598,-3.1062,-3.1734,-3.2585,-3.3977,-3.5684,-3.7844,-3.8634,-3.8953,-3.8852,-3.8336,-3.7767,-3.7285,-3.7156,-3.7243,-3.7621,-3.7631,-3.7819,-3.8432,-3.8488,-3.8228,-3.7634,-3.7596,-3.7318,-3.6736,-3.6513,-3.6495,-3.6686,-3.6513,-3.6495,-3.6699,-3.7299,-3.7894,-3.8488,-3.8692,-3.8804,-3.8804,-3.9008,-3.9101,-3.9101,-3.9101,-3.9101,-3.9101,-3.9101,-3.9101,-3.9101,-3.9101,-3.9101,-3.9101,-3.9101,-3.9101,-3.9055,0.0,0.0,0.0,0.0,0.0,0.0,0.0,0.0,0.0,0.0,0.0,0.0,0.0,0.0,-2.0594,-2.0594,0.0,0.0,0.0,0.0,0.0,0.0,0.0,0.0,0.0,-2.128,-2.166,-2.1699,-2.332,-2.4157,-2.4215,-2.5085,-2.5507,-2.5507,-2.5507,-2.5507,-2.5507,-2.5507,-2.5507,-2.5507,-2.5507,-2.5507,-2.5507,-2.5507,-2.5971,-2.6644,-2.6644,-2.7174,-2.7875,-2.7875,-2.7875,-2.7875,-2.7875,-2.7894,-2.7933,0.0,0.0,0.0,-3.0366,-3.0598,-3.0598,-3.0598,-3.0598,-3.0598,-3.0598,-3.0636,-3.0888,-3.1695,-3.2604,-3.3784,-3.5557,-3.7839,-3.965,-4.0194,-4.0257,-3.9846,-3.8754,-3.838,-3.7927,-3.7129,-3.6883,-3.6779,-3.6829,-3.6829,-3.6798,-3.6773,-3.6773,-3.6736,-3.6699,-3.5974,-3.5919,-3.6681,-3.5956,-3.5937,-3.6686,-3.6736,-3.6779,-3.6829,-3.7596,-3.7949,-3.7986,-3.8748,-3.9101,-3.9101,-3.9101,-3.9101,-3.9101,-3.9101,-3.9101,-3.9101,-3.9101,-3.9101,-3.9101,-3.9101,-3.9101,-3.9101,0.0,0.0,0.0,0.0,0.0,0.0,0.0,0.0,0.0,0.0,0.0,0.0,0.0,-2.0547,-2.0545,-2.0545,-2.0579,0.0,0.0,0.0,0.0,0.0,0.0,0.0,0.0,-2.216,-2.2813,-2.3371,-2.3921,-2.4486,-2.5047,-2.5352,-2.5507,-2.5507,-2.5507,-2.5507,-2.5526,-2.6048,-2.6281,-2.6319,-2.6884,-2.7101,-2.7101,-2.7101,-2.7271,-2.7522,-2.7522,-2.7739,-2.7991,-2.7991,-2.7991,-2.7991,-2.7991,-2.8378,-2.8939,-2.9495,-2.9882,-3.0192,-3.052,-3.0598,-3.0598,-3.0598,-3.0598,-3.0598,-3.0598,-3.0598,-3.0675,-3.0965,-3.1695,-3.2623,-3.3803,-3.611,-3.8028,-3.8624,-3.8727,-3.8523,-3.7947,-3.8235,-3.8334,-3.7889,-3.8221,-3.8439,-3.8255,-3.8228,-3.8024,-3.7503,-3.7466,-3.7225,-3.6736,-3.6439,-3.6402,-3.6686,-3.642,-3.642,-3.6699,-3.6197,-3.6197,-3.6699,-3.6983,-3.7145,-3.7164,-3.7949,-3.8321,-3.8358,-3.8878,-3.9101,-3.9101,-3.9101,-3.9101,-3.9101,-3.9101,-3.9101,-3.9101,-3.9101,-3.9101,-3.9101,0.0,0.0,0.0,0.0,0.0,0.0,0.0,0.0,0.0,0.0,0.0,0.0,0.0,0.0,-2.0623,-2.0916,-2.0976,-2.111,-2.1387,-2.142,0.0,0.0,0.0,0.0,0.0,-2.2762,-2.3413,-2.4261,-2.4219,-2.466,-2.5507,-2.5507,-2.5507,-2.5507,-2.5778,-2.5894,-2.5932,-2.6474,-2.688,-2.7189,-2.7778,-2.7991,-2.7991,-2.7991,-2.8184,-2.844,-2.8454,-2.864,-2.8873,-2.8903,-2.8914,-2.8911,-2.8881,-2.9274,-2.9843,-3.0424,-3.0598,-3.0598,-3.0598,-3.0598,-3.0598,-3.0598,-3.0598,-3.0598,-3.0598,-3.0598,-3.0598,-3.0598,-3.1023,-3.1657,-3.2507,-3.4054,-3.5703,-3.7242,-3.7497,-3.7536,-3.7657,-3.8049,-3.827,-3.8126,-3.8516,-3.8693,-3.8425,-3.8398,-3.8266,-3.7926,-3.7894,-3.7782,-3.7522,-3.7257,-3.6978,-3.6718,-3.6699,-3.6569,-3.6309,-3.577,-3.5621,-3.585,-3.616,-3.6309,-3.6328,-3.7145,-3.7503,-3.7541,-3.8339,-3.8841,-3.9101,-3.9101,-3.9101,-3.9101,-3.9101,-3.9101,-3.9101,-3.9101,-3.9101,-3.9101,0.0,0.0,0.0,0.0,0.0,0.0,0.0,0.0,0.0,0.0,0.0,0.0,0.0,0.0,0.0,-2.1759,-2.1833,-2.2165,-2.294,-2.3066,0.0,0.0,0.0,0.0,0.0,-2.3107,-2.3458,-2.4247,-2.4235,-2.4679,-2.5507,-2.5507,-2.5507,-2.5565,-2.6358,-2.6721,-2.6779,-2.6779,-2.7271,-2.8049,-2.8068,-2.8073,-2.8073,-2.8073,-2.8595,-2.9347,-2.9414,-2.9943,-3.061,-3.0672,-3.0709,-3.0699,-3.0614,-3.0595,-3.0598,-3.0598,-3.0598,-3.0598,0.0,0.0,0.0,-3.0598,-3.0598,-3.0598,-3.0598,-3.0598,-3.0598,-3.0598,-3.0598,-3.0849,-3.1618,-3.1753,-3.2856,-3.6207,-3.6767,-3.7085,-3.7925,-3.7851,-3.767,-3.76,-3.7443,-3.7234,-3.6948,-3.6925,-3.7168,-3.7753,-3.7801,-3.8172,-3.8952,-3.8302,-3.7541,-3.6773,-3.6736,-3.6365,-3.5584,-3.5529,-3.5083,-3.4253,-3.5083,-3.5454,-3.5491,-3.6309,-3.6681,-3.6718,-3.7517,-3.8316,-3.904,-3.9082,-3.9101,-3.9101,-3.9101,-3.9101,-3.9101,-3.9101,-3.9101,-3.9101,0.0,0.0,0.0,0.0,0.0,0.0,0.0,0.0,0.0,0.0,0.0,0.0,0.0,0.0,-2.2414,-2.2647,-2.2675,-2.2774,-2.3042,-2.3095,-2.3102,-2.3105,-2.3708,-2.404,-2.4041,-2.4596,-2.4996,-2.5207,-2.5159,-2.5252,-2.5507,-2.5507,-2.5816,-2.6377,-2.6605,-2.7402,-2.8586,-2.8586,-2.8722,-2.8997,-2.9631,-2.9887,-2.9885,-2.9885,-3.0063,-3.0328,-3.0324,-3.0472,-3.0674,-3.0698,-3.0675,-3.0626,-3.0614,-3.0601,-3.0598,-3.0598,-3.0598,0.0,-3.0598,0.0,0.0,0.0,0.0,0.0,-3.0598,-3.0598,-3.0598,-3.0598,-3.0598,-3.0675,-3.0888,-3.0926,-3.1429,-3.2952,-3.3745,-3.4243,-3.4489,-3.4953,-3.5187,-3.4979,-3.545,-3.5656,-3.524,-3.5195,-3.5198,-3.5225,-3.5807,-3.6272,-3.6495,-3.7392,-3.7801,-3.7578,-3.7559,-3.7448,-3.7225,-3.6086,-3.538,-3.5138,-3.4748,-3.455,-3.4587,-3.5454,-3.587,-3.5944,-3.6745,-3.7254,-3.7578,-3.8659,-3.9101,-3.9101,-3.9101,-3.9101,-3.9101,-3.9101,-3.9101,-3.9101,0.0,0.0,0.0,0.0,0.0,0.0,0.0,0.0,0.0,0.0,0.0,0.0,0.0,0.0,-2.3151,-2.3519,-2.354,-2.3701,-2.4115,-2.4146,-2.4141,-2.4143,-2.4632,-2.4905,-2.4902,-2.5001,-2.5226,-2.556,-2.5145,-2.5132,-2.5507,-2.5836,-2.6242,-2.6721,-2.746,-2.8354,-2.9326,-2.9689,-2.9843,-2.9887,-3.0391,-3.0591,-3.0597,-3.063,-3.0667,-3.07,-3.0721,-3.0719,-3.0714,-3.0761,-3.0718,-3.0647,-3.0632,-3.0625,-3.0598,-3.0598,-3.0598,0.0,0.0,0.0,-3.0598,-3.0598,0.0,0.0,-3.0598,-3.0598,-3.0598,-3.0598,-3.0598,-3.0598,-3.0598,-3.0598,-3.0752,-3.1217,-3.1734,-3.2295,-3.301,-3.3497,-3.3732,-3.3577,-3.3991,-3.414,-3.3772,-3.3724,-3.3747,-3.3821,-3.4302,-3.4684,-3.4934,-3.6185,-3.6891,-3.6891,-3.7541,-3.7745,-3.7392,-3.6476,-3.5826,-3.5491,-3.4606,-3.4197,-3.4216,-3.4754,-3.5032,-3.5106,-3.5969,-3.6366,-3.6484,-3.7696,-3.8351,-3.8677,-3.9012,-3.9129,-3.9101,-3.9101,-3.9101,-3.9101,0.0,0.0,0.0,0.0,0.0,0.0,0.0,0.0,0.0,0.0,0.0,0.0,0.0,0.0,0.0,0.0,-2.4431,-2.4771,-2.5547,-2.5603,-2.5608,-2.5609,-2.5605,-2.5608,-2.5609,-2.4834,-2.4791,-2.5506,-2.481,-2.4896,-2.567,-2.6474,-2.6899,-2.7054,0.0,0.0,-2.9495,-3.0269,-3.0602,-3.0601,-3.0607,-3.06,-3.0617,-3.0699,-3.0722,-3.0734,-3.0787,-3.0761,-3.0725,-3.0859,-3.0815,-3.0708,-3.0694,-3.0656,-3.061,-3.0597,-3.0597,0.0,0.0,0.0,0.0,-3.0598,-3.0598,0.0,-3.0598,-3.0598,-3.0598,-3.0598,-3.0598,-3.0598,-3.0598,-3.0598,-3.0598,-3.0598,-3.0598,-3.112,-3.2604,-3.2817,-3.2826,-3.2814,-3.2753,-3.2633,-3.2434,-3.237,-3.249,-3.2886,-3.2985,-3.329,-3.3893,-3.4748,-3.5268,-3.5343,-3.6835,-3.7373,-3.6835,-3.6649,-3.6253,-3.5621,-3.4674,-3.4209,-3.4209,-3.4281,-3.4316,-3.4372,-3.5196,-3.5567,-3.5642,-3.6452,-3.7219,-3.7962,-3.8763,-3.9039,-3.8985,-3.9064,-3.9101,-3.9101,0.0,0.0,0.0,0.0,0.0,0.0,0.0,0.0,0.0,0.0,0.0,0.0,0.0,0.0,0.0,0.0,-2.5359,-2.5423,-2.5595,-2.5601,-2.561,-2.5598,-2.5593,-2.561,-2.5598,-2.542,-2.542,-2.5586,-2.6054,-2.6385,-2.6564,-2.738,-2.8122,-2.8818,-2.9147,-2.9689,-3.0366,-3.052,-3.0604,-3.0591,-3.0609,-3.063,-3.0682,-3.075,-3.0814,-3.0859,-3.0877,-3.0836,-3.0779,-3.08,-3.0795,-3.078,-3.0724,-3.0694,-3.0667,-3.0609,-3.0591,-3.0595,-3.0601,-3.0598,-3.0598,-3.0598,-3.0598,0.0,-3.0598,-3.0598,-3.0598,-3.0598,-3.0598,-3.0598,-3.0598,-3.0598,-3.0598,-3.0598,-3.0598,-3.0714,-3.1043,-3.1101,-3.1072,-3.0998,-3.0997,-3.0906,-3.0719,-3.0626,-3.0582,-3.0564,-3.1017,-3.1561,-3.2232,-3.3039,-3.377,-3.442,-3.5454,-3.6513,-3.7652,-3.6383,-3.5974,-3.6458,-3.4983,-3.4281,-3.4281,-3.434,-3.4416,-3.4461,-3.4641,-3.475,-3.4888,-3.5751,-3.6506,-3.72,-3.7938,-3.8229,-3.829,-3.8887,-3.9101,-3.9101,0.0,0.0,0.0,0.0,0.0,0.0,0.0,0.0,0.0,0.0,0.0,0.0,0.0,0.0,0.0,0.0,0.0,0.0,0.0,0.0,-2.6856,-2.6845,-2.6859,-2.6856,-2.6845,-2.685,-2.6848,-2.6857,-2.7248,-2.7443,-2.7478,-2.8263,-2.8904,-2.9365,-2.9773,-3.0184,-3.0599,-3.0601,-3.0606,-3.0599,-3.0639,-3.0684,-3.075,-3.0815,-3.0879,-3.0894,-3.0909,-3.0864,-3.0806,-3.08,-3.0795,-3.0792,-3.0755,-3.0732,-3.0699,-3.0617,-3.0593,-3.0598,-3.0606,-3.0598,-3.0598,-3.0598,-3.0598,0.0,0.0,-3.0598,-3.0598,-3.0598,-3.0598,-3.0598,-3.0598,-3.0598,-3.0598,-3.0598,-3.0598,-3.0598,-3.0598,-3.0598,-3.0593,-3.0559,-3.0515,-3.0469,-3.0365,-3.0279,-3.0177,-3.0007,-3.0127,-3.0338,-3.0688,-3.1402,-3.1998,-3.2388,-3.3615,-3.4841,-3.6036,-3.5293,-3.5324,-3.6137,-3.4931,-3.434,-3.4351,-3.4427,-3.4473,-3.4506,-3.4528,-3.4561,-3.462,-3.5071,-3.5451,-3.5869,-3.7032,-3.748,-3.7535,-3.8316,-3.8601,-3.8657,-2.3067,-2.3001,0.0,0.0,0.0,0.0,0.0,0.0,0.0,0.0,0.0,0.0,-2.6984,-2.709,-2.7408,-2.8068,0.0,0.0,-2.8123,-2.8123,-2.8116,-2.8104,-2.8116,-2.8116,-2.8104,-2.8107,-2.812,-2.8103,-2.8263,-2.8342,-2.8361,-2.9171,-2.9575,-2.9651,-3.0319,-3.0595,-3.0593,-3.0606,-3.0604,-3.0614,-3.0675,-3.0712,-3.0778,-3.0859,-3.0878,-3.0877,-3.087,-3.0844,-3.0806,-3.0801,-3.0818,-3.0797,-3.0814,-3.0777,-3.0715,-3.0639,-3.0617,-3.062,-3.0591,-3.0598,-3.0598,-3.0598,-3.0598,-3.0598,0.0,0.0,0.0,-3.0598,-3.0598,-3.0598,-3.0598,-3.0598,-3.0559,-3.0385,-3.0482,-3.054,-3.0366,-3.0482,-3.0598,-3.0598,-3.0535,-3.0505,-3.0504,-3.0447,-3.0316,-3.008,-2.9817,-2.9635,-2.9551,-3.0066,-3.0437,-3.0604,-3.1868,-3.3076,-3.4203,-3.412,-3.4584,-3.5602,-3.4804,-3.4427,-3.4427,-3.4495,-3.4517,-3.4517,-3.4591,-3.4612,-3.4612,-3.4612,-3.4612,-3.4733,-3.6192,-3.6725,-3.677,-3.7567,-3.7866,-3.7965,-2.3292,-2.3001,0.0,0.0,0.0,0.0,0.0,0.0,0.0,0.0,0.0,-2.7848,-2.7945,-2.7964,-2.8012,-2.8184,-2.8188,-2.8188,-2.8188,-2.8188,-2.8167,-2.8104,-2.8162,-2.8165,-2.8104,-2.8162,-2.8162,-2.81,-2.8876,-2.9256,-2.9272,-3.0074,-3.0458,-3.0463,-3.0563,-3.0591,-3.0597,-3.0598,-3.0636,-3.0687,-3.0698,-3.0675,-3.0639,-3.0764,-3.0818,-3.0819,-3.0812,-3.0801,-3.0803,-3.0874,-3.0859,-3.0817,-3.0878,-3.0836,-3.0781,-3.0717,-3.0687,-3.0689,-3.0613,-3.0598,-3.0598,-3.0598,-3.0598,-3.0598,-3.0598,0.0,-3.0598,-3.0598,0.0,-3.0598,-3.0598,0.0,0.0,-2.9573,-3.0095,-3.0327,-2.9553,-3.0114,-3.0598,-3.0598,-3.0535,-3.0505,-3.0504,-3.045,-3.0273,-2.995,-2.9894,-2.9744,-2.944,-2.9492,-2.9861,-3.0586,-3.0772,-3.1965,-3.4262,-3.3585,-3.4067,-3.5681,-3.4873,-3.4495,-3.4495,-3.455,-3.4602,-3.4602,-3.4602,-3.4612,-3.4612,-3.4612,-3.4612,-3.4677,-3.5529,-3.5832,-3.5932,-3.6733,-3.7026,-3.7138,-2.4649,-2.4513,-2.463,0.0,0.0,0.0,0.0,0.0,0.0,0.0,0.0,-2.8298,-2.8803,-2.8842,-2.9068,-2.9605,-2.9647,-2.9647,-2.9647,-2.9647,0.0,-2.9602,-2.9632,-2.9635,-2.9602,-2.9632,-2.9632,-2.9602,-2.9984,-3.0148,-3.0153,-3.0506,-3.0665,-3.0656,-3.0665,-3.0664,-3.0664,-3.0661,-3.0667,-3.0691,-3.0691,-3.0673,-3.0664,-3.0816,-3.0838,-3.0797,-3.0806,-3.08,-3.0801,-3.0826,-3.0855,-3.0859,-3.0896,-3.0879,-3.0835,-3.0737,-3.0696,-3.0691,-3.0613,-3.06,-3.061,-3.0592,-3.06,-3.061,-3.0592,-3.0598,-3.0598,-3.0598,0.0,0.0,0.0,0.0,0.0,0.0,-3.0366,-3.0462,-3.0114,-3.0366,-3.0598,-3.0598,-3.0588,-3.053,-3.0505,-3.0402,-3.0318,-3.0254,-3.0078,-2.9875,-2.9707,-2.9617,-2.9691,-2.9903,-2.9934,-3.0692,-3.2195,-3.2425,-3.3119,-3.43,-3.448,-3.455,-3.455,-3.4602,-3.4612,-3.4612,-3.4612,-3.4612,-3.4612,-3.4612,-3.4612,-3.462,-3.4936,-3.5057,-3.5158,-3.6016,-3.6323,-3.6424,-2.6239,-2.5912,-2.5679,-2.5912,-2.5951,-2.6242,0.0,-2.7929,-2.8453,-2.8453,-2.8667,-2.9055,-2.97,-2.9758,-3.0017,-3.0639,-3.0701,-3.0701,-3.0701,-3.0701,-3.0701,-3.0701,-3.0701,-3.0701,-3.0701,-3.0701,-3.0691,-3.0694,-3.0694,-3.0706,-3.0707,-3.0704,-3.0694,-3.0709,-3.0709,-3.0699,-3.0698,-3.0709,-3.0701,-3.0733,-3.0733,-3.0724,-3.0744,-3.084,-3.0831,-3.08,-3.08,-3.08,-3.0801,-3.0822,-3.0852,-3.0877,-3.0892,-3.0897,-3.0858,-3.0756,-3.0723,-3.0702,-3.0648,-3.0628,-3.0614,-3.0606,-3.0611,-3.0595,-3.0601,-3.0598,-3.0598,-3.0598,-3.0598,0.0,0.0,0.0,-3.052,0.0,0.0,-3.052,-3.0288,-3.0443,-3.0598,-3.0598,-3.0569,-3.055,-3.0455,-3.0367,-3.0318,-3.0365,-3.0142,-2.9943,-2.9856,-2.9756,-2.9616,-2.9433,-2.9472,-2.9894,-3.0727,-3.1403,-3.2277,-3.3326,-3.3961,-3.4395,-3.4612,-3.4612,-3.4612,-3.4612,-3.4612,-3.4612,-3.4612,-3.4612,-3.4612,-3.4612,-3.4612,-3.4612,-3.4677,-3.5315,-3.554,-3.5642,-2.7871,-2.6705,-2.5873,-2.6711,-2.6867,-2.7136,-2.7948,-2.8803,-2.9369,-2.9369,-3.0088,-3.0635,-3.0655,-3.0655,-3.0662,-3.0697,-3.0699,-3.0699,-3.0699,-3.0699,-3.0699,-3.0699,-3.0699,-3.0699,-3.0699,-3.0699,-3.0695,-3.0694,-3.0694,-3.0694,0.0,0.0,0.0,0.0,-3.0706,-3.0708,-3.0694,-3.0698,-3.0746,-3.0798,-3.0798,-3.08,-3.0808,-3.0801,-3.0799,-3.08,-3.08,-3.08,-3.0801,-3.0866,-3.0857,-3.08,-3.0877,-3.0859,-3.0799,-3.0797,-3.0797,-3.0775,-3.0716,-3.07,-3.0687,-3.0614,-3.0593,-3.0595,-3.0601,-3.0598,-3.0598,-3.0598,-3.0598,-3.0598,-3.0598,-3.0598,0.0,0.0,0.0,0.0,0.0,-3.0075,-3.0598,-3.0598,-3.0535,-3.0455,-3.0322,-3.0299,-3.0221,-3.0022,-3.0007,-2.9904,-2.9722,-2.9705,-2.9635,-2.9502,-2.9492,-2.9914,-3.0787,-3.0834,-3.1698,-3.339,-3.3427,-3.3851,-3.4612,-3.4612,-3.4612,-3.4612,-3.4612,-3.4612,-3.4612,-3.4612,-3.4612,-3.4612,-3.4612,-3.4612,-3.4602,-3.462,-3.4639,-3.4771,-2.8045,-2.7637,-2.7346,-2.7637,-2.7696,-2.7987,-2.8822,-2.97,-3.0263,-3.0263,-3.0519,-3.0694,-3.0694,-3.0694,-3.0701,-3.0704,-3.0707,-3.0707,-3.0707,-3.0707,-3.0706,-3.0701,-3.0709,-3.0706,-3.0701,-3.0709,-3.0695,-3.0694,-3.0694,-3.0694,0.0,0.0,0.0,0.0,-3.0695,-3.0715,-3.0764,-3.0774,-3.0772,-3.0801,-3.0801,-3.1152,-3.16,-3.1011,-3.0809,-3.08,-3.08,-3.08,-3.0801,-3.0823,-3.085,-3.0856,-3.0849,-3.0853,-3.0859,-3.0819,-3.0798,-3.0795,-3.0726,-3.0732,-3.0757,-3.0689,-3.0672,-3.0656,-3.0614,-3.0604,-3.0598,-3.0598,-3.0598,-3.0598,-3.0598,0.0,0.0,0.0,0.0,0.0,0.0,-3.0404,-3.0598,-3.0598,-3.0451,-3.0395,-3.049,-3.0298,-3.0222,-3.0394,-3.0272,-3.0171,-3.0089,-3.0011,-2.988,-2.9697,-2.9654,-2.9776,-3.0077,-3.0592,-3.1165,-3.1757,-3.2864,-3.355,-3.3813,-3.4358,-3.4612,-3.4612,-3.4612,-3.4612,-3.4612,-3.4612,-3.4612,-3.4612,-3.4612,-3.4612,-3.4612,-3.4612,-3.4612,-3.4639,-2.8958,-2.9016,-2.8939,-2.8628,-2.8822,-2.9214,-2.9777,-3.0344,-3.0694,-3.0694,-3.0694,-3.0694,-3.0694,-3.0694,-3.0694,-3.0694,-3.0694,-3.0694,-3.0694,-3.0694,-3.0704,-3.0701,-3.0709,-3.0717,-3.0747,-3.072,-3.0707,-3.0707,-3.0704,-3.0694,0.0,0.0,0.0,0.0,-3.0697,-3.0735,-3.08,-3.08,-3.0796,-3.0798,-3.0798,-3.113,-3.158,-3.1002,-3.0983,-3.1222,-3.0901,-3.08,-3.08,-3.08,-3.0823,-3.0864,-3.0803,-3.0826,-3.0853,-3.0819,-3.08,-3.0801,-3.0775,-3.0798,-3.0819,-3.0759,-3.0749,-3.0718,-3.0656,-3.0642,-3.0645,-3.0645,-3.0642,-3.0642,-3.0637,-3.0622,0.0,0.0,0.0,0.0,0.0,-3.0598,-3.0598,-3.0598,-3.0481,-3.0414,-3.0422,-3.026,-3.0222,-3.0334,-3.0314,-3.0271,-3.0235,-3.0196,-3.0068,-2.9853,-2.9798,-2.9756,-2.9711,-3.0208,-3.0612,-3.0912,-3.2282,-3.31,-3.3427,-3.4226,-3.4612,-3.4612,-3.4612,-3.4612,-3.4612,-3.4612,-3.4612,-3.4612,-3.4612,-3.4612,-3.4612,-3.4612,-3.4612,-3.4612,-3.0538,-3.0694,-3.0441,-2.9602,-3.0146,-3.0694,-3.0694,-3.0694,-3.0694,-3.0694,-3.0733,-3.0752,-3.0752,-3.081,-3.083,-3.083,-3.083,-3.081,-3.0771,-3.0752,-3.0743,-3.0701,-3.0699,-3.0722,-3.0798,-3.0724,-3.0699,-3.0699,-3.0704,-3.0694,0.0,0.0,0.0,0.0,-3.0694,-3.0745,-3.08,-3.08,-3.0819,-3.0859,-3.0859,-3.0919,-3.0998,-3.0958,-3.1478,-3.2109,-3.1142,-3.08,-3.08,-3.08,-3.08,-3.08,-3.08,-3.08,-3.08,-3.08,-3.08,-3.0803,-3.0886,-3.0907,-3.0873,-3.0819,-3.0797,-3.0772,-3.0719,-3.0706,-3.0704,-3.0704,-3.0698,-3.0698,-3.0696,-3.0642,0.0,0.0,0.0,0.0,0.0,-3.0598,-3.0598,-3.0598,-3.0598,-3.0479,-3.0157,-3.0222,-3.0184,-2.9945,-3.0151,-3.024,-3.0115,-3.0228,-3.0177,-2.9921,-2.9897,-2.9832,-2.9701,-2.9701,-3.0086,-3.0847,-3.1674,-3.2529,-3.3394,-3.4202,-3.4588,-3.4626,-3.4626,-3.4626,-3.4626,-3.4634,-3.4604,-3.4604,-3.4594,-3.4612,-3.4612,-3.4612,-3.4612,-3.4612,-3.0655,-3.0694,-3.0635,-3.0402,-3.0558,-3.0694,-3.0694,-3.0694,-3.0694,-3.0694,-3.1254,-3.1677,-3.1677,-3.2244,-3.2633,-3.2633,-3.2633,-3.2361,-3.1716,-3.1677,-3.1378,-3.0738,-3.0703,-3.0712,-3.0726,-3.0714,-3.0698,-3.0698,-3.0701,-3.0694,-3.0694,0.0,0.0,0.0,-3.0694,-3.0745,-3.08,-3.08,-3.1171,-3.1777,-3.1777,-3.2549,-3.3631,-3.2975,-3.3274,-3.375,-3.1571,-3.08,-3.08,-3.08,-3.08,-3.08,-3.08,-3.08,-3.08,-3.08,-3.08,-3.0801,-3.0822,-3.0823,-3.0825,-3.0874,-3.084,-3.0798,-3.0771,-3.0735,-3.0696,-3.0696,-3.0695,-3.0693,-3.0708,-3.0642,-3.0607,0.0,0.0,0.0,-3.0598,-3.0598,-3.0598,-3.0598,-3.0598,-3.0579,-3.0485,-3.0285,-3.0164,-3.0196,-3.0265,-3.024,-3.0115,-3.0228,-3.0222,-3.0052,-2.9942,-2.9872,-2.9849,-2.9849,-2.9944,-3.0162,-3.113,-3.2012,-3.282,-3.3686,-3.4409,-3.4969,-3.4969,-3.4969,-3.4961,-3.4851,-3.4812,-3.4811,-3.4658,-3.4612,-3.4612,-3.4612,-3.4612,-3.4612,-3.0694,-3.0694,-3.083,-3.1195,-3.1273,-3.1137,-3.0752,-3.102,-3.1273,-3.1273,-3.2031,-3.2571,-3.2571,-3.3002,-3.3293,-3.3293,-3.3293,-3.3099,-3.259,-3.2571,-3.2356,-3.1851,-3.1478,-3.1279,-3.1271,-3.089,-3.0892,-3.1261,-3.1271,-3.1273,-3.1273,0.0,0.0,0.0,-3.1273,-3.1507,-3.1892,-3.192,-3.2226,-3.267,-3.266,-3.3269,0.0,-3.3598,-3.3698,-3.394,-3.2465,-3.1932,-3.1932,-3.1932,-3.1932,-3.1874,-3.1485,-3.1368,-3.1289,-3.0917,-3.08,-3.08,-3.08,-3.08,-3.0801,-3.0844,-3.0834,-3.0819,-3.084,-3.0819,-3.0796,-3.0796,-3.0795,-3.0774,-3.0756,-3.0711,-3.0677,-3.0607,-3.0602,-3.0598,-3.0598,-3.0598,-3.0598,-3.0598,-3.0598,-3.0598,-3.0598,-3.0344,-3.0196,-3.0209,-3.0216,-3.0203,-3.019,-3.0259,-3.0271,-3.019,-3.0103,-3.0044,-2.9988,-2.9988,-2.9988,-2.9988,-3.0948,-3.1813,-3.2638,-3.3494,-3.4334,-3.5106,-3.5106,-3.5106,-3.5098,-3.5015,-3.4999,-3.4972,-3.4792,-3.4678,-3.4612,-3.4612,-3.4612,-3.4612,-3.0849,-3.0869,-3.1156,-3.2027,-3.2163,-3.191,-3.116,-3.1681,-3.2163,-3.2163,-3.2924,-3.3468,-3.3468,-3.3565,-3.3623,-3.3623,-3.3623,-3.3584,-3.3468,-3.3468,-3.341,-3.3293,-3.2574,-3.2172,-3.2172,-3.1432,-3.1412,-3.2172,-3.2175,-3.2163,0.0,0.0,0.0,0.0,-3.2163,-3.2597,-3.331,-3.3372,-3.3476,-3.3574,-3.3563,-3.363,-3.3748,-3.3748,-3.3748,-3.3748,-3.3748,-3.3591,-3.3396,-3.3396,-3.3396,-3.3279,-3.2519,-3.2265,-3.2109,-3.1231,-3.0976,-3.0956,-3.0839,-3.08,-3.08,-3.08,-3.08,-3.0822,-3.0866,-3.0887,-3.0887,-3.0887,-3.089,-3.0871,-3.0823,-3.0801,-3.0755,-3.0636,-3.0614,-3.0604,-3.0604,-3.0604,-3.0615,-3.0601,-3.0601,0.0,-3.0598,-3.0425,-3.0253,-3.0131,-3.0103,-3.0144,-3.0271,-3.0294,-3.03,-3.03,-3.03,-3.0247,-3.0117,-3.0136,-3.0136,-3.0136,-3.0927,-3.1776,-3.2697,-3.3448,-3.4301,-3.5178,-3.5178,-3.5178,-3.517,-3.5154,-3.513,-3.5089,-3.4972,-3.4821,-3.4649,-3.4647,-3.4636,-3.4645,-3.1619,-3.1774,-3.2046,-3.2924,-3.3079,-3.3021,-3.2866,-3.2963,-3.3079,-3.3079,-3.3779,-3.4288,-3.4288,-3.4925,-3.5367,-3.5367,-3.5367,-3.5061,-3.4346,-3.4288,-3.3992,-3.3332,-3.3149,-3.3078,-3.3078,-3.2923,-3.2923,-3.3078,-3.3068,-3.3079,0.0,0.0,0.0,0.0,-3.3079,-3.315,-3.3293,-3.3375,-3.3807,-3.4478,-3.4474,-3.4901,-3.5543,-3.5543,-3.5543,-3.5543,-3.5543,-3.4626,-3.3396,-3.3396,-3.3396,-3.3377,-3.3221,-3.3162,-3.3006,-3.2129,-3.1875,-3.1719,-3.0995,-3.08,-3.08,-3.08,-3.08,-3.0801,-3.0803,-3.0822,-3.0822,-3.0822,-3.0823,-3.0824,-3.0866,-3.084,-3.0768,-3.07,-3.068,-3.068,-3.067,-3.0682,-3.0656,-3.062,-3.0593,-3.0599,-3.0607,-3.0425,-3.0294,-3.0271,-3.0157,-3.0103,-3.0131,-3.024,-3.03,-3.03,-3.03,-3.0288,-3.0265,-3.0265,-3.0265,-3.0271,-3.0593,-3.1543,-3.3029,-3.3178,-3.411,-3.5583,-3.5583,-3.5583,-3.5577,-3.5424,-3.5258,-3.5106,-3.5073,-3.5039,-3.4996,-3.4898,-3.486,-3.4812,-3.2594,-3.2668,-3.2943,-3.3779,-3.3915,-3.407,-3.4536,-3.4591,-3.4439,-3.3973,-3.4653,-3.5177,-3.5177,-3.5542,-3.5795,-3.5795,-3.5795,-3.562,-3.5197,-3.5177,-3.5002,-3.461,-3.4167,-3.3915,-3.3915,-3.3507,-3.3507,-3.3915,-3.3915,-3.3915,-3.3915,-3.3915,-3.3915,-3.3938,-3.4425,-3.465,-3.4642,-3.4683,-3.4941,-3.5327,-3.5355,-3.5621,-3.5992,-3.5992,-3.5992,-3.5992,-3.5992,-3.5465,-3.4743,-3.4743,-3.4743,-3.4665,-3.4217,-3.4061,-3.3905,-3.3027,-3.2441,-3.2013,-3.1582,-3.1133,-3.08,-3.08,-3.08,-3.08,-3.08,-3.08,-3.08,-3.08,-3.08,-3.0822,-3.0887,-3.0859,-3.0795,-3.0762,-3.0725,-3.0695,-3.07,-3.0696,-3.0685,-3.066,-3.0658,-3.065,-3.0595,-3.0511,-3.0462,-3.0451,-3.0235,-3.0177,-3.0352,-3.0319,-3.0348,-3.0446,-3.0465,-3.0465,-3.0465,-3.0465,-3.0465,-3.0465,-3.0554,-3.1487,-3.3107,-3.3107,-3.4054,-3.5704,-3.5704,-3.5704,-3.5684,-3.5608,-3.5438,-3.5265,-3.5265,-3.5185,-3.5098,-3.5032,-3.4997,-3.4981,-3.3526,-3.3565,-3.3818,-3.4633,-3.4769,-3.5002,-3.5698,-3.5795,-3.5542,-3.4866,-3.5371,-3.5795,-3.5795,-3.5795,-3.5795,-3.5795,-3.5795,-3.5795,-3.5795,-3.5795,-3.5795,-3.5795,-3.5138,-3.4769,-3.4769,-3.4167,-3.4148,-3.4769,-3.4769,-3.4672,-3.4501,-3.4692,-3.4781,-3.4819,-3.5577,-3.5902,-3.5908,-3.5894,-3.5918,-3.5936,-3.5982,-3.5992,-3.5992,-3.5992,-3.5992,-3.5992,-3.5992,-3.5992,-3.5992,-3.5992,-3.5992,-3.5875,-3.5193,-3.4979,-3.4803,-3.3923,-3.3183,-3.2579,-3.2208,-3.1602,-3.1036,-3.0859,-3.08,-3.08,-3.08,-3.08,-3.08,-3.08,-3.08,-3.0822,-3.0887,-3.0857,-3.0801,-3.082,-3.0773,-3.0743,-3.0725,-3.0722,-3.0738,-3.0714,-3.0705,-3.0681,-3.0628,-3.061,-3.0603,-3.06,-3.0314,-3.0285,-3.0588,-3.04,-3.0365,-3.0525,-3.0588,-3.0588,-3.055,-3.0588,-3.0598,-3.0598,-3.0598,-3.1487,-3.3107,-3.3107,-3.4054,-3.5704,-3.5704,-3.5704,-3.5704,-3.5704,-3.5614,-3.5464,-3.5464,-3.5371,-3.5209,-3.5178,-3.5162,-3.5122,-3.4249,-3.4385,-3.4653,-3.5523,-3.5678,-3.5717,-3.5795,-3.5795,-3.5775,-3.5698,-3.5756,-3.5795,-3.5795,-3.5795,-3.5795,-3.5795,-3.5795,-3.5795,-3.5795,-3.5795,-3.5795,-3.5795,-3.5717,-3.5678,-3.5678,-3.56,-3.56,-3.5678,-3.5678,-3.5274,-3.4521,-3.5313,-3.5702,-3.5764,-3.5867,-3.59,-3.5898,-3.5898,-3.5934,-3.5996,-3.5994,-3.5992,-3.5992,-3.5992,-3.5992,-3.5992,-3.5992,-3.5992,-3.5992,-3.5992,-3.5992,-3.5992,-3.5895,-3.5875,-3.5719,-3.4822,-3.451,-3.41,-3.254,-3.2032,-3.1797,-3.0995,-3.08,-3.08,-3.08,-3.08,-3.08,-3.08,-3.08,-3.0822,-3.0887,-3.0846,-3.0826,-3.0871,-3.0892,-3.0853,-3.081,-3.0835,-3.0859,-3.0798,-3.0735,-3.0706,-3.0693,-3.0632,-3.0593,-3.0597,-3.0404,-3.0378,-3.0593,-3.04,-3.0306,-3.0337,-3.0491,-3.0515,-3.0337,-3.0515,-3.0598,-3.0598,-3.0598,-3.1487,-3.3107,-3.3107,-3.4054,-3.5704,-3.5704,-3.5704,-3.5704,-3.5704,-3.5679,-3.5673,-3.5673,-3.5662,-3.562,-3.5444,-3.5378,-3.5331,-3.5216,-3.5274,-3.5391,-3.5736,-3.5795,-3.5795,-3.5795,-3.5795,-3.5795,-3.5795,-3.5795,-3.5795,-3.5795,-3.5795,-3.5795,-3.5795,-3.5795,-3.5795,-3.5795,-3.5795,-3.5795,-3.5795,-3.5795,-3.5795,-3.5795,-3.5795,-3.5795,-3.5795,-3.5795,-3.562,-3.5294,-3.5639,-3.5841,-3.5892,-3.5901,-3.59,-3.5898,-3.5933,-3.5983,-3.5992,-3.5992,-3.5992,-3.5992,-3.5992,-3.5992,-3.5992,-3.5992,-3.5992,-3.5992,-3.5992,-3.5992,-3.5992,-3.5992,-3.5992,-3.5934,-3.5582,-3.5115,-3.4549,-3.3846,-3.289,-3.2013,-3.166,-3.1192,-3.08,-3.08,-3.08,-3.08,-3.08,-3.08,-3.0801,-3.0843,-3.0822,-3.0801,-3.0843,-3.0844,-3.0823,-3.0801,-3.0824,-3.083,-3.0795,-3.0781,-3.076,-3.0752,-3.07,-3.0636,-3.0597,-3.0533,-3.0515,-3.0598,-3.052,-3.0481,-3.0481,-3.0559,-3.0559,-3.0481,-3.0559,-3.0598,-3.0598,-3.0598,-3.1487,-3.3107,-3.3107,-3.4054,-3.5704,-3.5704,-3.5704,-3.5704,-3.5704,-3.5704,-3.5704,-3.5704,-3.5704,-3.5679,-3.5614,-3.5577,-3.5571,-3.5795,-3.6008,-3.6183,-3.6183,-3.6397,-3.6556,-3.6556,-3.6556,-3.6556,-3.6556,-3.6556,-3.6377,-3.5853,-3.5795,-3.5795,-3.5795,-3.5795,-3.5795,-3.5795,-3.5795,-3.5795,-3.5795,-3.5795,-3.5795,-3.5795,-3.5795,-3.5795,-3.5795,-3.5795,-3.5678,-3.543,-3.543,-3.5589,-3.5892,-3.5906,-3.5903,-3.5898,-3.5951,-3.598,-3.5992,-3.5992,-3.5992,-3.5992,-3.5992,-3.5992,-3.5992,-3.5992,-3.5992,-3.5992,-3.5992,-3.5992,-3.5992,-3.5992,-3.5992,-3.5992,-3.5992,-3.5563,-3.5037,-3.4764,-3.3612,-3.2422,-3.2169,-3.1446,-3.08,-3.08,-3.08,-3.08,-3.08,-3.08,-3.08,-3.08,-3.08,-3.08,-3.08,-3.08,-3.08,-3.08,-3.0822,-3.0825,-3.079,-3.0777,-3.0781,-3.08,-3.0737,-3.0696,-3.0665,-3.0633,-3.0614,-3.0592,-3.0592,-3.0578,-3.0545,-3.0574,-3.0574,-3.0515,-3.0564,-3.0598,-3.0598,-3.0598,-3.1333,-3.2739,-3.3242,-3.4292,-3.5704,-3.5704,-3.5704,-3.5704,-3.5704,-3.5704,-3.5704,-3.5704,-3.5704,-3.5704,-3.5704,-3.5704,-3.5704,-3.5795,-3.6498,-3.7081,-3.7081,-3.78,-3.8367,-3.8367,-3.8367,-3.8367,-3.8367,-3.8367,-3.7702,-3.5989,-3.5795,-3.5795,-3.5795,-3.5795,-3.5795,-3.5795,-3.5795,-3.5795,-3.5795,-3.5795,-3.5795,-3.5795,-3.5795,-3.5795,-3.5795,-3.5795,-3.5352,-3.4521,-3.4521,-3.5009,-3.5908,-3.5892,-3.5903,-3.5898,-3.5898,-3.5934,-3.5992,-3.5992,-3.5992,-3.5992,-3.5992,-3.5992,-3.5992,-3.5992,-3.5992,-3.5992,-3.5992,-3.5992,-3.5992,-3.5992,-3.5992,-3.5992,-3.5992,-3.5992,-3.5797,-3.494,-3.4061,-3.3182,-3.2324,-3.1446,-3.08,-3.08,-3.08,-3.08,-3.08,-3.08,-3.08,-3.08,-3.08,-3.08,-3.08,-3.08,-3.08,-3.08,-3.0864,-3.0873,-3.0801,-3.0748,-3.0721,-3.0781,-3.0737,-3.0733,-3.0798,-3.074,-3.0675,-3.0608,-3.06,-3.0535,-3.0403,-3.0525,-3.0501,-3.0306,-3.0491,-3.0598,-3.0598,-3.0598,-3.1023,-3.1869,-3.3596,-3.4877,-3.5704,-3.5704,-3.5704,-3.5704,-3.5704,-3.5704,-3.5704,-3.5704,-3.5704,-3.5704,-3.5704,-3.5704,-3.5704,-3.7566,-3.78,-3.7998,-3.7998,-3.8212,-3.8406,-3.8406,-3.8406,-3.8406,-3.8406,-3.8406,-3.8192,-3.7625,-3.7042,-3.6692,-3.6692,-3.6144,-3.5795,-3.5795,-3.5795,-3.5795,-3.5795,-3.5795,-3.5795,-3.5795,-3.5795,-3.5795,-3.5795,-3.5795,-3.5659,-3.5391,-3.5391,-3.5569,-3.5908,-3.5908,-3.5908,-3.5907,-3.5907,-3.5916,-3.5935,-3.5935,-3.5968,-3.5992,-3.5992,-3.5992,-3.5992,-3.5992,-3.5992,-3.5992,-3.5992,-3.5992,-3.5992,-3.5992,-3.5992,-3.5992,-3.5992,-3.5992,-3.5934,-3.566,-3.4959,-3.4081,-3.3202,-3.2324,-3.1524,-3.0937,-3.08,-3.08,-3.08,-3.08,-3.08,-3.08,-3.08,-3.08,-3.08,-3.08,-3.08,-3.08,-3.0822,-3.0825,-3.0791,-3.0778,-3.0779,-3.0793,-3.0779,-3.0764,-3.0727,-3.0706,-3.0692,-3.0665,-3.0662,-3.0626,-3.0534,-3.058,-3.058,-3.0501,-3.0572,-3.0604,-3.0604,-3.0604,-3.1331,-3.2726,-3.3877,-3.4877,-3.5704,-3.5704,-3.5704,-3.5704,-3.5704,-3.5704,-3.5704,-3.5704,-3.5704,-3.5704,-3.5704,-3.5704,-3.5704,-3.8406,-3.8659,-3.8887,-3.8887,-3.914,-3.9339,-3.9339,-3.9339,-3.9339,-3.9339,-3.9339,-3.9339,-3.9339,-3.8576,-3.7819,-3.7159,-3.6595,-3.6144,-3.5814,-3.5795,-3.5795,-3.5795,-3.5795,-3.5795,-3.5795,-3.5795,-3.5795,-3.5795,-3.5795,-3.5795,-3.5795,-3.5795,-3.5823,-3.5853,-3.5853,-3.5889,-3.5896,-3.591,-3.5909,-3.5898,-3.5936,-3.5967,-3.5992,-3.5992,-3.5992,-3.5992,-3.5992,-3.5992,-3.5992,-3.5992,-3.5992,-3.5992,-3.5992,-3.5992,-3.5992,-3.5992,-3.5992,-3.5992,-3.5992,-3.5369,-3.4491,-3.3611,-3.2734,-3.1875,-3.0995,-3.08,-3.08,-3.08,-3.08,-3.08,-3.08,-3.08,-3.08,-3.08,-3.08,-3.08,-3.08,-3.08,-3.0804,-3.0793,-3.0793,-3.0793,-3.0793,-3.08,-3.078,-3.0739,-3.0747,-3.0749,-3.0735,-3.0717,-3.0685,-3.0648,-3.0634,-3.0633,-3.0606,-3.0606,-3.0606,-3.0606,-3.0606,-3.1489,-3.3161,-3.3689,-3.4594,-3.5697,-3.5697,-3.5692,-3.5701,-3.5701,-3.5695,-3.5704,-3.5704,-3.5704,-3.5704,-3.5704,-3.5704,-3.5704,-3.8561,-3.9237,-3.9776,-3.9776,-4.0402,-4.0907,-4.0907,-4.0907,-4.0907,-4.0907,-4.0907,-4.0907,-4.0907,-4.0228,-3.912,-3.743,-3.7178,-3.677,-3.5931,-3.5834,-3.5795,-3.5795,-3.5795,-3.5795,-3.5795,-3.5795,-3.5795,-3.5795,-3.5795,-3.5795,-3.5795,-3.5795,-3.5795,-3.5795,-3.5795,-3.5841,-3.5894,-3.5898,-3.5907,-3.5918,-3.5966,-3.5995,-3.5995,-3.5992,-3.5992,-3.5992,-3.5992,-3.5992,-3.5992,-3.5992,-3.5992,-3.5992,-3.5992,-3.5992,-3.5992,-3.5992,-3.5992,-3.5992,-3.5992,-3.5408,-3.4569,-3.363,-3.2695,-3.1797,-3.0976,-3.08,-3.08,-3.08,-3.08,-3.08,-3.08,-3.08,-3.08,-3.08,-3.08,-3.08,-3.08,-3.08,-3.0809,-3.08,-3.0801,-3.0801,-3.0801,-3.0801,-3.0799,-3.0805,-3.0804,-3.0792,-3.0801,-3.0747,-3.0707,-3.0706,-3.0707,-3.0677,-3.061,-3.061,-3.061,-3.061,-3.061,-3.1482,-3.3111,-3.3164,-3.4075,-3.5631,-3.5689,-3.5694,-3.5693,-3.5693,-3.5697,-3.569,-3.569,-3.5709,-3.5709,-3.5709,-3.5704,-3.5704,-4.0305,-4.0461,-4.0616,-4.0616,-4.0771,-4.0907,-4.0907,-4.0907,-4.0907,-4.0907,-4.0907,-4.0907,-4.0907,-4.0733,-4.0208,-3.9179,-3.7877,-3.7003,-3.6809,-3.6164,-3.5795,-3.5795,-3.5795,-3.5795,-3.5795,-3.5795,-3.5795,-3.5795,-3.5795,-3.5795,-3.5795,-3.5795,-3.5795,-3.5795,-3.5795,-3.5841,-3.5892,-3.5902,-3.5896,-3.5907,-3.5918,-3.5917,-3.5935,-3.598,-3.5992,-3.5992,-3.5992,-3.5992,-3.5992,-3.5992,-3.5992,-3.5992,-3.5992,-3.5992,-3.5992,-3.5992,-3.5992,-3.5992,-3.5992,-3.5856,-3.5329,-3.3787,-3.2245,-3.1055,-3.0859,-3.08,-3.08,-3.08,-3.08,-3.08,-3.08,-3.08,-3.08,-3.08,-3.08,-3.08,-3.08,-3.08,-3.0803,-3.0808,-3.0809,-3.0809,-3.0809,-3.0809,-3.0793,-3.0799,-3.08,-3.08,-3.0801,-3.0782,-3.0745,-3.0699,-3.0706,-3.0694,-3.068,-3.068,-3.068,-3.0676,-3.068,-3.1212,-3.2236,-3.2902,-3.3785,-3.4812,-3.5432,-3.5704,-3.5699,-3.5699,-3.5694,-3.5708,-3.5707,-3.5697,-3.5697,-3.5695,-3.5704,-3.5704,-4.0907,-4.0907,-4.0907,-4.0907,-4.0907,-4.0907,-4.0907,-4.0907,-4.0907,-4.0907,-4.0907,-4.0907,-4.0907,-4.0907,-4.0713,-4.0286,-3.8674,-3.7528,-3.7139,-3.628,-3.5795,-3.5795,-3.5795,-3.5795,-3.5795,-3.5795,-3.5795,-3.5795,-3.5795,-3.5795,-3.5795,-3.5795,-3.5795,-3.5795,-3.5795,-3.5841,-3.5892,-3.5895,-3.5908,-3.5893,-3.5937,-3.5952,-3.5951,-3.5998,-3.5992,-3.5992,-3.5992,-3.5992,-3.5992,-3.5992,-3.5992,-3.5992,-3.5992,-3.5992,-3.5992,-3.5992,-3.5992,-3.5992,-3.5992,-3.5992,-3.5582,-3.3845,-3.2088,-3.08,-3.08,-3.08,-3.08,-3.08,-3.08,-3.08,-3.08,-3.08,-3.08,-3.08,-3.08,-3.08,-3.08,-3.08,-3.08,-3.08,-3.08,-3.08,-3.08,-3.08,-3.0806,-3.0796,-3.0797,-3.0797,-3.0797,-3.08,-3.0776,-3.0755,-3.0715,-3.0698,-3.0694,-3.0694,-3.0694,-3.0694,-3.0703,-3.1138,-3.1988,-3.2854,-3.3703,-3.4557,-3.5372,-3.5751,-3.5742,-3.5742,-3.5737,-3.5704,-3.5694,-3.5703,-3.5703,-3.5707,-3.5702,-3.5702,-4.0907,-4.0907,-4.0907,-4.0907,-4.0907,-4.0907,-4.0907,-4.0907,-4.0907,-4.0907,-4.0907,-4.0907,-4.0907,-4.0907,-4.0907,-4.0907,-3.9489,-3.8231,-3.7353,-3.6479,-3.5931,-3.5814,-3.5795,-3.5795,-3.5795,-3.5795,-3.5795,-3.5795,-3.5795,-3.5795,-3.5795,-3.5795,-3.5795,-3.5795,-3.5795,-3.5841,-3.5894,-3.59,-3.5908,-3.5918,-3.5965,-3.5995,-3.5999,-3.5994,-3.5991,-3.5991,-3.5992,-3.5991,-3.5991,-3.5992,-3.5992,-3.5992,-3.5992,-3.5992,-3.5992,-3.5992,-3.5992,-3.5992,-3.5992,-3.5895,-3.5426,-3.3806,-3.2186,-3.0956,-3.0839,-3.08,-3.08,-3.08,-3.08,-3.08,-3.08,-3.08,-3.08,-3.08,-3.08,-3.08,-3.08,-3.08,-3.08,-3.08,-3.08,-3.08,-3.08,-3.08,-3.08,-3.08,-3.08,-3.08,-3.08,-3.08,-3.0797,-3.0807,-3.0742,-3.0718,-3.0707,-3.0697,-3.0694,-3.0694,-3.0694,-3.1098,-3.1833,-3.2846,-3.3662,-3.4365,-3.5371,-3.5806,-3.5808,-3.5808,-3.5775,-3.5718,-3.5713,-3.5713,-3.5713,-3.5708,-3.5708,-3.5708,-4.0907,-4.0907,-4.0907,-4.0907,-4.0907,-4.0907,-4.0907,-4.0907,-4.0907,-4.0907,-4.0907,-4.0907,-4.0907,-4.0907,-4.0907,-4.0907,-4.0033,-3.914,-3.827,-3.7372,-3.6576,-3.5834,-3.5795,-3.5795,-3.5795,-3.5795,-3.5795,-3.5795,-3.5795,-3.5795,-3.5795,-3.5795,-3.5795,-3.5795,-3.5795,-3.5841,-3.5894,-3.59,-3.5897,-3.5906,-3.597,-3.5966,-3.5917,-3.5982,-3.6007,-3.6002,-3.6009,-3.6007,-3.6002,-3.6009,-3.5992,-3.5992,-3.5992,-3.5992,-3.5992,-3.5992,-3.5992,-3.5992,-3.5992,-3.5465,-3.4666,-3.365,-3.2636,-3.1719,-3.0976,-3.08,-3.08,-3.08,-3.08,-3.08,-3.08,-3.08,-3.08,-3.08,-3.08,-3.08,-3.08,-3.08,-3.08,-3.08,-3.08,-3.08,-3.08,-3.08,-3.08,-3.08,-3.08,-3.08,-3.08,-3.08,-3.0793,-3.08,-3.08,-3.0766,-3.0691,-3.0701,-3.0694,-3.0694,-3.0694,-3.0771,-3.0962,-3.2574,-3.3371,-3.3565,-3.5134,-3.5795,-3.581,-3.581,-3.5786,-3.5782,-3.5784,-3.5775,-3.5775,-3.5713,-3.5708,-3.5708,-4.0907,-4.0907,-4.0907,-4.0907,-4.0907,-4.0907,-4.0907,-4.0907,-4.0907,-4.0907,-4.0907,-4.0907,-4.0907,-4.0907,-4.0907,-4.0907,-4.0558,-3.9994,-3.9159,-3.7838,-3.6925,-3.6518,-3.6047,-3.5795,-3.5795,-3.5795,-3.5795,-3.5795,-3.5795,-3.5795,-3.5795,-3.5795,-3.5795,-3.5795,-3.5795,-3.5846,-3.589,-3.5908,-3.593,-3.5956,-3.5999,-3.5978,-3.5969,-3.5994,-3.6002,-3.6001,-3.6004,-3.6001,-3.5994,-3.6002,-3.6006,-3.6006,-3.5991,-3.5992,-3.5992,-3.5992,-3.5992,-3.5992,-3.5992,-3.5369,-3.4491,-3.3611,-3.2734,-3.1875,-3.0995,-3.08,-3.08,-3.08,-3.08,-3.08,-3.08,-3.08,-3.08,-3.08,-3.08,-3.08,-3.08,-3.08,-3.08,-3.08,-3.08,-3.08,-3.08,-3.08,-3.08,-3.08,-3.08,-3.08,-3.08,-3.08,-3.0806,-3.0795,-3.08,-3.0787,-3.0758,-3.0741,-3.0735,-3.0706,-3.0706,-3.0707,-3.0752,-3.2516,-3.3293,-3.3394,-3.5106,-3.5838,-3.5799,-3.5845,-3.5838,-3.5795,-3.5801,-3.5801,-3.5797,-3.5769,-3.5745,-3.5745,-4.0907,-4.0907,-4.0907,-4.0907,-4.0907,-4.0907,-4.0907,-4.0907,-4.0907,-4.0907,-4.0907,-4.0907,-4.0907,-4.0907,-4.0907,-4.0907,-4.0907,-4.0635,-4.0014,-3.8557,-3.7528,-3.712,-3.6261,-3.5795,-3.5795,-3.5795,-3.5795,-3.5795,-3.5795,-3.5795,-3.5795,-3.5795,-3.5795,-3.5795,-3.5795,-3.5824,-3.589,-3.589,-3.5935,-3.5987,-3.5988,-3.6001,-3.6006,-3.6001,-3.5997,-3.5974,-3.5997,-3.5992,-3.5984,-3.5994,-3.5997,-3.6001,-3.6007,-3.5991,-3.5992,-3.5992,-3.5992,-3.5992,-3.5992,-3.5504,-3.4783,-3.3923,-3.3042,-3.2142,-3.1308,-3.0933,-3.0774,-3.0799,-3.08,-3.08,-3.08,-3.08,-3.08,-3.08,-3.08,-3.08,-3.08,-3.08,-3.08,-3.08,-3.08,-3.08,-3.08,-3.08,-3.08,-3.08,-3.08,-3.08,-3.08,-3.08,-3.08,-3.08,-3.08,-3.0809,-3.0809,-3.0804,-3.077,-3.072,-3.072,-3.084,-3.1076,-3.2607,-3.3404,-3.3683,-3.5229,-3.5864,-3.5836,-3.5869,-3.5872,-3.5827,-3.5827,-3.5815,-3.5795,-3.5795,-3.5795,-3.5795,-4.0907,-4.0907,-4.0907,-4.0907,-4.0907,-4.0907,-4.0907,-4.0907,-4.0907,-4.0907,-4.0907,-4.0907,-4.0907,-4.0907,-4.0907,-4.0907,-4.0907,-4.0869,-4.083,-3.9994,-3.879,-3.7178,-3.6261,-3.5795,-3.5795,-3.5795,-3.5795,-3.5795,-3.5795,-3.5795,-3.5795,-3.5795,-3.5795,-3.5795,-3.5795,-3.5803,-3.5807,-3.5878,-3.5908,-3.5913,-3.5977,-3.6005,-3.6007,-3.5997,-3.5968,-3.5914,-3.5974,-3.5968,-3.5912,-3.5981,-3.5992,-3.5999,-3.6001,-3.6006,-3.5992,-3.5992,-3.5992,-3.5992,-3.5992,-3.5953,-3.568,-3.4822,-3.3904,-3.3009,-3.2182,-3.1328,-3.0726,-3.0795,-3.08,-3.08,-3.08,-3.08,-3.08,-3.08,-3.08,-3.08,-3.08,-3.08,-3.08,-3.08,-3.08,-3.08,-3.08,-3.08,-3.08,-3.08,-3.08,-3.08,-3.08,-3.08,-3.08,-3.08,-3.0799,-3.0801,-3.0801,-3.0791,-3.0799,-3.0798,-3.0798,-3.1228,-3.203,-3.2904,-3.3743,-3.4566,-3.5482,-3.591,-3.5887,-3.591,-3.5908,-3.5883,-3.5883,-3.5843,-3.5795,-3.5795,-3.5795,-3.5795,-4.0968,-4.0928,-4.0907,-4.0907,-4.0907,-4.0907,-4.0907,-4.0907,-4.0907,-4.0907,-4.0907,-4.0907,-4.0907,-4.0907,-4.0907,-4.0907,-4.0907,-4.0907,-4.0907,-4.015,-3.8926,-3.7178,-3.6261,-3.5795,-3.5795,-3.5795,-3.5795,-3.5795,-3.5795,-3.5795,-3.5795,-3.5795,-3.5795,-3.5795,-3.5846,-3.5862,-3.5867,-3.5886,-3.5918,-3.5965,-3.5933,-3.596,-3.6005,-3.5942,-3.5916,-3.589,-3.5938,-3.5912,-3.5899,-3.5931,-3.5938,-3.5945,-3.5995,-3.6002,-3.6006,-3.5991,-3.5992,-3.5992,-3.5992,-3.5978,-3.5724,-3.4863,-3.4362,-3.3724,-3.2305,-3.1755,-3.1407,-3.0852,-3.077,-3.08,-3.08,-3.08,-3.08,-3.08,-3.08,-3.08,-3.08,-3.08,-3.08,-3.08,-3.08,-3.08,-3.08,-3.08,-3.08,-3.08,-3.08,-3.08,-3.08,-3.08,-3.08,-3.08,-3.0809,-3.0793,-3.0793,-3.0798,-3.1074,-3.1618,-3.1618,-3.2045,-3.2875,-3.3712,-3.4298,-3.4652,-3.5521,-3.5909,-3.5896,-3.5891,-3.5905,-3.5894,-3.5894,-3.5884,-3.5868,-3.5868,-3.5868,-3.5868,-4.099,-4.0949,-4.0907,-4.0907,-4.0907,-4.0907,-4.0907,-4.0907,-4.0907,-4.0907,-4.0907,-4.0907,-4.0907,-4.0907,-4.0907,-4.0907,-4.0907,-4.0907,-4.0907,-4.015,-3.8926,-3.7178,-3.6537,-3.6086,-3.5814,-3.5795,-3.5795,-3.5795,-3.5795,-3.5795,-3.5795,-3.5795,-3.5795,-3.5799,-3.5843,-3.5866,-3.5876,-3.5897,-3.5931,-3.596,-3.5914,-3.5929,-3.5955,-3.5912,-3.5907,-3.5904,-3.5907,-3.5902,-3.5892,-3.5899,-3.5907,-3.5912,-3.5947,-3.5974,-3.5997,-3.6002,-3.6006,-3.6009,-3.6009,-3.5945,-3.5758,-3.5186,-3.4795,-3.4254,-3.3022,-3.2583,-3.2188,-3.1293,-3.117,-3.1114,-3.0859,-3.08,-3.08,-3.08,-3.08,-3.08,-3.08,-3.08,-3.08,-3.08,-3.08,-3.08,-3.08,-3.08,-3.08,-3.08,-3.08,-3.0917,-3.1192,-3.1464,-3.162,-3.162,-3.162,-3.162,-3.162,-3.1348,-3.1648,-3.2517,-3.2517,-3.2949,-3.3768,-3.4353,-3.4783,-3.5077,-3.5663,-3.5937,-3.5935,-3.5937,-3.5918,-3.5907,-3.5907,-3.5902,-3.5895,-3.5895,-3.5895,-3.5895,-4.0994,-4.0953,-4.0907,-4.0907,-4.0907,-4.0907,-4.0907,-4.0907,-4.0907,-4.0907,-4.0907,-4.0907,-4.0907,-4.0907,-4.0907,-4.0907,-4.0907,-4.0907,-4.0907,-4.015,-3.8926,-3.7197,-3.712,-3.6692,-3.5814,-3.5795,-3.5795,-3.5795,-3.5795,-3.5795,-3.5795,-3.5795,-3.5795,-3.5799,-3.58,-3.5792,-3.5802,-3.5879,-3.5907,-3.5903,-3.5897,-3.5908,-3.5892,-3.5904,-3.5902,-3.5892,-3.5904,-3.5902,-3.5908,-3.5908,-3.5899,-3.5909,-3.5909,-3.5955,-3.6005,-3.6005,-3.5992,-3.5999,-3.5999,-3.5958,-3.5921,-3.5985,-3.5249,-3.4528,-3.4583,-3.3887,-3.2981,-3.2183,-3.2063,-3.1856,-3.0976,-3.08,-3.08,-3.08,-3.08,-3.08,-3.08,-3.08,-3.08,-3.08,-3.082,-3.082,-3.082,-3.082,-3.082,-3.082,-3.082,-3.1192,-3.2052,-3.2929,-3.3396,-3.3396,-3.3396,-3.3396,-3.3416,-3.2558,-3.2558,-3.3416,-3.3416,-3.3866,-3.4705,-3.4705,-3.5174,-3.5992,-3.5992,-3.5992,-3.5992,-3.5992,-3.5968,-3.5898,-3.5898,-3.5895,-3.5895,-3.5895,-3.5895,-3.5895,-4.0994,-4.0951,-4.0907,-4.0907,-4.0907,-4.0907,-4.0907,-4.0907,-4.0907,-4.0907,-4.0907,-4.0907,-4.0907,-4.0907,-4.0907,-4.0907,-4.0907,-4.0907,-4.0907,-4.0674,-4.0053,-3.8965,-3.7741,-3.6692,-3.5814,-3.5795,-3.5795,-3.5795,-3.5795,-3.5795,-3.5795,-3.5795,-3.5795,-3.5803,-3.5858,-3.5866,-3.5865,-3.5891,-3.59,-3.5899,-3.5899,-3.5908,-3.5908,-3.5894,-3.5894,-3.5908,-3.5894,-3.5894,-3.5908,-3.5908,-3.5892,-3.5897,-3.5907,-3.5955,-3.6005,-3.6005,-3.5992,-3.5999,-3.5999,-3.5999,-3.5955,-3.5936,-3.5697,-3.5282,-3.4566,-3.4283,-3.3923,-3.3038,-3.2909,-3.2868,-3.2593,-3.2093,-3.1691,-3.1642,-3.1175,-3.08,-3.08,-3.1328,-3.1719,-3.1719,-3.2246,-3.2616,-3.2616,-3.2616,-3.2616,-3.2616,-3.2616,-3.2733,-3.3007,-3.326,-3.3396,-3.3396,-3.3396,-3.3689,-3.4315,-3.3456,-3.3456,-3.4315,-3.4315,-3.4764,-3.5602,-3.5602,-3.5758,-3.5992,-3.5992,-3.5992,-3.5992,-3.5992,-3.5998,-3.5965,-3.5965,-3.5969,-3.5973,-3.5973,-3.5973,-3.5973,-4.099,-4.0948,-4.0907,-4.0907,-4.0907,-4.0907,-4.0907,-4.0907,-4.0907,-4.0907,-4.0907,-4.0907,-4.0907,-4.0907,-4.0907,-4.0907,-4.0907,-4.0907,-4.0907,-4.0907,-4.0538,-3.9737,-3.8693,-3.7566,-3.6339,-3.5969,-3.5795,-3.5795,-3.5795,-3.5795,-3.5795,-3.5795,-3.5795,-3.5803,-3.5862,-3.5905,-3.5895,-3.5897,-3.5892,-3.5908,-3.5908,-3.5908,-3.5908,-3.5908,-3.5908,-3.5908,-3.5908,-3.5908,-3.5908,-3.5908,-3.5908,-3.5892,-3.5899,-3.5926,-3.5953,-3.5953,-3.596,-3.5968,-3.5968,-3.5945,-3.5914,-3.5861,-3.588,-3.5726,-3.5014,-3.4944,-3.4772,-3.3835,-3.3689,-3.3644,-3.331,-3.2876,-3.2569,-3.2516,-3.2124,-3.1835,-3.1835,-3.2285,-3.2617,-3.2617,-3.3084,-3.3396,-3.3396,-3.3396,-3.3396,-3.3396,-3.3728,-3.3905,-3.3905,-3.4236,-3.4431,-3.4431,-3.4431,-3.4684,-3.5213,-3.4684,-3.4684,-3.5213,-3.5213,-3.5485,-3.5992,-3.5992,-3.5992,-3.5992,-3.5992,-3.5992,-3.5992,-3.5992,-3.5992,-3.5992,-3.5992,-3.5992,-3.5992,-3.5992,-3.5992,-3.5992,-4.0992,-4.0957,-4.0893,-4.0917,-4.0902,-4.0917,-4.0907,-4.0917,-4.0917,-4.0907,-4.0907,-4.0907,-4.0907,-4.0907,-4.0907,-4.0907,-4.0907,-4.0907,-4.0907,-4.0907,-4.0577,-3.9834,-3.9737,-3.8965,-3.7372,-3.6397,-3.5872,-3.5795,-3.5795,-3.5795,-3.5795,-3.5803,-3.5807,-3.5815,-3.5869,-3.5895,-3.5897,-3.59,-3.5892,-3.5908,-3.5908,-3.5908,-3.5908,-3.5908,-3.5908,-3.5908,-3.5908,-3.5908,-3.5908,-3.5908,-3.5908,-3.5908,-3.5908,-3.5908,-3.5908,-3.5908,-3.5899,-3.5909,-3.5909,-3.5864,-3.5811,-3.5804,-3.5846,-3.5849,-3.5706,-3.5685,-3.5445,-3.4582,-3.4449,-3.4279,-3.3552,-3.341,-3.3398,-3.3393,-3.3384,-3.3392,-3.3392,-3.3453,-3.3513,-3.3513,-3.3572,-3.363,-3.363,-3.363,-3.363,-3.363,-3.4374,-3.4822,-3.4822,-3.5563,-3.5992,-3.5992,-3.5992,-3.5992,-3.5992,-3.5992,-3.5992,-3.5992,-3.5992,-3.5992,-3.5992,-3.5992,-3.5992,-3.5992,-3.5992,-3.5992,-3.5992,-3.5992,-3.5992,-3.5992,-3.5992,-3.5992,-3.5992,-3.5992,-3.5992,-3.5992,-4.0994,-4.0954,-4.0911,-4.0979,-4.0986,-4.0968,-4.0917,-4.0949,-4.0968,-4.0917,-4.0907,-4.0907,-4.0907,-4.0907,-4.0907,-4.0907,-4.0907,-4.0907,-4.0907,-4.0907,-4.083,-4.0655,-4.0033,-3.9524,-3.9135,-3.7605,-3.6479,-3.5795,-3.5795,-3.5795,-3.5795,-3.5843,-3.5888,-3.5875,-3.5891,-3.5898,-3.5896,-3.5896,-3.5899,-3.5908,-3.5908,-3.5908,-3.5908,-3.5908,-3.5908,-3.5908,-3.5908,-3.5908,-3.5908,-3.5908,-3.5908,-3.5908,-3.5908,-3.5908,-3.5908,-3.5908,-3.5899,-3.5909,-3.5909,-3.5929,-3.5921,-3.5837,-3.582,-3.5762,-3.5596,-3.559,-3.5556,-3.5356,-3.5333,-3.5291,-3.5116,-3.4572,-3.4144,-3.4081,-3.3644,-3.331,-3.331,-3.3947,-3.4413,-3.4413,-3.5016,-3.5446,-3.5446,-3.5446,-3.5446,-3.5446,-3.5602,-3.5719,-3.5719,-3.5895,-3.5992,-3.5992,-3.5992,-3.5992,-3.5992,-3.5992,-3.5992,-3.5992,-3.5992,-3.5992,-3.5992,-3.5992,-3.5992,-3.5992,-3.5992,-3.5992,-3.5992,-3.5992,-3.5992,-3.5992,-3.5992,-3.5992,-3.5992,-3.5992,-3.5992,-3.5992,-4.1001,-4.0975,-4.0961,-4.0991,-4.0996,-4.0998,-4.0945,-4.0977,-4.0995,-4.0945,-4.0948,-4.0958,-4.0957,-4.0953,-4.0937,-4.0893,-4.0907,-4.0907,-4.0907,-4.0907,-4.0907,-4.0907,-4.0499,-4.0092,-3.9699,-3.881,-3.7702,-3.6416,-3.6008,-3.5795,-3.5799,-3.5879,-3.5875,-3.5846,-3.5896,-3.5894,-3.5908,-3.5908,-3.5897,-3.5908,-3.5908,-3.5908,-3.5908,-3.5908,-3.5908,-3.5908,-3.5908,-3.5908,-3.5908,-3.5908,-3.5908,-3.5908,-3.5908,-3.5908,-3.5908,-3.5908,-3.5894,-3.5899,-3.5899,-3.5883,-3.583,-3.5736,-3.5678,-3.5621,-3.5527,-3.5546,-3.559,-3.5565,-3.5553,-3.5553,-3.5553,-3.5226,-3.4967,-3.493,-3.4643,-3.4432,-3.4441,-3.4892,-3.5217,-3.5212,-3.5678,-3.6001,-3.6001,-3.6001,-3.6001,-3.6001,-3.6001,-3.6001,-3.6001,-3.6001,-3.6002,-3.6006,-3.6006,-3.6007,-3.5992,-3.5992,-3.5992,-3.5992,-3.5992,-3.5992,-3.5992,-3.5992,-3.5992,-3.5992,-3.5992,-3.5992,-3.5992,-3.5992,-3.5992,-3.5992,-3.5992,-3.5992,-3.5992,-3.5992,-3.5992,-3.5992,-4.1011,-4.1012,-4.0994,-4.1017,-4.1019,-4.1008,-4.0998,-4.1016,-4.1007,-4.0998,-4.099,-4.1,-4.0995,-4.1009,-4.0981,-4.092,-4.0928,-4.0904,-4.0907,-4.0902,-4.0911,-4.0911,-4.0917,-4.0586,-3.9939,-3.9785,-3.8926,-3.7314,-3.6459,-3.6017,-3.6013,-3.5933,-3.5875,-3.5816,-3.5898,-3.5926,-3.5919,-3.5899,-3.5892,-3.5908,-3.5908,-3.5908,-3.5908,-3.5908,-3.5908,-3.5908,-3.5908,-3.5908,-3.5908,-3.5908,-3.5908,-3.5908,-3.5908,-3.5908,-3.5908,-3.5908,-3.5908,-3.5908,-3.5908,-3.5801,-3.5676,-3.5614,-3.5538,-3.5496,-3.547,-3.5519,-3.5526,-3.5488,-3.546,-3.546,-3.546,-3.5502,-3.5543,-3.5543,-3.5616,-3.5674,-3.5674,-3.5718,-3.5765,-3.5804,-3.5916,-3.6005,-3.6005,-3.6005,-3.6005,-3.6005,-3.6005,-3.6005,-3.6005,-3.6005,-3.6009,-3.5997,-3.5997,-3.6001,-3.6007,-3.6009,-3.5991,-3.5991,-3.5992,-3.5992,-3.5992,-3.5992,-3.5992,-3.5992,-3.5992,-3.5992,-3.5992,-3.5992,-3.5992,-3.5992,-3.5992,-3.5992,-3.5992,-3.5992,-3.5992,-3.5992,-4.1071,-4.1044,-4.1019,-4.1073,-4.1093,-4.1071,-4.1008,-4.1047,-4.1071,-4.1008,-4.1008,-4.101,-4.1005,-4.1003,-4.1005,-4.0984,-4.0991,-4.0959,-4.0897,-4.0941,-4.0997,-4.0997,-4.0932,-4.0885,-4.0822,-4.0092,-3.9217,-3.8212,-3.7353,-3.6923,-3.691,-3.6222,-3.5902,-3.5898,-3.5964,-3.5981,-3.5972,-3.5914,-3.5899,-3.5908,-3.5908,-3.5908,-3.5908,-3.5908,-3.5908,-3.5908,-3.5908,-3.5908,-3.5908,-3.5908,-3.5908,-3.5908,-3.5908,-3.5908,-3.5908,-3.5908,-3.5908,-3.5908,-3.5908,-3.5801,-3.5676,-3.5614,-3.5538,-3.5476,-3.535,-3.533,-3.5333,-3.533,-3.5323,-3.5323,-3.5323,-3.5326,-3.534,-3.534,-3.5445,-3.5537,-3.5531,-3.5591,-3.5666,-3.5797,-3.5916,-3.6005,-3.6005,-3.6005,-3.6005,-3.6005,-3.6005,-3.6005,-3.6005,-3.6005,-3.6005,-3.6007,-3.6007,-3.6007,-3.6009,-3.5997,-3.6001,-3.6001,-3.6009,-3.5992,-3.5992,-3.5992,-3.5992,-3.5992,-3.5992,-3.5992,-3.5992,-3.5992,-3.5992,-3.5992,-3.5992,-3.5992,-3.5992,-3.5992,-3.5992,-3.5992,-4.1094,-4.1074,-4.1073,-4.1087,-4.1106,-4.1091,-4.1052,-4.1074,-4.1091,-4.1052,-4.1054,-4.1055,-4.105,-4.1021,-4.1005,-4.1005,-4.1002,-4.0986,-4.0953,-4.0972,-4.1008,-4.0994,-4.0961,-4.0978,-4.1003,-4.061,-4.0248,-3.9839,-3.8497,-3.7598,-3.7145,-3.6784,-3.6366,-3.5898,-3.5973,-3.5986,-3.5936,-3.5904,-3.5894,-3.5908,-3.5908,-3.5908,-3.5908,-3.5908,-3.5908,-3.5908,-3.5908,-3.5908,-3.5908,-3.5908,-3.5908,-3.5908,-3.5908,-3.5908,-3.5908,-3.5908,-3.5908,-3.5908,-3.5908,-3.5869,-3.5779,-3.563,-3.5579,-3.5496,-3.5297,-3.525,-3.5254,-3.53,-3.5308,-3.5308,-3.5308,-3.5308,-3.5308,-3.5308,-3.5348,-3.539,-3.5388,-3.547,-3.5595,-3.5733,-3.5797,-3.5869,-3.5943,-3.5946,-3.5946,-3.5946,-3.5946,-3.5946,-3.5946,-3.5946,-3.5948,-3.5936,-3.5936,-3.596,-3.6005,-3.6009,-3.5992,-3.5992,-3.6001,-3.6007,-3.5992,-3.5992,-3.5992,-3.5992,-3.5992,-3.5992,-3.5992,-3.5992,-3.5992,-3.5992,-3.5992,-3.5992,-3.5992,-3.5992,-3.5992,-3.5992]},{"header":{"parameterUnit":"m.s-1","parameterCategory":1,"la1":30.6,"la2":28.766,"lo1":-90.7593,"lo2":-88.6598,"dy":0.0162,"dx":0.0183,"nx":116,"ny":114,"refTime":"2023-11-02T00:00:00:Z","depth":0,"parameterNumber":3,"parameterNumberName":"V-component_of_WINDS"},"data":[0.0,0.0,0.0,0.0,0.0,0.0,0.0,0.0,0.0,0.0,0.0,0.0,0.0,0.0,0.0,0.0,0.0,0.0,0.0,0.0,0.0,0.0,0.0,0.0,0.0,0.0,0.0,0.0,0.0,0.0,0.0,0.0,0.0,0.0,0.0,0.0,0.0,0.0,0.0,0.0,0.0,0.0,0.0,0.0,0.0,0.0,0.0,0.0,0.0,0.0,0.0,0.0,0.0,0.0,0.0,0.0,0.0,0.0,0.0,0.0,0.0,0.0,0.0,0.0,0.0,0.0,0.0,0.0,0.0,0.0,0.0,0.0,0.0,0.0,0.0,0.0,0.0,0.0,0.0,0.0,0.0,0.0,0.0,0.0,0.0,0.0,0.0,0.0,0.0,0.0,0.0,0.0,0.0,0.0,0.0,0.0,0.0,0.0,0.0,0.0,0.0,0.0,0.0,0.0,0.0,0.0,0.0,0.0,0.0,0.0,0.0,0.0,0.0,0.0,0.0,0.0,0.0,0.0,0.0,0.0,0.0,0.0,0.0,0.0,0.0,0.0,0.0,0.0,0.0,0.0,0.0,0.0,0.0,0.0,0.0,0.0,0.0,0.0,0.0,0.0,0.0,0.0,0.0,0.0,0.0,0.0,0.0,0.0,0.0,0.0,0.0,0.0,0.0,0.0,0.0,0.0,0.0,0.0,0.0,0.0,0.0,0.0,0.0,0.0,0.0,0.0,0.0,0.0,0.0,0.0,0.0,0.0,0.0,0.0,0.0,0.0,0.0,0.0,0.0,0.0,0.0,0.0,0.0,0.0,0.0,0.0,0.0,0.0,0.0,0.0,0.0,0.0,0.0,0.0,0.0,0.0,0.0,0.0,0.0,0.0,0.0,0.0,0.0,0.0,0.0,0.0,0.0,0.0,0.0,0.0,0.0,0.0,0.0,0.0,0.0,0.0,0.0,0.0,0.0,0.0,0.0,0.0,0.0,0.0,0.0,0.0,0.0,0.0,0.0,0.0,0.0,0.0,0.0,0.0,0.0,0.0,0.0,0.0,0.0,0.0,0.0,0.0,0.0,0.0,0.0,0.0,0.0,0.0,0.0,0.0,0.0,0.0,0.0,0.0,0.0,0.0,0.0,0.0,0.0,0.0,0.0,0.0,0.0,0.0,0.0,0.0,0.0,0.0,0.0,0.0,0.0,0.0,0.0,0.0,0.0,0.0,0.0,0.0,0.0,0.0,0.0,0.0,0.0,0.0,0.0,0.0,0.0,0.0,0.0,0.0,0.0,0.0,0.0,0.0,0.0,0.0,0.0,0.0,0.0,0.0,0.0,0.0,0.0,0.0,0.0,0.0,0.0,0.0,0.0,0.0,0.0,0.0,0.0,0.0,0.0,0.0,0.0,0.0,0.0,0.0,0.0,0.0,0.0,0.0,0.0,0.0,0.0,0.0,0.0,0.0,0.0,0.0,0.0,0.0,0.0,0.0,0.0,0.0,0.0,0.0,0.0,0.0,0.0,0.0,0.0,0.0,0.0,0.0,0.0,0.0,0.0,0.0,0.0,0.0,0.0,0.0,0.0,0.0,0.0,0.0,0.0,0.0,0.0,0.0,0.0,0.0,0.0,0.0,0.0,0.0,0.0,0.0,0.0,0.0,0.0,0.0,0.0,0.0,0.0,0.0,0.0,0.0,0.0,0.0,0.0,0.0,0.0,0.0,0.0,0.0,0.0,0.0,0.0,0.0,0.0,0.0,0.0,0.0,0.0,0.0,0.0,0.0,0.0,0.0,0.0,0.0,0.0,0.0,0.0,0.0,0.0,0.0,0.0,0.0,0.0,0.0,0.0,0.0,0.0,0.0,0.0,0.0,0.0,0.0,0.0,0.0,0.0,0.0,0.0,0.0,0.0,0.0,0.0,0.0,0.0,0.0,0.0,0.0,0.0,0.0,0.0,0.0,0.0,0.0,0.0,0.0,0.0,0.0,0.0,0.0,0.0,0.0,0.0,0.0,0.0,0.0,0.0,0.0,0.0,0.0,0.0,0.0,0.0,0.0,0.0,0.0,0.0,0.0,0.0,0.0,0.0,0.0,0.0,0.0,0.0,0.0,0.0,0.0,0.0,0.0,0.0,0.0,0.0,0.0,0.0,0.0,0.0,0.0,0.0,0.0,0.0,0.0,0.0,0.0,0.0,0.0,0.0,0.0,0.0,0.0,0.0,0.0,0.0,0.0,0.0,0.0,0.0,0.0,0.0,0.0,0.0,0.0,0.0,0.0,0.0,0.0,0.0,0.0,0.0,0.0,0.0,0.0,0.0,0.0,0.0,0.0,0.0,0.0,0.0,0.0,0.0,0.0,0.0,0.0,0.0,0.0,0.0,0.0,0.0,0.0,0.0,0.0,0.0,0.0,0.0,0.0,0.0,0.0,0.0,0.0,0.0,0.0,0.0,0.0,0.0,0.0,0.0,0.0,0.0,0.0,0.0,0.0,0.0,0.0,0.0,0.0,0.0,0.0,0.0,0.0,0.0,0.0,0.0,0.0,0.0,0.0,0.0,0.0,0.0,0.0,0.0,0.0,0.0,0.0,0.0,0.0,0.0,0.0,0.0,0.0,0.0,0.0,0.0,0.0,0.0,0.0,0.0,0.0,0.0,0.0,0.0,0.0,0.0,0.0,0.0,0.0,0.0,0.0,0.0,0.0,0.0,0.0,0.0,0.0,0.0,0.0,0.0,0.0,0.0,0.0,0.0,0.0,0.0,0.0,0.0,0.0,0.0,0.0,0.0,0.0,0.0,0.0,0.0,0.0,0.0,0.0,0.0,0.0,0.0,0.0,0.0,0.0,0.0,0.0,0.0,0.0,0.0,0.0,0.0,0.0,0.0,0.0,0.0,0.0,0.0,0.0,0.0,0.0,0.0,0.0,0.0,0.0,0.0,0.0,0.0,0.0,0.0,0.0,0.0,0.0,0.0,0.0,0.0,0.0,0.0,0.0,0.0,0.0,0.0,0.0,0.0,0.0,0.0,0.0,0.0,0.0,0.0,0.0,0.0,0.0,0.0,0.0,0.0,0.0,0.0,0.0,0.0,0.0,0.0,0.0,0.0,0.0,0.0,0.0,0.0,0.0,0.0,0.0,0.0,0.0,0.0,0.0,0.0,0.0,0.0,0.0,0.0,0.0,0.0,0.0,0.0,0.0,0.0,0.0,0.0,0.0,0.0,0.0,0.0,0.0,0.0,0.0,0.0,0.0,0.0,0.0,0.0,0.0,0.0,0.0,0.0,0.0,0.0,0.0,0.0,0.0,0.0,0.0,0.0,0.0,0.0,0.0,0.0,0.0,0.0,0.0,0.0,0.0,0.0,0.0,0.0,0.0,0.0,0.0,0.0,0.0,0.0,0.0,0.0,0.0,0.0,0.0,0.0,0.0,0.0,0.0,0.0,0.0,0.0,0.0,0.0,0.0,0.0,0.0,0.0,0.0,0.0,0.0,0.0,0.0,0.0,0.0,0.0,0.0,0.0,0.0,0.0,0.0,0.0,0.0,0.0,0.0,0.0,0.0,0.0,0.0,0.0,0.0,0.0,0.0,0.0,0.0,0.0,0.0,0.0,0.0,0.0,0.0,0.0,0.0,0.0,0.0,0.0,0.0,0.0,0.0,0.0,0.0,0.0,0.0,0.0,0.0,0.0,0.0,0.0,0.0,0.0,0.0,0.0,0.0,0.0,0.0,0.0,0.0,0.0,0.0,0.0,0.0,0.0,0.0,0.0,0.0,0.0,0.0,0.0,0.0,0.0,0.0,0.0,0.0,0.0,0.0,0.0,0.0,0.0,0.0,0.0,0.0,0.0,0.0,0.0,0.0,0.0,0.0,0.0,0.0,0.0,0.0,0.0,0.0,0.0,0.0,0.0,0.0,0.0,0.0,0.0,0.0,0.0,0.0,0.0,0.0,0.0,0.0,0.0,0.0,0.0,0.0,0.0,0.0,0.0,0.0,0.0,0.0,0.0,0.0,0.0,0.0,0.0,0.0,0.0,0.0,0.0,0.0,0.0,0.0,0.0,0.0,0.0,0.0,0.0,0.0,0.0,0.0,0.0,0.0,0.0,0.0,0.0,0.0,0.0,0.0,0.0,0.0,0.0,0.0,0.0,0.0,0.0,0.0,0.0,0.0,0.0,0.0,0.0,0.0,0.0,0.0,0.0,0.0,0.0,0.0,0.0,0.0,0.0,0.0,0.0,0.0,0.0,0.0,0.0,0.0,0.0,0.0,0.0,0.0,0.0,0.0,0.0,0.0,0.0,0.0,0.0,0.0,0.0,0.0,0.0,0.0,0.0,0.0,0.0,0.0,0.0,0.0,0.0,0.0,0.0,0.0,0.0,0.0,0.0,0.0,0.0,0.0,0.0,0.0,0.0,0.0,0.0,0.0,0.0,0.0,0.0,0.0,0.0,0.0,0.0,0.0,0.0,0.0,0.0,0.0,0.0,0.0,0.0,0.0,0.0,0.0,0.0,0.0,0.0,0.0,0.0,0.0,0.0,0.0,0.0,0.0,0.0,0.0,0.0,0.0,0.0,0.0,0.0,0.0,0.0,0.0,0.0,0.0,0.0,0.0,0.0,0.0,0.0,0.0,0.0,0.0,0.0,0.0,0.0,0.0,0.0,0.0,0.0,0.0,0.0,0.0,0.0,0.0,0.0,0.0,0.0,0.0,0.0,0.0,0.0,0.0,0.0,0.0,0.0,0.0,0.0,0.0,0.0,0.0,0.0,0.0,0.0,0.0,0.0,0.0,0.0,0.0,0.0,0.0,0.0,0.0,0.0,0.0,0.0,0.0,0.0,0.0,0.0,0.0,0.0,0.0,0.0,0.0,0.0,0.0,0.0,0.0,0.0,0.0,0.0,0.0,0.0,0.0,0.0,0.0,0.0,0.0,0.0,0.0,0.0,0.0,0.0,0.0,0.0,0.0,0.0,0.0,0.0,0.0,0.0,0.0,0.0,0.0,0.0,0.0,0.0,0.0,0.0,0.0,0.0,0.0,0.0,0.0,0.0,0.0,0.0,0.0,0.0,0.0,0.0,0.0,0.0,0.0,0.0,0.0,0.0,0.0,0.0,0.0,0.0,0.0,0.0,0.0,0.0,0.0,0.0,0.0,0.0,0.0,0.0,0.0,0.0,0.0,0.0,0.0,0.0,0.0,0.0,0.0,0.0,0.0,0.0,0.0,0.0,0.0,0.0,0.0,0.0,0.0,0.0,0.0,0.0,0.0,0.0,0.0,0.0,0.0,0.0,0.0,0.0,0.0,0.0,0.0,0.0,0.0,0.0,0.0,0.0,0.0,0.0,0.0,0.0,0.0,0.0,0.0,0.0,0.0,0.0,0.0,0.0,0.0,0.0,0.0,0.0,0.0,0.0,0.0,0.0,0.0,0.0,0.0,0.0,0.0,0.0,0.0,0.0,0.0,0.0,0.0,0.0,0.0,0.0,0.0,0.0,0.0,0.0,0.0,0.0,0.0,0.0,0.0,0.0,0.0,0.0,0.0,0.0,0.0,0.0,0.0,0.0,0.0,0.0,0.0,0.0,0.0,0.0,0.0,0.0,0.0,0.0,0.0,0.0,0.0,0.0,0.0,0.0,0.0,0.0,0.0,0.0,0.0,0.0,0.0,0.0,0.0,0.0,0.0,0.0,0.0,0.0,0.0,0.0,0.0,0.0,0.0,0.0,0.0,0.0,0.0,0.0,0.0,0.0,0.0,0.0,0.0,0.0,0.0,0.0,0.0,0.0,0.0,0.0,0.0,0.0,0.0,0.0,0.0,0.0,0.0,0.0,0.0,0.0,0.0,0.0,0.0,0.0,0.0,0.0,0.0,0.0,0.0,0.0,0.0,0.0,0.0,0.0,0.0,0.0,0.0,0.0,0.0,0.0,0.0,0.0,0.0,0.0,0.0,0.0,0.0,0.0,0.0,0.0,0.0,0.0,0.0,0.0,0.0,0.0,0.0,0.0,0.0,0.0,0.0,0.0,0.0,0.0,0.0,0.0,0.0,0.0,0.0,0.0,0.0,0.0,0.0,0.0,0.0,0.0,0.0,0.0,0.0,0.0,0.0,-1.6663,-1.6408,0.0,0.0,0.0,0.0,0.0,0.0,0.0,0.0,0.0,0.0,0.0,0.0,0.0,0.0,0.0,0.0,0.0,0.0,0.0,0.0,0.0,0.0,0.0,0.0,0.0,0.0,0.0,0.0,0.0,0.0,0.0,0.0,0.0,0.0,0.0,0.0,0.0,0.0,0.0,0.0,0.0,0.0,0.0,0.0,0.0,0.0,0.0,0.0,0.0,0.0,0.0,0.0,0.0,0.0,0.0,0.0,0.0,0.0,0.0,0.0,0.0,0.0,0.0,0.0,0.0,0.0,0.0,0.0,0.0,0.0,0.0,0.0,0.0,0.0,0.0,0.0,0.0,0.0,0.0,0.0,0.0,0.0,0.0,0.0,0.0,0.0,0.0,0.0,0.0,0.0,0.0,0.0,0.0,0.0,0.0,0.0,0.0,0.0,0.0,0.0,0.0,0.0,0.0,0.0,0.0,0.0,0.0,0.0,0.0,0.0,0.0,0.0,0.0,0.0,-1.7276,-1.7097,0.0,0.0,0.0,0.0,0.0,0.0,0.0,0.0,0.0,0.0,0.0,0.0,0.0,0.0,0.0,0.0,0.0,0.0,0.0,0.0,0.0,0.0,0.0,0.0,0.0,0.0,0.0,0.0,0.0,0.0,0.0,0.0,0.0,0.0,0.0,0.0,0.0,0.0,0.0,0.0,0.0,0.0,0.0,0.0,0.0,0.0,0.0,0.0,0.0,0.0,0.0,0.0,0.0,0.0,0.0,0.0,0.0,0.0,0.0,0.0,0.0,0.0,0.0,0.0,0.0,0.0,0.0,0.0,0.0,0.0,0.0,0.0,0.0,0.0,0.0,0.0,0.0,0.0,0.0,0.0,0.0,0.0,0.0,0.0,0.0,0.0,0.0,0.0,0.0,0.0,0.0,0.0,0.0,0.0,0.0,0.0,0.0,0.0,0.0,0.0,0.0,0.0,0.0,0.0,0.0,0.0,0.0,0.0,-1.8701,-1.8562,-1.849,-1.808,-1.7738,-1.7489,-1.7651,-1.7506,-1.724,-1.7857,0.0,0.0,0.0,0.0,0.0,0.0,0.0,0.0,0.0,0.0,0.0,0.0,0.0,0.0,0.0,0.0,0.0,0.0,0.0,0.0,0.0,0.0,-0.3604,-0.3604,-0.3604,-0.3604,0.0,0.0,0.0,0.0,0.0,0.0,0.0,0.0,0.0,0.0,0.0,-0.4981,-0.4542,-0.4587,-0.4831,-0.5272,-0.5214,0.0,0.0,0.0,0.0,0.0,0.0,0.0,0.0,0.0,0.0,0.0,0.0,0.0,0.0,0.0,0.0,0.0,0.0,0.0,0.0,0.0,0.0,0.0,0.0,0.0,0.0,0.0,0.0,0.0,0.0,0.0,0.0,0.0,0.0,0.0,0.0,0.0,0.0,0.0,0.0,0.0,0.0,0.0,-1.6092,-1.6253,0.0,0.0,0.0,0.0,0.0,0.0,0.0,0.0,0.0,0.0,0.0,0.0,0.0,-1.8552,-1.8911,-1.942,-1.9514,-1.9176,-1.9584,-1.9585,-1.9251,-1.8847,-1.8637,-1.8569,-1.797,0.0,-1.7216,-1.7302,0.0,0.0,0.0,0.0,0.0,0.0,0.0,0.0,0.0,0.0,0.0,0.0,0.0,0.0,0.0,0.0,0.0,0.0,0.0,0.0,0.0,-0.3081,-0.349,-0.349,-0.349,-0.349,-0.349,0.0,0.0,0.0,0.0,0.0,0.0,0.0,0.0,0.0,-0.4901,-0.4844,-0.4621,-0.4677,-0.4864,-0.5064,-0.5064,-0.5161,-0.5254,-0.4736,0.0,0.0,0.0,0.0,0.0,0.0,0.0,0.0,0.0,0.0,0.0,0.0,0.0,0.0,0.0,0.0,0.0,0.0,0.0,0.0,0.0,0.0,0.0,0.0,0.0,0.0,0.0,0.0,0.0,0.0,0.0,0.0,0.0,0.0,0.0,0.0,0.0,0.0,0.0,-1.6064,-1.6423,-1.6725,-1.7271,-1.7697,0.0,0.0,0.0,0.0,0.0,0.0,0.0,0.0,0.0,-1.9194,-1.9021,-1.9108,-1.9513,-1.9851,-2.004,-2.0104,-2.0143,-2.0074,-1.9904,-1.9481,-1.9132,-1.8853,-1.8508,-1.8123,-1.772,-1.7786,-1.7852,-1.7981,0.0,0.0,0.0,0.0,-1.7677,-1.7435,0.0,0.0,0.0,0.0,0.0,0.0,0.0,0.0,0.0,0.0,0.0,0.0,-0.1854,-0.2568,-0.3081,-0.3214,-0.3262,-0.3328,-0.3442,0.0,0.0,0.0,0.0,0.0,0.0,0.0,0.0,-0.4549,-0.4674,-0.4748,-0.4752,-0.4867,-0.4887,-0.4887,-0.4887,-0.5004,-0.5127,-0.4713,-0.4525,0.0,0.0,0.0,0.0,0.0,0.0,0.0,0.0,0.0,0.0,0.0,0.0,0.0,0.0,0.0,0.0,0.0,0.0,0.0,0.0,0.0,0.0,0.0,0.0,0.0,0.0,0.0,0.0,0.0,0.0,0.0,0.0,0.0,0.0,0.0,0.0,0.0,0.0,-1.6277,-1.6609,-1.6985,-1.7471,-1.7897,0.0,0.0,0.0,0.0,0.0,0.0,-1.9605,-1.9913,-1.9988,-1.9799,-1.9692,-1.9801,-2.0239,-2.0316,-2.0416,-2.0538,-2.037,-2.0146,-1.9866,-1.9766,-1.9441,-1.8936,-1.8977,-1.88,-1.849,-1.8324,-1.8182,-1.8166,-1.8801,-1.8615,-1.7958,-1.7998,-1.7774,-1.744,0.0,0.0,0.0,0.0,0.0,0.0,0.0,0.0,0.0,0.0,0.0,-0.1298,-0.1164,-0.1698,-0.2253,-0.2696,-0.2854,-0.3126,-0.3556,-0.3604,-0.3662,0.0,0.0,0.0,0.0,0.0,0.0,-0.4677,-0.4833,-0.4877,-0.4877,-0.4884,-0.4887,-0.4887,-0.4887,-0.483,-0.4738,-0.4706,-0.4624,-0.4491,0.0,0.0,0.0,0.0,0.0,0.0,0.0,0.0,0.0,0.0,0.0,0.0,0.0,0.0,0.0,0.0,0.0,0.0,0.0,0.0,0.0,0.0,0.0,0.0,0.0,0.0,0.0,0.0,0.0,0.0,0.0,0.0,0.0,0.0,0.0,0.0,0.0,0.0,0.0,-1.6623,-1.7443,0.0,0.0,0.0,0.0,-1.9384,-1.9851,-2.0158,-2.0155,-2.0242,-2.0437,-2.0795,-2.0437,-2.0437,-2.0851,-2.0848,-2.0531,-1.986,-2.0163,-1.9737,-1.8698,-1.938,-1.9477,-1.9093,-1.9175,-1.9354,-1.9539,-1.8524,-1.8111,-1.8084,-1.8139,-1.8127,-1.8104,-1.8104,-1.8093,-1.807,0.0,0.0,0.0,0.0,0.0,0.0,0.0,0.0,0.0,-0.0202,-0.0762,-0.1164,-0.1097,-0.1564,-0.2053,-0.2524,-0.2704,-0.3007,-0.3556,-0.3674,-0.3782,0.0,0.0,0.0,0.0,0.0,-0.484,-0.484,-0.5084,-0.5235,-0.5238,-0.5396,-0.5488,-0.5488,-0.5488,-0.5352,-0.5139,-0.4918,-0.4748,-0.4666,-0.5061,-0.5134,0.0,0.0,0.0,0.0,0.0,0.0,0.0,0.0,0.0,0.0,0.0,0.0,0.0,0.0,0.0,0.0,0.0,0.0,0.0,0.0,0.0,0.0,0.0,0.0,0.0,0.0,0.0,0.0,0.0,0.0,0.0,0.0,0.0,0.0,0.0,0.0,0.0,-1.7538,-1.7866,0.0,-1.8898,-1.903,-1.9333,-1.9945,-2.0177,-2.0144,-1.9893,-2.015,-2.0245,-2.0123,-1.9989,-2.0247,-2.0967,-2.1043,-2.1263,-2.1596,-2.1754,-2.1497,-2.0864,-2.1049,-2.0624,-1.9731,-1.9691,-1.9409,-1.8958,-1.8574,-1.8693,-1.9137,-1.9137,-1.8931,-1.8621,-1.8621,-1.8398,-1.8084,0.0,0.0,0.0,0.0,0.0,0.0,0.0,0.0,0.0,-0.0135,-0.0516,-0.0784,-0.0739,-0.1097,-0.1587,-0.2212,-0.247,-0.2889,-0.356,-0.3771,-0.3933,0.0,-0.4311,0.0,0.0,-0.4965,-0.5067,-0.5067,-0.5399,-0.5542,-0.5549,-0.5708,-0.58,-0.58,-0.58,-0.5691,-0.5532,-0.5301,-0.5043,-0.4798,-0.5207,-0.5247,-0.5135,0.0,0.0,0.0,0.0,0.0,0.0,0.0,0.0,0.0,0.0,0.0,0.0,0.0,0.0,0.0,0.0,0.0,0.0,0.0,0.0,0.0,0.0,0.0,0.0,0.0,0.0,0.0,0.0,0.0,0.0,0.0,0.0,0.0,0.0,-1.7634,-1.7829,-1.8306,-1.8364,-1.8682,-1.9491,-1.9333,-1.9443,-2.0059,-2.0399,-2.0479,-2.0212,-2.0787,-2.0973,-2.073,-2.0699,-2.1004,-2.1569,-2.1663,-2.1945,-2.2457,-2.2625,-2.2434,-2.193,-2.2094,-2.1664,-2.082,-2.0695,-2.0307,-1.9765,-1.9638,-1.986,-2.0245,-1.958,-1.9195,-1.8965,-1.8965,-1.8828,-1.8639,0.0,0.0,0.0,0.0,0.0,0.0,0.0,0.0,-0.0157,-0.0022,-0.0112,-0.0135,-0.0022,-0.0247,-0.0785,-0.1722,-0.2158,-0.2734,-0.3562,-0.3853,-0.4062,0.0,0.0,0.0,-0.4904,-0.5252,-0.5402,-0.5409,-0.5667,-0.581,-0.581,-0.5813,-0.5817,-0.5817,-0.5817,-0.5813,-0.581,-0.581,-0.5474,-0.4914,-0.4908,-0.484,-0.4755,0.0,0.0,0.0,0.0,0.0,0.0,0.0,0.0,0.0,0.0,0.0,0.0,0.0,0.0,0.0,0.0,0.0,0.0,0.0,0.0,0.0,0.0,0.0,0.0,0.0,0.0,0.0,0.0,0.0,0.0,0.0,0.0,0.0,-1.8052,-1.8107,-1.8318,-1.885,-1.8919,-1.9137,-1.9688,-1.9734,-1.9757,-1.978,-2.0707,-2.1247,-2.1247,-2.2178,-2.2719,-2.2719,-2.2719,-2.2719,-2.273,-2.273,-2.2583,-2.2262,-2.2594,-2.2377,-2.1697,-2.2388,-2.2537,-2.2205,-2.2136,-2.2091,-2.2045,-2.1629,-2.1455,-2.127,-1.9411,-1.8874,-1.9111,-1.9119,-1.9339,-1.9688,0.0,0.0,0.0,0.0,0.0,0.0,0.0,-0.0022,-0.0045,0.0,-0.0022,-0.0045,0.0,-0.0247,-0.0817,-0.1864,-0.2043,-0.2649,-0.394,-0.4066,0.0,0.0,0.0,0.0,-0.5269,-0.546,-0.5579,-0.5681,-0.5874,-0.5929,-0.5932,-0.6081,-0.6173,-0.6173,-0.6173,-0.6071,-0.5929,-0.5929,-0.581,-0.5538,-0.5325,-0.5084,-0.4857,0.0,0.0,0.0,0.0,0.0,0.0,0.0,0.0,0.0,0.0,0.0,0.0,0.0,0.0,0.0,0.0,0.0,0.0,0.0,0.0,0.0,0.0,0.0,0.0,0.0,0.0,0.0,0.0,0.0,0.0,0.0,-1.7448,-1.8498,-1.8662,-1.869,-1.8885,-1.9413,-1.947,-1.9815,-2.0707,-2.0787,-2.1098,-2.1801,-2.2144,-2.2293,-2.2293,-2.2558,-2.2719,-2.2719,-2.2719,-2.2857,-2.3189,-2.3201,-2.3349,-2.3644,-2.374,-2.3525,-2.307,-2.315,-2.2874,-2.224,-2.1899,-2.157,-2.1269,-2.0882,-2.0705,-2.0656,-2.032,-2.0041,-1.9798,-1.9436,-1.9299,-1.9257,0.0,0.0,0.0,0.0,0.0,0.0,0.0,0.0,0.0,0.0,0.0,0.0,0.0,-0.018,-0.0753,-0.1822,-0.2029,-0.265,-0.3938,-0.4194,0.0,0.0,0.0,-0.5365,-0.5487,-0.5664,-0.5817,-0.5895,-0.6051,-0.6156,-0.6217,-0.6347,-0.6422,-0.648,-0.6419,-0.6337,-0.6213,-0.6152,-0.6037,-0.5881,-0.5708,-0.5426,-0.5098,-0.5002,-0.5127,-0.5306,-0.5235,-0.5543,-0.5994,-0.6264,0.0,0.0,0.0,0.0,0.0,0.0,0.0,0.0,0.0,0.0,0.0,0.0,0.0,0.0,0.0,0.0,0.0,0.0,0.0,0.0,0.0,0.0,0.0,0.0,-1.7228,-1.836,-1.8977,-1.9169,-1.9493,-2.0247,-2.0339,-2.073,-2.173,-2.1834,-2.2075,-2.2673,-2.288,-2.2995,-2.2995,-2.3201,-2.3316,-2.3316,-2.3316,-2.3465,-2.3717,-2.3728,-2.3794,-2.3934,-2.3934,-2.3751,-2.3361,-2.3265,-2.2986,-2.2564,-2.2291,-2.2063,-2.179,-2.1391,-2.1256,-2.1183,0.0,0.0,0.0,0.0,-2.0356,-2.0145,0.0,0.0,0.0,0.0,0.0,0.0,0.0,0.0,0.0,0.0,0.0,0.0,0.0,-0.0112,-0.0639,-0.1726,-0.2034,-0.2639,-0.3771,0.0,0.0,-0.5123,-0.5433,-0.5596,-0.5613,-0.5888,-0.6,-0.602,-0.621,-0.6388,-0.6511,-0.6528,-0.6569,-0.6695,-0.6559,-0.6528,-0.6504,-0.6378,-0.6196,-0.6016,-0.6,-0.5772,-0.5405,-0.5233,-0.5052,-0.4891,-0.4772,-0.5053,-0.5469,-0.5341,0.0,0.0,0.0,0.0,0.0,0.0,0.0,0.0,0.0,0.0,0.0,0.0,0.0,0.0,0.0,0.0,0.0,0.0,0.0,0.0,0.0,0.0,0.0,0.0,-1.6749,-1.7797,-1.8965,-1.9655,-2.0331,-2.1178,-2.1296,-2.1676,-2.2673,-2.2731,-2.2754,-2.2846,-2.3235,-2.3488,-2.3488,-2.3959,0.0,0.0,0.0,-2.4189,-2.4116,-2.4127,-2.3934,-2.353,-2.353,-2.3335,-2.3001,-2.3001,-2.3001,-2.3001,-2.2964,-2.2927,-2.2889,-2.2515,-2.2327,-2.2205,-2.0943,-2.0945,-2.1616,-2.1883,-2.1803,-2.1629,0.0,0.0,0.0,0.0,0.0,0.0,0.0,0.0,0.0,0.0,0.0,0.0,0.0,-0.0112,-0.0684,-0.1869,-0.1912,-0.2543,0.0,0.0,-0.4832,-0.5311,-0.5494,-0.5644,-0.5755,-0.5935,-0.6091,-0.6255,-0.6402,-0.6484,-0.6515,-0.66,-0.6671,-0.6698,-0.6668,-0.6586,-0.6511,-0.648,-0.6388,-0.6245,-0.6078,-0.5833,-0.5542,-0.5511,-0.5332,-0.5039,-0.4894,-0.4855,-0.4923,-0.5203,-0.5386,-0.5632,-0.662,-0.7004,0.0,0.0,0.0,0.0,0.0,0.0,0.0,0.0,0.0,0.0,0.0,0.0,0.0,0.0,0.0,0.0,0.0,0.0,0.0,-1.5314,-1.757,-1.8974,-1.8124,-2.0388,-2.2019,-2.1801,-2.1867,-2.2275,-2.3166,-2.2966,-2.31,-2.3831,-2.3994,-2.4051,-2.4051,-2.4143,-2.42,-2.42,-2.42,-2.4043,-2.3714,-2.3714,-2.3519,-2.3113,-2.3113,0.0,-2.3001,-2.3001,-2.3001,-2.2964,-2.2665,-2.2515,-2.2478,-2.2063,-2.1921,-2.1859,-2.1197,-2.121,-2.1583,-2.1304,-2.1559,-2.2033,0.0,0.0,0.0,0.0,0.0,0.0,0.0,0.0,0.0,0.0,0.0,0.0,0.0,-0.0269,-0.0842,-0.182,-0.2451,0.0,0.0,-0.4476,-0.4781,-0.5243,-0.5535,-0.5728,-0.58,-0.6027,-0.6183,-0.63,-0.6371,-0.648,-0.6586,-0.6664,-0.6742,-0.681,-0.6732,-0.6617,-0.6508,-0.6436,-0.6364,-0.6293,-0.6176,-0.5966,-0.5688,-0.5616,-0.5447,-0.5226,-0.5046,-0.4897,-0.4812,-0.4969,-0.5135,-0.5418,-0.6014,-0.662,-0.7166,0.0,0.0,0.0,0.0,0.0,0.0,0.0,0.0,0.0,0.0,0.0,0.0,0.0,0.0,-1.3924,-1.4287,0.0,-1.5217,-1.5668,-1.7441,-1.864,-1.8354,-2.0261,-2.1718,-2.1744,-2.2338,-2.2943,-2.3442,-2.3487,-2.3709,-2.4177,-2.42,-2.42,-2.42,-2.42,-2.42,-2.42,-2.4007,-2.3787,-2.3593,-2.3409,-2.3113,-2.2703,-2.2703,-2.259,-2.2402,-2.2402,-2.2402,-2.2402,-2.2402,-2.2402,-2.2365,-2.2176,-2.2101,-2.2042,-2.1408,-2.1507,-2.2017,-2.2233,-2.2424,-2.259,0.0,0.0,0.0,0.0,0.0,0.0,0.0,0.0,0.0,0.0,0.0,-0.0045,-0.0135,-0.047,-0.1023,-0.1869,-0.3064,0.0,0.0,-0.4436,-0.4722,-0.5036,-0.5501,-0.5772,-0.58,-0.6074,-0.6269,-0.63,-0.6327,-0.6463,-0.6658,-0.6685,-0.6766,-0.6836,-0.6756,-0.6617,-0.6504,-0.6388,-0.6323,-0.6296,-0.6269,-0.6047,-0.5786,-0.5644,-0.5528,-0.5375,-0.5186,-0.5009,-0.4867,-0.4741,-0.4982,-0.5308,-0.5441,-0.6236,-0.7112,-0.7219,-0.7574,0.0,0.0,0.0,0.0,0.0,0.0,0.0,0.0,-1.306,-1.3185,-1.3545,-1.3879,-1.4208,-1.4481,-1.4783,-1.5277,-1.6228,-1.7204,-1.8049,-1.86,-1.9875,-2.089,-2.1123,-2.2135,-2.3036,-2.3559,-2.3703,-2.3922,-2.4189,-2.4127,-2.4116,-2.42,-2.4043,-2.4007,-2.408,-2.3677,-2.3446,-2.3372,-2.3038,-2.2665,-2.2289,-2.2289,-2.2101,-2.1807,-2.1807,-2.1807,-2.1807,-2.2138,-2.2289,-2.2289,-2.2289,-2.2289,-2.2225,-2.1655,-2.1769,-2.2365,-2.2916,-2.299,-2.2804,0.0,0.0,0.0,0.0,0.0,0.0,0.0,0.0,0.0,0.0,0.0,-0.0157,-0.0582,-0.0671,-0.116,-0.2322,0.0,0.0,-0.4002,-0.4325,-0.4624,-0.4912,-0.5376,-0.5674,-0.5796,-0.5969,-0.6122,-0.63,-0.6426,-0.6504,-0.6542,-0.6637,-0.6709,-0.6725,-0.6709,-0.6617,-0.6511,-0.6494,-0.6416,-0.6286,-0.6112,-0.5952,-0.5786,-0.5644,-0.5528,-0.5375,-0.5186,-0.5009,-0.4867,-0.4741,-0.4982,-0.5386,-0.5937,-0.6561,-0.7192,-0.7681,-0.7848,-0.7901,-0.7901,-0.8891,-1.0159,-1.105,-1.2069,-1.2906,0.0,-1.322,-1.3562,-1.3947,-1.4067,-1.4371,-1.5217,-1.5264,-1.5472,-1.6409,-1.7615,-1.8304,-1.7973,-1.9745,-2.0689,-1.969,-2.0323,-2.1559,-2.3434,-2.283,-2.2857,-2.4116,-2.3861,-2.3824,-2.4189,-2.3519,-2.3298,-2.3677,-2.3261,-2.2889,-2.2553,-2.2478,-2.2252,-2.1883,-2.1883,-2.1845,-2.1807,-2.1807,-2.1807,-2.1807,-2.1845,-2.1883,-2.1883,-2.1883,-2.1883,-2.1883,-2.2138,-2.2101,-2.1835,-2.1558,-2.1652,-2.188,0.0,0.0,0.0,0.0,0.0,0.0,0.0,0.0,0.0,0.0,0.0,-0.0067,-0.0269,-0.085,-0.1658,0.0,0.0,0.0,-0.3761,-0.413,-0.4399,-0.4597,-0.5062,-0.5385,-0.5495,-0.5748,-0.5973,-0.6125,-0.6186,-0.6302,-0.6515,-0.6536,-0.6566,-0.6566,-0.6566,-0.6525,-0.6388,-0.6388,-0.63,-0.6122,-0.602,-0.5888,-0.5671,-0.5613,-0.5528,-0.5385,-0.532,-0.5424,0.0,0.0,-0.5615,-0.6532,-0.6274,-0.6837,-0.7601,-0.7821,-0.8009,-0.8242,-0.8807,-0.9687,-1.0645,-1.1579,-1.2402,-1.306,-1.3237,-1.3579,-1.3896,-1.4067,-1.4444,-1.4846,-1.5265,-1.5644,-1.6089,-1.6667,-1.7526,-1.8107,-1.8145,-1.8946,-1.9471,-1.9341,-1.9164,-2.0002,-2.2483,-2.2644,-2.3065,-2.4116,-2.4043,-2.3934,-2.3861,-2.353,-2.3335,-2.3261,-2.2852,-2.2553,-2.2402,-2.2176,-2.1959,-2.1807,-2.1807,-2.1807,-2.1807,-2.1807,-2.1807,-2.1807,-2.1807,-2.1807,-2.1807,-2.1807,-2.1807,-2.1759,-2.129,-2.1021,-2.0944,-2.1634,-2.1852,-2.1766,0.0,0.0,0.0,0.0,0.0,0.0,0.0,0.0,0.0,0.0,0.0,0.0,0.0,-0.114,-0.2058,0.0,0.0,0.0,0.0,-0.3947,-0.4242,-0.4338,-0.4795,-0.5133,-0.5313,-0.5559,-0.5745,-0.5929,-0.5929,-0.6078,-0.6327,-0.6327,-0.6327,-0.6327,-0.6327,-0.6269,-0.617,-0.617,-0.6071,-0.5925,-0.5888,-0.5779,-0.5583,-0.5498,-0.5393,-0.533,-0.533,-0.5649,0.0,-0.5325,-0.6118,-0.7278,-0.6638,-0.7112,-0.7913,-0.7991,-0.8195,-0.8567,-0.9321,-0.9978,-1.0697,-1.1696,-1.2495,-1.3139,-1.3583,-1.3973,-1.429,-1.4384,-1.4838,-1.5215,-1.536,-1.5944,-1.651,-1.6858,-1.7351,-1.7848,-1.823,-1.8282,-1.8434,-1.8904,-1.8434,-1.8975,-2.1211,-2.2059,-2.282,-2.3728,-2.3849,-2.3666,-2.3213,-2.3139,-2.3001,-2.2852,-2.244,-2.2214,-2.2214,-2.1959,-2.1807,-2.1807,-2.1807,-2.1807,-2.1807,-2.1807,-2.1807,-2.1807,-2.1807,-2.1807,-2.1807,-2.1807,-2.1807,-2.1721,-2.0944,-2.0479,-2.0313,-2.1395,-2.1433,-2.0962,0.0,0.0,0.0,0.0,0.0,0.0,0.0,0.0,0.0,0.0,0.0,0.0,0.0,0.0,-0.2281,0.0,0.0,0.0,0.0,-0.3915,-0.4203,-0.4206,-0.4668,-0.5055,-0.5399,-0.5341,-0.5485,-0.581,-0.581,-0.5813,-0.5823,-0.5823,-0.5823,-0.5823,-0.5823,-0.582,-0.5817,-0.5817,-0.5813,-0.5796,-0.5657,-0.5599,-0.5559,-0.5224,-0.511,-0.5106,-0.5106,0.0,-0.5787,-0.5619,-0.6253,-0.7117,-0.7085,-0.7467,-0.7949,-0.8201,-0.8487,-0.8752,-0.9047,-0.9595,-1.0353,-1.1267,-1.2311,-1.3283,-1.395,-1.4384,-1.4761,-1.5112,-1.5163,-1.5334,-1.5711,-1.6132,-1.651,-1.6858,-1.7227,-1.7643,-1.794,-1.7991,-1.804,-1.804,-1.8241,-1.8754,-1.9599,-2.0575,-2.16,-2.266,-2.2942,-2.2767,-2.2172,-2.1977,-2.2035,-2.2402,-2.2035,-2.1807,-2.1807,-2.1807,-2.1807,-2.1807,-2.1807,-2.1807,-2.1807,-2.1807,-2.1807,-2.1807,-2.1807,-2.1807,-2.1807,-2.1807,-2.1807,-2.1807,-2.1769,-2.1136,-2.0206,-2.0245,-1.9627,-1.8812,0.0,0.0,0.0,0.0,0.0,0.0,0.0,0.0,0.0,0.0,0.0,0.0,0.0,0.0,0.0,0.0,-0.2553,0.0,0.0,-0.3608,-0.3893,-0.407,-0.4298,-0.4574,-0.4869,-0.5077,-0.5289,-0.5542,-0.561,-0.5708,-0.58,-0.58,-0.58,-0.58,-0.58,-0.58,-0.58,-0.58,-0.5688,-0.5539,-0.5491,-0.5321,-0.5131,-0.4999,-0.4958,-0.5006,0.0,0.0,-0.6437,-0.622,-0.693,-0.7793,-0.7269,-0.7602,-0.8243,-0.871,-0.8896,-0.9114,-0.9849,-1.0176,-1.0711,-1.2177,-1.2415,-1.2697,-1.416,-1.4405,-1.4451,-1.5087,-1.542,-1.572,-1.6132,-1.6473,-1.685,-1.7227,-1.7603,-1.7846,-1.7974,-1.8,-1.8,-1.8,-1.808,-1.8505,-1.9481,-2.0012,-2.0653,-2.1562,-2.2124,-2.1983,-2.1086,-2.1423,-2.1357,-2.076,-2.1049,-2.1213,-2.1213,-2.1606,-2.1807,-2.1807,-2.1807,-2.1807,-2.1807,-2.1807,-2.1807,-2.1807,-2.1807,-2.1807,-2.1807,-2.1807,-2.1807,-2.1721,-2.0857,-2.0304,-1.9913,-1.9054,-1.8514,-1.8282,0.0,0.0,0.0,0.0,0.0,0.0,0.0,0.0,0.0,0.0,0.0,0.0,0.0,0.0,0.0,0.0,0.0,-0.2558,0.0,0.0,-0.363,-0.3853,-0.3982,-0.4222,-0.4569,-0.4743,-0.4984,-0.5235,-0.5301,-0.5396,-0.5484,-0.5484,-0.5484,-0.5484,-0.5484,-0.5484,-0.5484,-0.5484,-0.5406,-0.5274,-0.5255,-0.5118,-0.4951,-0.4877,-0.484,0.0,0.0,-0.6155,-0.6587,-0.6624,-0.7311,-0.8068,-0.7539,-0.7865,-0.8542,-0.8969,-0.9167,-0.9375,-0.9964,-1.0213,-1.0619,-1.1963,-1.2328,-1.2725,-1.4171,-1.461,-1.4831,-1.5316,-1.5625,-1.5874,-1.615,-1.6501,-1.6841,-1.7209,-1.7586,-1.7837,-1.7974,-1.8,-1.8,-1.8,-1.8,-1.8273,-1.8975,-1.9164,-1.958,-2.0498,-2.1153,-2.1048,-2.0012,-2.0566,-2.0605,-1.9943,-2.0684,-2.1124,-2.1124,-2.189,-2.2304,-2.2304,-2.2304,-2.2304,-2.2304,-2.2304,-2.2177,-2.1893,-2.1893,-2.1776,-2.154,-2.154,-2.154,-2.1461,-2.0648,-2.0198,-1.9857,-1.8882,-1.8391,-1.8252,0.0,0.0,0.0,0.0,0.0,0.0,0.0,0.0,0.0,0.0,0.0,0.0,0.0,0.0,0.0,0.0,0.0,0.0,0.0,0.0,0.0,-0.3567,-0.3714,-0.3992,-0.4464,-0.4415,-0.4562,-0.4867,-0.4874,-0.4881,-0.4887,-0.4887,-0.4887,-0.4887,-0.4887,-0.4887,-0.4887,-0.4887,-0.4961,-0.5066,-0.4931,-0.4951,-0.5032,-0.4785,0.0,0.0,0.0,-0.6209,-0.629,-0.6918,-0.7467,-0.7907,-0.7931,-0.8279,-0.8764,-0.9041,-0.9306,-0.9516,-0.9516,-0.9709,-1.0068,-1.0771,-1.1976,-1.3204,-1.3924,-1.493,-1.5726,-1.5726,-1.5761,-1.5805,-1.5822,-1.615,-1.6519,-1.6884,-1.7235,-1.7603,-1.794,-1.8,-1.8,-1.8,-1.8,-1.8,-1.8,-1.8,-1.8425,-1.9441,-2.009,-1.9972,-1.8993,-1.9539,-1.9854,-1.9814,-2.0867,-2.1451,-2.1491,-2.2635,-2.3184,-2.3184,-2.3184,-2.3184,-2.3184,-2.3143,-2.2768,-2.2093,-2.2052,-2.169,-2.1117,-2.1117,-2.1117,-2.1117,-2.1076,-2.0647,-2.0045,-1.965,-1.9103,-1.8604,0.0,0.0,0.0,0.0,0.0,0.0,0.0,0.0,0.0,0.0,0.0,0.0,0.0,0.0,0.0,0.0,0.0,0.0,0.0,0.0,0.0,0.0,0.0,0.0,0.0,0.0,0.0,-0.4607,-0.4694,-0.4806,-0.4887,-0.4887,-0.4887,-0.4887,-0.4887,-0.4887,-0.4887,-0.4887,-0.4874,-0.4799,0.0,-0.4704,-0.4651,0.0,0.0,0.0,0.0,-0.6209,-0.6344,-0.7354,-0.7794,-0.7967,-0.8357,-0.8602,-0.88,-0.9269,-0.9462,-0.9516,-0.9516,-0.9709,-1.0117,-1.1108,-1.1791,-1.2451,-1.343,-1.4303,-1.4903,-1.4903,-1.539,-1.5882,-1.6112,-1.6313,-1.6604,-1.7218,-1.7445,-1.7603,-1.794,-1.8,-1.8,-1.8,-1.8,-1.8,-1.8,-1.8,-1.8112,-1.8385,-1.9015,-1.9063,-1.8322,-1.9093,-1.9408,-1.8968,-1.9929,-2.0721,-2.1259,-2.2544,-2.3184,-2.3184,-2.3184,-2.3184,-2.3184,-2.2645,-2.2267,-2.2062,-2.1566,-2.1243,-2.1117,-2.1117,-2.1117,-2.1034,-2.0563,-2.0259,-2.0039,-1.9475,-1.9195,-1.9016,0.0,0.0,0.0,0.0,0.0,0.0,0.0,0.0,0.0,0.0,0.0,0.0,0.0,0.0,0.0,0.0,0.0,0.0,0.0,0.0,0.0,0.0,0.0,0.0,0.0,0.0,0.0,0.0,0.0,0.0,-0.4496,-0.4564,-0.4594,-0.4597,-0.4691,-0.4718,-0.4718,-0.4718,0.0,0.0,0.0,0.0,0.0,0.0,0.0,0.0,0.0,-0.6534,-0.7052,-0.7681,-0.7901,-0.7991,-0.8542,-0.871,-0.8812,-0.936,-0.9516,-0.9516,-0.9516,-0.9709,-1.0068,-1.0797,-1.1434,-1.2087,-1.2816,-1.3712,-1.4387,-1.4387,-1.4884,-1.542,-1.5771,-1.5848,-1.6096,-1.685,-1.7115,-1.7355,-1.7732,-1.7897,-1.8,-1.8,-1.8,-1.8,-1.8,-1.8,-1.8,-1.8,-1.8362,-1.8402,-1.804,-1.8702,-1.8952,-1.8629,-1.98,-2.0989,-2.22,-2.3274,-2.3784,-2.3784,-2.3784,-2.3618,-2.3326,-2.2886,-2.237,-2.1764,-2.1388,-2.1053,-2.075,-2.075,-2.075,-2.0706,-2.0315,-2.0175,-2.0114,-1.9609,-1.9427,-1.9367,0.0,0.0,0.0,0.0,0.0,0.0,0.0,0.0,0.0,0.0,0.0,0.0,0.0,0.0,0.0,0.0,0.0,0.0,0.0,0.0,0.0,0.0,0.0,0.0,0.0,0.0,0.0,0.0,0.0,0.0,0.0,0.0,0.0,0.0,0.0,0.0,0.0,0.0,0.0,0.0,0.0,0.0,0.0,0.0,0.0,0.0,-0.58,-0.6864,-0.7788,-0.7875,-0.7901,-0.7985,-0.8506,-0.868,-0.8806,-0.9312,-0.9486,-0.9516,-0.9516,-0.9709,-0.9961,-1.019,-1.1032,-1.187,-1.2022,-1.309,-1.4011,-1.3899,-1.4253,-1.4696,-1.5112,-1.5146,-1.535,-1.6171,-1.6582,-1.6995,-1.7445,-1.7749,-1.794,-1.7991,-1.8,-1.8,-1.8,-1.8,-1.8,-1.8,-1.8,-1.8,-1.8,-1.8434,-1.8708,-1.8811,-2.0232,-2.1758,-2.3363,-2.4024,-2.4411,-2.4497,-2.4315,-2.397,-2.3503,-2.3319,-2.2564,-2.1401,-2.1311,-2.0871,-2.0292,-2.0292,-2.0292,-2.0292,-2.0292,-2.0292,-2.0249,-1.9888,-1.9776,-1.9717,0.0,0.0,0.0,0.0,0.0,0.0,0.0,0.0,0.0,0.0,0.0,0.0,0.0,0.0,0.0,0.0,0.0,0.0,0.0,0.0,0.0,0.0,0.0,0.0,0.0,-0.3455,-0.3592,-0.3832,-0.3832,0.0,0.0,0.0,0.0,0.0,0.0,0.0,0.0,0.0,0.0,0.0,0.0,0.0,0.0,0.0,0.0,0.0,-0.58,-0.6588,-0.7155,0.0,-0.7901,-0.7955,-0.8261,-0.853,-0.877,-0.9077,-0.9336,-0.9516,-0.9516,-0.9709,-0.9913,-0.9961,-1.0774,-1.14,-1.0798,-1.2287,-1.3579,-1.2916,-1.3357,-1.4147,-1.5044,-1.4754,-1.4813,-1.6099,-1.6396,-1.6724,-1.7411,-1.7565,-1.768,-1.7957,-1.8,-1.8,-1.8,-1.8,-1.8,-1.8,-1.8,-1.8,-1.8,-1.8699,-1.9358,-1.9975,-2.1388,-2.2284,-2.258,-2.3309,-2.3937,-2.4497,-2.3333,-2.3028,-2.346,-2.229,-2.1624,-2.1356,-2.0781,-2.0428,-2.0292,-2.0292,-2.0292,-2.0292,-2.0292,-2.0292,-2.0283,-2.0223,-2.0198,-2.0146,0.0,0.0,0.0,0.0,0.0,0.0,0.0,0.0,0.0,0.0,0.0,0.0,0.0,0.0,0.0,0.0,0.0,0.0,0.0,0.0,0.0,0.0,0.0,0.0,0.0,-0.3195,-0.3452,-0.3589,0.0,-0.3721,-0.3792,-0.3866,-0.39,-0.3904,-0.396,-0.3994,-0.3994,0.0,0.0,-0.3994,-0.3994,-0.4038,0.0,0.0,0.0,0.0,0.0,-0.6172,-0.6961,-0.7268,-0.7595,-0.7949,-0.8207,-0.8493,-0.8758,-0.9017,-0.9293,-0.9516,-0.9516,-0.9606,-0.9739,-0.9871,-1.0294,-1.0594,-1.0366,-1.1566,-1.2651,-1.2281,-1.2662,-1.3461,-1.4696,-1.4387,-1.4413,-1.5827,-1.6261,-1.6579,-1.7098,-1.7385,-1.7612,-1.7948,-1.8,-1.8,-1.8,-1.8,-1.8,-1.8,-1.8,-1.8,-1.8,-1.8759,-1.9521,-2.0266,-2.1347,-2.1872,-2.1872,-2.2589,-2.3071,-2.3377,-2.2711,-2.2403,-2.2378,-2.1713,-2.1177,-2.0826,-2.0473,-2.0292,-2.0292,-2.0292,-2.0292,-2.0292,-2.0292,-2.0292,-2.0292,-2.0292,-2.0292,-2.0266,0.0,0.0,0.0,0.0,0.0,0.0,0.0,0.0,0.0,0.0,0.0,0.0,0.0,0.0,0.0,0.0,0.0,0.0,0.0,0.0,0.0,0.0,0.0,0.0,0.0,0.0,0.0,-0.335,-0.349,0.0,0.0,0.0,0.0,0.0,-0.3873,-0.3924,-0.39,-0.3875,-0.3875,0.0,0.0,-0.3871,0.0,0.0,0.0,0.0,0.0,-0.5764,-0.6691,-0.6853,-0.7321,-0.7904,-0.8141,-0.8387,-0.8674,-0.8939,-0.9209,-0.9438,-0.9498,-0.9516,-0.9564,-0.9769,-0.9823,-0.9877,-1.0081,-1.1016,-1.1815,-1.1815,-1.2077,-1.2734,-1.4163,-1.3933,-1.3924,-1.5309,-1.5965,-1.6398,-1.6701,-1.7115,-1.7492,-1.7829,-1.7948,-1.8,-1.8,-1.8,-1.8,-1.8,-1.8,-1.8068,-1.823,-1.8845,-1.9521,-2.0266,-2.1006,-2.1401,-2.1401,-2.1917,-2.2271,-2.2394,-2.2085,-2.1748,-2.1401,-2.1221,-2.0871,-2.0292,-2.0292,-2.0292,-2.0292,-2.0292,-2.0292,-2.0292,-2.0292,-2.0292,-2.0292,-2.0292,-2.0292,-2.0292,0.0,0.0,0.0,0.0,0.0,0.0,0.0,0.0,0.0,0.0,0.0,0.0,0.0,0.0,0.0,0.0,0.0,0.0,0.0,0.0,0.0,0.0,0.0,0.0,0.0,0.0,0.0,-0.3214,-0.335,0.0,0.0,0.0,0.0,0.0,0.0,-0.3645,-0.3619,-0.3504,0.0,0.0,0.0,0.0,0.0,0.0,0.0,0.0,0.0,-0.5441,-0.6014,-0.6664,-0.7262,-0.7756,-0.7898,-0.8117,-0.8375,-0.8668,-0.8927,-0.9191,-0.9444,-0.9516,-0.9522,-0.9546,-0.9552,-0.9558,-0.9582,-1.0595,-1.1529,-1.1529,-1.1569,-1.1998,-1.3375,-1.3143,-1.3195,-1.4498,-1.5344,-1.5977,-1.63,-1.6684,-1.7107,-1.7514,-1.7826,-1.8,-1.8,-1.8,-1.8,-1.8,-1.8,-1.834,-1.9033,-1.9179,-1.9521,-2.0266,-2.1006,-2.1401,-2.1401,-2.1445,-2.1793,-2.2394,-2.1078,-2.0826,-2.1401,-2.069,-2.0382,-2.0292,-2.0292,-2.0292,-2.0292,-2.0292,-2.0292,-2.0292,-2.0292,-2.0292,-2.0292,-2.0292,-2.0292,-2.0292,0.0,0.0,0.0,0.0,0.0,0.0,0.0,0.0,0.0,0.0,0.0,0.0,0.0,0.0,0.0,0.0,0.0,0.0,0.0,0.0,0.0,0.0,0.0,0.0,0.0,0.0,-0.2546,-0.3078,-0.3214,0.0,0.0,0.0,0.0,0.0,0.0,-0.335,-0.335,-0.3306,0.0,0.0,0.0,0.0,0.0,0.0,0.0,0.0,0.0,0.0,-0.5855,-0.6154,-0.688,-0.7696,-0.7756,-0.7913,-0.8111,-0.8369,-0.8656,-0.8921,-0.9191,-0.9263,-0.9306,-0.9474,-0.9516,-0.9516,-0.9516,-1.0231,-1.0912,-1.0912,-1.1212,-1.1777,-1.2731,-1.3109,-1.3577,-1.4462,-1.5275,-1.5925,-1.6293,-1.6679,-1.7055,-1.7462,-1.7809,-1.8,-1.8,-1.8,-1.8,-1.8,-1.8,-1.8263,-1.8793,-1.9093,-1.9418,-1.9896,-2.0442,-2.0736,-2.0736,-2.0736,-2.0862,-2.1123,-2.0555,-2.0473,-2.0736,-2.0428,-2.0292,-2.0292,-2.0292,-2.0292,-2.0292,-2.0292,-2.0292,-2.0292,-2.0292,-2.0292,-2.0292,-2.0292,-2.0292,-2.0292,0.0,0.0,0.0,0.0,0.0,0.0,0.0022,0.0,0.0,0.0,0.0,0.0,0.0,0.0,0.0,0.0,0.0,0.0,0.0,0.0,0.0,0.0,0.0,0.0,0.0,0.0,-0.2257,-0.2743,-0.3012,-0.3148,0.0,0.0,-0.3192,-0.3192,0.0,0.0,0.0,0.0,0.0,0.0,0.0,0.0,0.0,0.0,0.0,0.0,0.0,0.0,0.0,0.0,0.0,-0.7396,-0.7589,-0.7762,0.0,-0.8213,-0.8445,-0.865,-0.8915,-0.9041,-0.9143,-0.9342,-0.9456,-0.9516,-0.9516,-1.0015,-1.0485,-1.0485,-1.1031,-1.1621,-1.195,-1.2948,-1.3783,-1.4108,-1.5059,-1.5891,-1.6184,-1.661,-1.7013,-1.7278,-1.774,-1.8,-1.8,-1.8,-1.8,-1.8,-1.8,-1.8111,-1.8408,-1.8793,-1.9179,-1.952,-1.9829,-2.0009,-2.0129,-2.0129,-2.018,-2.0292,-2.0292,-2.0292,-2.0292,-2.0292,-2.0292,-2.0292,-2.0292,-2.0292,-2.0292,-2.0292,-2.0292,-2.0292,-2.0292,-2.0292,-2.0292,-2.0292,-2.0292,-2.0292,0.0,0.0,0.0,0.0,0.0,0.0,0.0,0.0,0.0,0.0,0.0,0.0,0.0,0.0,0.0,0.0,0.0,0.0,0.0,0.0,0.0,0.0,0.0,0.0,0.0,0.0,-0.1633,-0.2099,-0.2699,-0.3012,-0.3012,-0.3148,-0.3192,-0.3192,0.0,0.0,0.0,0.0,0.0,0.0,0.0,0.0,0.0,0.0,0.0,0.0,0.0,0.0,0.0,0.0,0.0,0.0,0.0,-0.7681,-0.7955,-0.8213,-0.8291,-0.8351,-0.8638,-0.8896,-0.9095,-0.9101,-0.9312,-0.9516,-0.9516,-1.0015,-1.0485,-1.0485,-1.1031,-1.1367,-1.0994,-1.2424,-1.3577,-1.3187,-1.4622,-1.5805,-1.5805,-1.6447,-1.688,-1.6927,-1.7547,-1.8,-1.8,-1.8,-1.8,-1.8,-1.8,-1.8,-1.8,-1.8391,-1.8776,-1.9213,-1.923,-1.9367,-1.97,-1.9708,-1.9888,-2.0292,-2.0292,-2.0292,-2.0292,-2.0292,-2.0292,-2.0292,-2.0292,-2.0292,-2.0292,-2.0292,-2.0292,-2.0292,-2.0292,-2.0292,-2.0292,-2.0292,-2.0292,-2.0292,0.0,0.0,0.0,0.0,0.0,0.0,0.0,0.0,0.0,0.0,0.0,0.0,0.0,0.0,0.0,0.0,0.0,0.0,0.0,0.0,0.0,0.0,0.0,0.0,0.0,0.0,-0.1633,-0.2099,-0.266,-0.2932,-0.2932,-0.2976,-0.2998,-0.2998,-0.2998,-0.2998,0.0,0.0,0.0,0.0,0.0,0.0,-0.3151,0.0,0.0,0.0,0.0,0.0,0.0,0.0,0.0,0.0,0.0,0.0,0.0,-0.7856,-0.7961,-0.8081,-0.8339,-0.8506,-0.865,-0.9011,-0.9167,-0.9281,-0.9468,-0.967,-0.983,-0.983,-1.0717,-1.1241,-1.037,-1.2052,-1.3452,-1.3145,-1.4175,-1.4974,-1.4974,-1.5564,-1.6049,-1.6079,-1.7206,-1.8,-1.8,-1.8,-1.8,-1.8,-1.8,-1.8,-1.8,-1.8102,-1.8382,-1.8759,-1.9076,-1.923,-1.9358,-1.9358,-1.941,-1.953,-1.9795,-1.987,-1.9879,-2.0172,-2.0292,-2.0292,-2.0292,-2.0292,-2.0292,-2.0292,-2.0292,-2.0292,-2.0292,-2.0292,-2.0292,-2.0292,-2.0292,-2.0292,0.0,0.0,0.0,0.0,0.0,0.0,0.0,0.0022,0.0,0.0,0.0,0.0,0.0,0.0,0.0,0.0,0.0,0.0,0.0,0.0,0.0,0.0,0.0,0.0,0.0,-0.0895,-0.1365,-0.1834,-0.2348,-0.2709,-0.289,-0.289,-0.289,-0.289,-0.289,-0.289,0.0,0.0,0.0,0.0,0.0,0.0,-0.3084,0.0,0.0,0.0,0.0,0.0,0.0,0.0,0.0,0.0,0.0,0.0,0.0,0.0,-0.7681,-0.7878,-0.8099,-0.8213,-0.8393,-0.8842,-0.9023,-0.9173,-0.945,-0.9516,-0.9516,-0.9516,-1.0383,-1.0841,-0.9917,-1.1602,-1.307,-1.2981,-1.3878,-1.4716,-1.501,-1.537,-1.5714,-1.6046,-1.7214,-1.8,-1.8,-1.8,-1.8,-1.8,-1.8,-1.8,-1.8,-1.8,-1.8102,-1.8374,-1.8614,-1.8811,-1.899,-1.8956,-1.9067,-1.9222,-1.9418,-1.953,-1.9538,-1.9915,-2.0078,-2.0095,-2.0232,-2.0292,0.0,-2.0292,-2.0292,-2.0292,-2.0292,-2.0292,-2.0292,-2.0292,-2.0292,-2.0292,0.0,0.0,0.0,0.0,0.0,0.0,0.0,0.0,0.0,0.0,0.0,0.0,0.0,0.0,0.0,0.0,0.0,0.0,0.0,0.0,0.0,0.0,0.0,0.0,0.0,-0.047,-0.0918,-0.1344,-0.1854,-0.2346,-0.2845,-0.289,-0.289,-0.289,-0.289,-0.289,-0.289,-0.289,-0.289,-0.289,-0.289,-0.289,0.0,0.0,0.0,0.0,0.0,0.0,0.0,0.0,0.0,0.0,0.0,0.0,0.0,0.0,0.0,0.0,0.0,-0.8075,-0.8327,-0.8638,-0.889,-0.9149,-0.945,-0.9516,0.0,-0.9516,-1.0015,-1.0301,-0.9606,-1.1114,-1.2456,-1.2579,-1.3704,-1.4796,-1.5541,-1.5564,-1.5764,-1.6448,-1.7326,-1.7919,-1.7919,-1.7951,-1.8,-1.8,-1.8,-1.8,-1.8,-1.8,-1.8,-1.8,-1.8,-1.8162,-1.8545,-1.8545,-1.8733,-1.9093,-1.9119,-1.917,-1.9187,-1.953,-1.9674,-1.9717,-2.0103,-2.0266,-2.0292,-2.0292,-2.0292,-2.0292,-2.0292,-2.0292,-2.0292,-2.0292,-2.0292,-2.0292,0.0,0.0,0.0,0.0,0.0,0.0,0.0,0.0,0.0,0.0,0.0,0.0,0.0,0.0,0.0,0.0,0.0,0.0,0.0,0.0,0.0,0.0,0.0,0.0,0.0,-0.047,-0.076,-0.0873,-0.1698,-0.2166,-0.2302,-0.2709,-0.289,-0.289,-0.289,-0.289,-0.289,-0.289,-0.289,-0.289,-0.289,-0.289,0.0,0.0,0.0,0.0,-0.3298,-0.3409,0.0,0.0,0.0,0.0,0.0,0.0,0.0,0.0,-0.7413,-0.7547,-0.7574,0.0,-0.8099,-0.8596,-0.8752,-0.8927,0.0,-0.9516,-0.9516,-0.9516,-1.0015,-1.0301,-0.9606,-1.0631,-1.1614,-1.1751,-1.2897,-1.3818,-1.4006,-1.4396,-1.4655,-1.4636,-1.6034,-1.6992,-1.6992,-1.7619,-1.8,-1.8,-1.8,-1.8,-1.8,-1.8,-1.8,-1.8,-1.8,-1.8034,-1.8128,-1.8128,-1.817,-1.8305,-1.8588,-1.8725,-1.8733,-1.9127,-1.947,-1.9708,-1.9785,-2.0035,-2.0292,-2.0292,-2.0292,-2.0292,-2.0292,-2.0292,-2.0292,-2.0292,-2.0292,-2.0292,0.0,0.0,0.0,0.0,0.0,0.0,0.0,0.0,0.0,0.0,0.0,0.0,0.0,0.0,0.0,0.0,0.0,0.0,0.0,0.0,0.0,0.0,0.0,0.0,0.0,-0.0247,-0.0493,-0.0693,-0.1431,-0.1899,-0.2121,-0.264,-0.289,-0.289,-0.289,-0.289,-0.289,-0.289,-0.289,-0.289,-0.289,0.0,0.0,0.0,0.0,0.0,-0.3117,-0.3217,0.0,-0.4547,-0.5083,-0.5469,0.0,0.0,0.0,0.0,-0.7306,-0.7419,-0.7419,-0.7601,-0.794,-0.8462,-0.8651,-0.8848,-0.939,0.0,-0.9516,-0.9516,-0.9798,-0.9926,-0.958,-1.0133,-1.0857,-1.1417,-1.2213,-1.2896,-1.3273,-1.4055,-1.4422,-1.403,-1.5247,-1.6247,-1.6657,-1.7115,-1.7578,-1.7951,-1.8,-1.8,-1.8,-1.8,-1.8,-1.8,-1.8,-1.8,-1.8,-1.8,-1.8,-1.8,-1.8237,-1.8331,-1.8348,-1.8733,-1.9016,-1.9222,-1.9401,-1.9598,-1.9795,-1.9966,-2.0043,-2.0061,-2.0223,-2.0292,-2.0292,-2.0292,-2.0189,-2.0043,0.0,0.0,0.0,0.0,0.0,0.0,0.0,0.0,0.0,0.0,0.0,0.0,0.0,0.0,0.0,0.0,0.0,0.0,0.0,0.0,0.0,0.0,0.0,0.0,0.0,0.0,-0.0224,-0.0693,-0.1164,-0.1633,-0.2121,-0.264,-0.289,-0.289,-0.289,-0.289,-0.289,-0.289,-0.289,-0.289,-0.289,0.0,0.0,0.0,0.0,0.0,0.0,0.0,0.0,-0.4056,-0.4679,-0.5304,-0.5991,0.0,0.0,0.0,0.0,0.0,-0.7257,-0.7468,-0.7817,-0.8335,-0.8569,-0.8789,-0.9358,0.0,-0.9446,-0.9484,-0.9484,-0.9484,-0.9484,-0.9763,-1.0264,-1.1165,-1.1708,-1.2271,-1.2981,-1.3975,-1.4403,-1.3882,-1.4636,-1.547,-1.6198,-1.6535,-1.6992,-1.7749,-1.791,-1.8,-1.8,-1.8,-1.8,-1.8,-1.8,-1.8,-1.8,-1.8,-1.8,-1.8,-1.8,-1.8,-1.8008,-1.8357,-1.8528,-1.8605,-1.8981,-1.9119,-1.9239,-1.9521,-1.9614,-1.964,-2.0001,-2.0121,-2.0121,-2.0121,-1.9924,-1.9606,0.0,0.0,0.0,0.0,0.0,0.0,0.0,0.0,0.0,0.0,0.0,0.0,0.0,0.0,0.0,0.0,0.0,0.0,0.0,0.0,0.0,0.0,0.0,0.0,0.0,0.0,-0.0224,-0.0693,-0.1164,-0.1633,-0.2121,-0.264,-0.289,-0.289,-0.289,-0.289,-0.289,-0.289,-0.289,-0.289,-0.289,0.0,0.0,0.0,0.0,0.0,0.0,0.0,0.0,-0.4056,-0.4442,-0.4818,-0.5855,0.0,0.0,0.0,0.0,0.0,-0.7139,-0.74,-0.7796,-0.8241,-0.8345,-0.8531,-0.9188,-0.921,0.0,-0.9446,-0.9414,-0.9376,-0.9484,-0.9907,-1.0278,-1.0459,-1.1649,-1.2694,-1.3034,-1.3454,-1.3508,-1.2966,-1.3669,-1.4252,-1.442,-1.5786,-1.6739,-1.6903,-1.7578,-1.8,-1.8,-1.8,-1.8,-1.8,-1.8,-1.8,-1.8,-1.8,-1.8,-1.8,-1.8,-1.8,-1.8,-1.8059,-1.8288,-1.8588,-1.8648,-1.8913,-1.9222,-1.9282,-1.9264,-1.9264,-1.9324,-1.9385,-1.9385,-1.9385,-1.9307,-1.9213,0.0,0.0,0.0,0.0,0.0,0.0,0.0,0.0,0.0,0.0,0.0,0.0,0.0,0.0,0.0,0.0,0.0,0.0,0.0,0.0,0.0,0.0,0.0,0.0,0.0,-0.0247,-0.0493,-0.0693,-0.1431,-0.1899,-0.2121,-0.264,-0.289,-0.289,-0.289,-0.289,-0.289,-0.289,-0.289,-0.289,0.0,0.0,0.0,0.0,0.0,0.0,0.0,0.0,0.0,0.0,-0.4123,-0.4601,-0.512,0.0,0.0,0.0,0.0,0.0,-0.7112,-0.6997,-0.7081,-0.7826,-0.8323,-0.876,-0.9293,-0.9344,-0.9318,-0.9484,-0.9446,-0.9488,-0.9664,-0.9919,-1.0178,-1.046,-1.1508,-1.2321,-1.2447,-1.2792,-1.2981,-1.2729,-1.3039,-1.3499,-1.3957,-1.4747,-1.5662,-1.6617,-1.6624,-1.7009,-1.7951,-1.7538,-1.7497,-1.8,-1.8,-1.8,-1.8,-1.8,-1.8,-1.8,-1.8,-1.8,-1.8,-1.8,-1.8085,-1.8288,-1.8288,-1.8391,-1.8579,-1.8776,-1.8895,-1.8921,-1.9136,-1.9213,-1.9187,-1.8981,-1.8895,-1.8802,0.0,0.0,0.0,0.0,0.0,0.0,0.0,0.0,0.0,0.0,0.0,0.0,0.0,0.0,0.0,0.0,0.0,0.0,0.0,0.0,0.0,0.0,0.0,0.0,0.0,-0.0359,-0.0649,-0.0873,-0.1587,-0.2057,-0.2302,-0.2709,-0.289,-0.289,-0.289,-0.289,-0.289,-0.289,-0.289,-0.2893,0.0,0.0,0.0,0.0,0.0,0.0,0.0,0.0,0.0,0.0,0.0,0.0,0.0,0.0,0.0,-0.6154,-0.662,-0.7112,-0.7112,-0.6718,-0.6571,-0.7616,-0.8141,-0.8603,-0.9183,-0.9323,-0.9356,-0.9446,-0.9446,-0.9562,-0.9859,-1.0003,-1.0238,-1.0737,-1.1437,-1.188,-1.188,-1.2373,-1.2705,-1.2705,-1.2705,-1.2954,-1.3626,-1.388,-1.458,-1.5951,-1.5835,-1.6214,-1.7335,-1.7164,-1.7196,-1.7659,-1.787,-1.8,-1.8,-1.8,-1.8,-1.8,-1.8,-1.8,-1.8,-1.8,-1.8,-1.8,-1.8,-1.8,-1.8017,-1.834,-1.8459,-1.8485,-1.8793,-1.8905,-1.887,-1.8571,-1.8459,-1.8417,0.0,0.0,0.0,0.0,0.0,0.0,0.0,0.0,0.0,0.0,0.0,0.0,0.0,0.0,0.0,0.0,0.0,0.0,0.0,0.0,0.0,0.0,0.0,0.0,0.0,-0.0022,-0.0471,-0.1344,-0.1411,-0.1925,-0.2845,-0.289,-0.289,-0.289,-0.289,-0.289,-0.289,-0.289,-0.289,-0.2901,-0.2967,0.0,0.0,0.0,0.0,0.0,0.0,0.0,0.0,0.0,0.0,0.0,0.0,0.0,-0.5469,-0.6046,-0.662,-0.7112,-0.7112,-0.6889,-0.6879,-0.7844,-0.7563,-0.736,-0.8563,-0.8835,-0.8931,-0.9242,-0.9306,-0.9421,-0.982,-1.0304,-1.0755,-1.1033,-1.1558,-1.188,-1.188,-1.2373,-1.2705,-1.2705,-1.2705,-1.2705,-1.279,-1.3542,-1.4041,-1.4168,-1.5703,-1.6288,-1.5643,-1.7041,-1.7578,-1.6821,-1.7578,-1.8,-1.8,-1.8,-1.8,-1.8,-1.8,-1.8,-1.8,-1.8,-1.8,-1.8,-1.8,-1.8,-1.8,-1.8025,-1.8034,-1.8034,-1.8068,-1.8085,-1.8076,-1.8042,-1.8034,-1.8034,0.0,0.0,0.0,0.0,0.0,0.0,0.0,0.0,0.0,0.0,0.0,0.0,0.0,0.0,0.0,0.0,0.0,0.0,0.0,0.0,0.0,0.0,0.0,0.0,0.0,-0.0292,-0.0762,-0.1411,-0.2016,-0.2529,-0.289,-0.289,-0.289,-0.289,-0.289,-0.289,-0.2895,-0.2949,-0.2956,-0.2967,-0.3083,-0.3131,0.0,0.0,0.0,0.0,0.0,0.0,0.0,0.0,-0.3613,-0.3638,-0.3858,-0.457,-0.5332,-0.5578,-0.6344,-0.7031,-0.6647,-0.6248,-0.6082,-0.6616,-0.6289,-0.6416,-0.8617,-0.9119,-0.9145,-0.9274,-0.95,-0.9816,-1.031,-1.0683,-1.1051,-1.1329,-1.1645,-1.198,-1.2143,-1.2475,-1.2705,-1.2705,-1.2862,-1.2964,-1.2964,-1.3262,-1.3689,-1.423,-1.4226,-1.4545,-1.5352,-1.5462,-1.5869,-1.6657,-1.7033,-1.7448,-1.7991,-1.8,-1.8,-1.8,-1.8,-1.8,-1.8,-1.8,-1.8,-1.8,-1.8,-1.8,-1.8,-1.8,-1.8,-1.8,-1.8,-1.8,-1.8,-1.8,-1.8,-1.8,0.0,0.0,0.0,0.0,0.0,0.0,0.0,0.0,0.0,0.0,0.0,0.0,0.0,0.0,0.0,0.0,0.0,0.0,0.0,0.0,0.0,0.0,0.0,0.0,0.0,-0.0314,-0.0784,-0.1411,-0.2417,-0.289,-0.289,-0.289,-0.2912,-0.2925,-0.2925,-0.2944,-0.3008,-0.3045,-0.3053,-0.3064,-0.3204,-0.325,0.0,0.0,0.0,0.0,0.0,0.0,0.0,0.0,-0.3613,-0.3613,-0.3613,-0.427,-0.5034,-0.5034,-0.5741,-0.6453,-0.6018,-0.5591,-0.5394,-0.5805,-0.5736,-0.6157,-0.8291,-0.8786,-0.8882,-0.9139,-0.9649,-1.019,-1.0749,-1.0991,-1.1208,-1.1447,-1.1712,-1.197,-1.2276,-1.2536,-1.2705,-1.2705,-1.2874,-1.3025,-1.3071,-1.3083,-1.3366,-1.4051,-1.3667,-1.3775,-1.4757,-1.4661,-1.5148,-1.636,-1.6343,-1.6829,-1.7991,-1.7456,-1.7335,-1.7578,-1.7578,-1.774,-1.8,-1.8,-1.8,-1.8,-1.8,-1.8,-1.8,-1.8,-1.8,-1.8,-1.8,-1.8,-1.8,-1.8,-1.8,-1.8,0.0,0.0,0.0,0.0,0.0,0.0,0.0,0.0,0.0,0.0,0.0,0.0,0.0,0.0,0.0,0.0,0.0,0.0,0.0,0.0,0.0,0.0,0.0,0.0,0.0,0.0,-0.0471,-0.1411,-0.2417,-0.289,-0.289,-0.289,-0.2933,-0.3002,-0.3002,-0.3064,-0.3193,-0.3193,-0.3193,-0.3207,-0.3354,-0.3403,-0.3417,0.0,0.0,0.0,0.0,0.0,0.0,0.0,-0.3613,-0.3613,-0.3613,-0.4024,-0.4491,-0.4491,-0.4873,-0.5304,-0.5304,-0.5045,-0.4958,-0.5687,-0.6136,-0.6625,-0.7479,-0.7707,-0.7977,-0.8835,-0.9702,-1.046,-1.1021,-1.1111,-1.1208,-1.1453,-1.1712,-1.197,-1.2282,-1.2542,-1.2705,-1.2705,-1.2705,-1.2819,-1.3053,-1.3083,-1.323,-1.3495,-1.4315,-1.4405,-1.3553,-1.4963,-1.5784,-1.5784,-1.552,-1.6221,-1.7959,-1.6263,-1.5842,-1.6698,-1.6698,-1.7155,-1.7991,-1.8,-1.8,-1.8,-1.8,-1.8,-1.8,-1.8,-1.8,-1.8,-1.8,-1.8,-1.8,-1.8,-1.8,-1.8,0.0,0.0,0.0,0.0,0.0,0.0,0.0,0.0,0.0,0.0,0.0,0.0,0.0,0.0,0.0,0.0,0.0,0.0,0.0,0.0045,0.0,0.0,0.0,0.0,0.0,-0.065,-0.112,-0.1411,-0.2417,-0.289,-0.289,-0.2955,-0.2991,-0.3005,-0.3107,-0.3161,-0.3199,-0.3311,-0.3346,-0.3357,-0.3479,-0.3528,-0.3534,0.0,0.0,0.0,0.0,0.0,0.0,0.0,0.0,0.0,-0.3613,-0.4024,-0.4491,-0.4491,-0.4873,-0.5226,-0.4846,-0.476,-0.4749,-0.454,-0.5061,-0.5837,-0.6593,-0.7913,-0.9251,-1.0348,-1.0655,-1.0849,-1.1303,-1.1369,-1.1453,-1.1724,-1.1832,-1.2077,-1.2524,-1.2656,-1.2705,-1.2705,-1.288,-1.2987,-1.3071,-1.3083,-1.3113,-1.3191,-1.3458,-1.3502,-1.3242,-1.3824,-1.4448,-1.5093,-1.485,-1.5248,-1.6442,-1.5755,-1.5519,-1.5801,-1.5801,-1.6255,-1.7115,-1.7708,-1.8,-1.8,-1.8,-1.8,-1.8,-1.8,-1.8,-1.8,-1.8,-1.8,-1.8,-1.8,-1.8,-1.8,0.0,0.0,0.0,0.0,0.0,0.0,0.0,0.0,0.0,0.0,0.0584,0.0,0.0,0.0,0.0,0.0,0.0,0.0,0.0,0.0,0.009,0.009,0.009,0.0045,0.0,-0.0919,-0.1411,-0.1411,-0.2417,-0.289,-0.2893,-0.297,-0.3024,-0.3096,-0.3215,-0.3319,-0.3368,-0.3441,-0.3474,-0.3479,-0.3555,-0.3613,-0.3613,0.0,0.0,0.0,0.0,0.0,0.0,0.0,0.0,0.0,-0.3613,-0.3858,-0.4135,-0.4135,-0.438,-0.4556,-0.431,-0.4341,-0.4369,-0.4055,-0.4659,-0.5538,-0.6477,-0.7861,-0.9323,-1.0583,-1.0631,-1.0665,-1.1402,-1.1522,-1.1579,-1.1838,-1.188,-1.2107,-1.2626,-1.2705,-1.2705,-1.2705,-1.285,-1.3,-1.3071,-1.3083,-1.3119,-1.3272,-1.3278,-1.3278,-1.3278,-1.3332,-1.3747,-1.4604,-1.4065,-1.4352,-1.5637,-1.4776,-1.451,-1.4845,-1.4845,-1.513,-1.5662,-1.6542,-1.7164,-1.7489,-1.7489,-1.7659,-1.8,-1.8,-1.8,-1.8,-1.8,-1.8,-1.8,-1.8,-1.8,-1.8,0.0,0.0,0.0,0.0,0.0,0.0,0.0,0.0,0.0,0.0,0.0697,0.0652,0.0,0.0,0.0,0.0,0.0,0.0,0.0,0.0,0.0202,0.0202,0.018,0.0135,0.0,-0.0919,-0.1411,-0.1411,-0.2417,-0.2895,-0.2909,-0.2983,-0.3102,-0.3215,-0.3362,-0.3479,-0.3613,-0.3613,-0.3613,-0.3613,-0.3613,-0.3613,-0.3613,-0.3613,0.0,0.0,0.0,0.0,0.0,0.0,0.0,0.0,-0.3613,-0.3613,-0.3613,-0.3613,-0.3619,-0.3652,-0.3753,-0.3849,-0.3946,-0.4056,-0.4721,-0.5614,-0.6779,-0.7509,-0.8358,-0.9922,-1.0048,-1.0187,-1.1358,-1.153,-1.1597,-1.1814,-1.1868,-1.2095,-1.2596,-1.2687,-1.2705,-1.2705,-1.2705,-1.2807,-1.3061,-1.3041,-1.3137,-1.3423,-1.3465,-1.3477,-1.3477,-1.3278,-1.3498,-1.4305,-1.3305,-1.3544,-1.5187,-1.3519,-1.3082,-1.388,-1.388,-1.3915,-1.4041,-1.497,-1.5842,-1.6576,-1.6576,-1.7033,-1.7749,-1.7829,-1.787,-1.787,-1.787,-1.791,-1.7991,-1.791,-1.791,-1.8,0.0,0.0,0.0,0.0,0.0,0.0,0.0,0.0,0.0,0.0,0.0,0.0,0.0,0.0,0.0,0.0,0.0,0.0,0.0,0.0,0.0202,0.0202,0.009,0.0022,0.0,-0.0919,-0.1411,-0.1411,-0.2417,-0.2917,-0.2988,-0.3104,-0.322,-0.3368,-0.349,-0.3586,-0.3613,-0.3613,-0.3613,-0.3613,-0.3613,-0.3613,-0.3613,-0.3613,-0.3613,0.0,0.0,0.0,0.0,0.0,0.0,0.0,-0.3613,-0.3613,-0.3613,-0.3613,-0.3676,-0.375,-0.3804,-0.3914,-0.4054,-0.4078,-0.4721,-0.5524,-0.6364,-0.6555,-0.7184,-0.9488,-1.0035,-1.0357,-1.122,-1.1478,-1.151,-1.1368,-1.1669,-1.1994,-1.2355,-1.2572,-1.2705,-1.2705,-1.2705,-1.2729,-1.2789,-1.2795,-1.2819,-1.2874,-1.3085,-1.3212,-1.3212,-1.335,-1.3519,-1.3693,-1.3258,-1.3205,-1.3598,-1.2985,-1.2784,-1.2997,-1.2997,-1.333,-1.4041,-1.497,-1.5519,-1.5677,-1.5677,-1.5809,-1.6015,-1.6706,-1.6992,-1.6992,-1.6992,-1.7408,-1.791,-1.7245,-1.7408,-1.8,0.0,0.0,0.0,0.0,0.0,0.0,0.0,0.0,0.0,0.0,0.0,0.0,0.0,0.0,0.0,0.0,0.0,0.0,0.0,0.0,0.0,0.0337,0.0247,0.0157,0.009,-0.0851,-0.1366,-0.1411,-0.2445,-0.2964,-0.3005,-0.3139,-0.3284,-0.3406,-0.3528,-0.3613,-0.3613,-0.3613,-0.3613,-0.3613,-0.3613,-0.3613,-0.3613,-0.3613,-0.3613,-0.3613,-0.3613,0.0,0.0,0.0,0.0,0.0,0.0,0.0,-0.3613,-0.3613,-0.3693,-0.3794,-0.3825,-0.3977,-0.41,-0.4191,-0.4737,-0.5312,-0.5382,-0.5723,-0.643,-0.7928,-0.8959,-0.9833,-1.062,-1.1231,-1.1598,-1.1542,-1.1609,-1.179,-1.2089,-1.2246,-1.2373,-1.2499,-1.2518,-1.2566,-1.2693,-1.2705,-1.2705,-1.2705,-1.2837,-1.2922,-1.2922,-1.3055,-1.3127,-1.3127,-1.2994,-1.2922,-1.2922,-1.2777,-1.2705,-1.2705,-1.2705,-1.2954,-1.3415,-1.4342,-1.472,-1.472,-1.472,-1.497,-1.5436,-1.5884,-1.609,-1.609,-1.609,-1.6378,-1.6714,-1.6255,-1.6378,-1.6796,0.0,0.0,0.0,0.0,0.0,0.0,0.0,0.0,0.0,0.0,0.0,0.0,0.0,0.0,0.0,0.0,0.0,0.0,0.0,0.0,0.0,0.0,0.0427,0.0337,0.0247,-0.0784,-0.1321,-0.1389,-0.2474,-0.3011,-0.3032,-0.3172,-0.3316,-0.3439,-0.3539,-0.3613,-0.3613,-0.3613,-0.3613,-0.3613,-0.3613,-0.3613,-0.3613,-0.3613,-0.3613,-0.3613,-0.3613,-0.3613,-0.3613,-0.3613,0.0,0.0,0.0,0.0,-0.3613,-0.3613,-0.3709,-0.3835,-0.3876,-0.4008,-0.4172,-0.4276,-0.4725,-0.4984,-0.4431,-0.5018,-0.5769,-0.6065,-0.742,-0.8836,-0.9686,-1.0511,-1.1156,-1.1479,-1.1453,-1.1485,-1.1856,-1.1922,-1.2012,-1.2228,-1.2246,-1.233,-1.2548,-1.2572,-1.2572,-1.2572,-1.2572,-1.2572,-1.2572,-1.2572,-1.259,-1.2638,-1.2638,-1.2656,-1.2705,-1.2705,-1.2705,-1.2705,-1.2705,-1.2705,-1.2705,-1.3457,-1.3795,-1.3795,-1.3795,-1.4216,-1.4936,-1.5103,-1.5144,-1.5144,-1.5144,-1.5269,-1.5394,-1.522,-1.5269,-1.5519,0.0,0.0,0.0,0.0,0.0,0.0,0.0,0.0,0.0,0.0,0.0697,0.0697,0.0,0.0,0.0,0.0,0.0,0.0,0.0,0.0,0.0,0.0,0.0405,0.0382,0.0382,-0.0717,-0.1299,-0.1321,-0.2451,-0.3051,-0.3175,-0.3319,-0.3441,-0.3589,-0.3605,-0.3613,-0.3613,-0.3613,-0.3613,-0.3613,-0.3613,-0.3613,-0.3613,-0.3613,-0.3613,-0.3613,-0.3613,-0.3613,-0.3613,-0.3613,-0.3613,0.0,0.0,0.0,-0.3613,-0.3613,-0.3738,-0.3884,-0.39,-0.407,-0.4278,-0.4298,-0.4367,-0.4398,-0.4334,-0.4601,-0.4893,-0.4983,-0.6205,-0.7489,-0.831,-0.8708,-0.9178,-1.0035,-1.047,-1.1016,-1.1784,-1.2119,-1.2192,-1.1999,-1.1934,-1.1986,-1.1982,-1.2029,-1.2029,-1.2029,-1.2029,-1.2029,-1.2029,-1.2029,-1.2131,-1.2361,-1.2367,-1.2475,-1.2699,-1.2705,-1.2705,-1.2705,-1.2705,-1.2705,-1.2705,-1.2826,-1.2869,-1.2869,-1.2869,-1.2954,-1.3124,-1.388,-1.4168,-1.4168,-1.4168,-1.4678,-1.5311,-1.451,-1.472,-1.5436,0.0,0.0,0.0,0.0,0.0,0.0,0.0,0.0,0.0,0.0,0.0,0.0697,0.0,0.0,0.0,0.0,0.0,0.0,0.0,0.0,0.0,0.0,0.0562,0.0539,0.045,-0.0627,-0.1245,-0.1364,-0.2529,-0.318,-0.3324,-0.3447,-0.3531,-0.3613,-0.3613,-0.3613,-0.3613,-0.3613,-0.3613,-0.3613,-0.3613,-0.3613,-0.3613,-0.3613,-0.3613,-0.3613,-0.3613,-0.3613,-0.3613,-0.3613,-0.3613,-0.3613,-0.3613,0.0,0.0,0.0,-0.3849,-0.4019,-0.4089,-0.4219,-0.43,-0.43,-0.43,-0.43,-0.43,-0.4465,-0.4621,-0.4708,-0.5356,-0.6251,-0.7455,-0.8136,-0.8906,-1.0114,-1.0326,-1.0729,-1.1778,-1.2023,-1.2107,-1.2137,-1.2137,-1.2198,-1.2343,-1.2361,-1.23,-1.2155,-1.2137,-1.2077,-1.1926,-1.188,-1.1934,-1.2048,-1.2095,-1.2149,-1.2264,-1.2409,-1.256,-1.2705,-1.2705,-1.2705,-1.2705,-1.2705,-1.2705,-1.2705,-1.2705,-1.2705,-1.2747,-1.3124,-1.3288,-1.3288,-1.3288,-1.3499,-1.3837,-1.3415,-1.3542,-1.3964,0.0,0.0,0.0,0.0,0.0,0.0,0.0,0.0,0.0,0.0,0.0,0.0,0.0,0.0,0.0,0.0,0.0,0.0,0.0,0.0,0.0,0.0,0.0,0.0652,0.0562,-0.0566,-0.1221,-0.1374,-0.2641,-0.3311,-0.3403,-0.3526,-0.3613,-0.3613,-0.3613,-0.3613,-0.3613,-0.3613,-0.3613,-0.3613,-0.3613,-0.3613,-0.3613,-0.3613,-0.363,-0.3654,0.0,-0.3676,-0.3675,-0.3675,-0.3675,-0.3675,-0.3675,-0.3732,0.0,0.0,0.0,-0.4145,-0.4268,-0.43,-0.43,-0.43,-0.43,-0.43,-0.43,-0.4365,-0.4495,-0.4616,-0.4813,-0.5293,-0.6503,-0.7291,-0.8191,-0.9597,-0.9647,-0.9899,-1.1044,-1.1404,-1.1653,-1.1817,-1.2046,-1.2288,-1.2487,-1.2506,-1.2421,-1.2228,-1.2216,-1.2125,-1.1892,-1.182,-1.1814,-1.192,-1.182,-1.1814,-1.188,-1.2119,-1.2312,-1.2506,-1.2572,-1.2608,-1.2608,-1.2674,-1.2705,-1.2705,-1.2705,-1.2705,-1.2705,-1.2705,-1.2705,-1.2705,-1.2705,-1.2705,-1.2705,-1.2705,-1.2705,-1.2784,0.0,0.0,0.0,0.0,0.0,0.0,0.0,0.0,0.0,0.0,0.0,0.0,0.0,0.0,0.0697,0.0697,0.0,0.0,0.0,0.0,0.0,0.0,0.0,0.0,0.0,-0.0604,-0.1301,-0.1303,-0.2708,-0.3395,-0.3403,-0.3526,-0.3613,-0.3613,-0.3613,-0.3613,-0.3613,-0.3613,-0.3613,-0.3613,-0.3613,-0.3613,-0.3613,-0.3613,-0.3679,-0.3804,-0.3804,-0.3819,-0.3887,-0.3887,-0.3887,-0.3887,-0.3887,-0.3889,-0.3895,0.0,0.0,0.0,-0.4268,-0.43,-0.43,-0.43,-0.43,-0.43,-0.43,-0.4306,-0.4341,-0.449,-0.4618,-0.4786,-0.5076,-0.5402,-0.6103,-0.745,-0.7643,-0.8016,-0.917,-1.0104,-1.0652,-1.0603,-1.1364,-1.195,-1.1922,-1.1922,-1.1956,-1.1904,-1.1904,-1.1892,-1.188,-1.1645,-1.1627,-1.1874,-1.1639,-1.1633,-1.192,-1.1892,-1.195,-1.1922,-1.2216,-1.233,-1.2343,-1.259,-1.2705,-1.2705,-1.2705,-1.2705,-1.2705,-1.2705,-1.2705,-1.2705,-1.2705,-1.2705,-1.2705,-1.2705,-1.2705,-1.2705,0.0,0.0,0.0,0.0,0.0,0.0,0.0,0.0,0.0,0.0,0.0,0.0,0.0,0.0067,0.0247,0.0247,0.0516,0.0,0.0,0.0,0.0,0.0,0.0,0.0,0.0,-0.0604,-0.132,-0.1481,-0.2778,-0.3441,-0.352,-0.3591,-0.3613,-0.3613,-0.3613,-0.3613,-0.3616,-0.369,-0.3723,-0.3728,-0.3778,-0.3779,-0.3779,-0.3779,-0.3833,-0.3868,-0.3868,-0.3868,-0.3903,-0.3903,-0.3903,-0.3903,-0.3903,-0.3957,-0.4035,-0.4145,-0.42,-0.4243,-0.4289,-0.43,-0.43,-0.43,-0.43,-0.43,-0.43,-0.43,-0.4311,-0.4352,-0.449,-0.4621,-0.4788,-0.5075,-0.5726,-0.7028,-0.7221,-0.7663,-0.8848,-0.9489,-1.0048,-1.0641,-1.1186,-1.1752,-1.2338,-1.2421,-1.2355,-1.2186,-1.2174,-1.2095,-1.1892,-1.1796,-1.1784,-1.192,-1.179,-1.179,-1.188,-1.1718,-1.1718,-1.188,-1.2017,-1.2024,-1.203,-1.233,-1.2451,-1.2463,-1.2632,-1.2705,-1.2705,-1.2705,-1.2705,-1.2705,-1.2705,-1.2705,-1.2705,-1.2705,-1.2705,-1.2705,0.0,0.0,0.0,0.0,0.0,0.0,0.0,0.0,0.0,0.0,0.0,0.0,0.0,0.0,-0.0247,-0.0297,0.016,0.0345,0.007,0.0491,0.0,0.0,0.0,0.0,0.0,-0.072,-0.1432,-0.1909,-0.292,-0.3466,-0.3613,-0.3613,-0.3613,-0.3613,-0.3652,-0.3668,-0.3673,-0.375,-0.3808,-0.3851,-0.3873,-0.3903,-0.3903,-0.3903,-0.393,-0.3934,-0.3683,-0.3612,-0.3641,-0.3389,-0.3294,-0.3326,-0.3578,-0.3887,-0.4194,-0.4276,-0.43,-0.43,-0.43,-0.43,-0.43,-0.43,-0.43,-0.43,-0.43,-0.43,-0.43,-0.43,-0.436,-0.4484,-0.4605,-0.4824,-0.5296,-0.6316,-0.6443,-0.6788,-0.7704,-0.8305,-0.8923,-0.9683,-1.0275,-1.0958,-1.1931,-1.2015,-1.2111,-1.2277,-1.2312,-1.2276,-1.2192,-1.206,-1.197,-1.1886,-1.188,-1.1838,-1.1754,-1.1579,-1.1531,-1.1648,-1.1706,-1.1754,-1.176,-1.2024,-1.2186,-1.2198,-1.2457,-1.262,-1.2705,-1.2705,-1.2705,-1.2705,-1.2705,-1.2705,-1.2705,-1.2705,-1.2705,-1.2705,0.0,0.0,0.0,0.0,0.0,0.0,0.0,0.0,0.0,0.0,0.0,0.0,0.0,0.0,0.0,-0.0902,-0.0381,-0.0363,-0.1152,0.0025,0.0,0.0,0.0,0.0,0.0,-0.0908,-0.164,-0.2495,-0.311,-0.3468,-0.3613,-0.3613,-0.3613,-0.3621,-0.3734,-0.3815,-0.3823,-0.3823,-0.3833,-0.3911,-0.3914,-0.3883,-0.3883,-0.3883,-0.3955,-0.3929,-0.3221,-0.3048,-0.3049,-0.2347,-0.2114,-0.2248,-0.3015,-0.3723,-0.43,-0.43,-0.43,-0.43,0.0,0.0,0.0,-0.43,-0.43,-0.43,-0.43,-0.43,-0.43,-0.43,-0.43,-0.4336,-0.4479,-0.4498,-0.4654,-0.5089,-0.5167,-0.5294,-0.5626,-0.6461,-0.7237,-0.7693,-0.8601,-0.9543,-1.0595,-1.0675,-1.1098,-1.2176,-1.2282,-1.2403,-1.2656,-1.2445,-1.2198,-1.1904,-1.1892,-1.1772,-1.1519,-1.1501,-1.1357,-1.1129,-1.1357,-1.1477,-1.1489,-1.1754,-1.1874,-1.1886,-1.2145,-1.2403,-1.2638,-1.2699,-1.2705,-1.2705,-1.2705,-1.2705,-1.2705,-1.2705,-1.2705,-1.2705,0.0,0.0,0.0,0.0,0.0,0.0,0.0,0.0,0.0,0.0,0.0,0.0,0.0,0.0,-0.1445,-0.1137,-0.0965,-0.092,-0.1056,-0.0706,-0.0403,-0.0176,-0.0336,-0.0393,-0.0315,-0.1262,-0.2022,-0.251,-0.3117,-0.3465,-0.3613,-0.3613,-0.3657,-0.3736,-0.3798,-0.3882,-0.4018,-0.4018,-0.4037,-0.4043,-0.4164,-0.3868,-0.3405,-0.3405,-0.3027,-0.2487,-0.2287,-0.2131,-0.2044,-0.1978,-0.2313,-0.2882,-0.3725,-0.4131,-0.43,-0.43,-0.43,0.0,-0.43,0.0,0.0,0.0,0.0,0.0,-0.43,-0.43,-0.43,-0.43,-0.43,-0.4311,-0.4341,-0.4346,-0.4417,-0.4668,-0.478,-0.4889,-0.4962,-0.5419,-0.6046,-0.6958,-0.7575,-0.8519,-1.0105,-1.0259,-1.0593,-1.136,-1.1591,-1.1742,-1.1814,-1.2149,-1.2282,-1.221,-1.2204,-1.2168,-1.2095,-1.1682,-1.1453,-1.1375,-1.1248,-1.1226,-1.1238,-1.1477,-1.1525,-1.1419,-1.1674,-1.1746,-1.1758,-1.2421,-1.2705,-1.2705,-1.2705,-1.2705,-1.2705,-1.2705,-1.2705,-1.2705,0.0,0.0,0.0,0.0,0.0,0.0,0.0,0.0,0.0,0.0,0.0,0.0,0.0,0.0,-0.2051,-0.1877,-0.1594,-0.1527,-0.1766,-0.1265,-0.0949,-0.0896,-0.0887,-0.0924,-0.1006,-0.1693,-0.2318,-0.2884,-0.3227,-0.3476,-0.3613,-0.366,-0.3717,-0.3815,-0.389,-0.3985,-0.4089,-0.4172,-0.4194,-0.4167,-0.3934,-0.3587,-0.3182,-0.2848,-0.2414,-0.1945,-0.1576,-0.161,-0.171,-0.1108,-0.1643,-0.2648,-0.322,-0.3794,-0.43,-0.43,-0.43,0.0,0.0,0.0,-0.43,-0.43,0.0,0.0,-0.43,-0.43,-0.43,-0.43,-0.43,-0.43,-0.43,-0.43,-0.4322,-0.4387,-0.4495,-0.4575,-0.4676,-0.4857,-0.5267,-0.5958,-0.63,-0.7062,-0.8577,-0.8761,-0.928,-1.0421,-1.0651,-1.0936,-1.1309,-1.1757,-1.1986,-1.1986,-1.2198,-1.2264,-1.2149,-1.1808,-1.1597,-1.1489,-1.1244,-1.1111,-1.1117,-1.1167,-1.113,-1.1027,-1.1212,-1.1249,-1.1198,-1.184,-1.223,-1.2427,-1.2535,-1.2619,-1.2705,-1.2705,-1.2705,-1.2705,0.0,0.0,0.0,0.0,0.0,0.0,0.0,0.0,0.0,0.0,0.0,0.0,0.0,0.0,0.0,0.0,-0.2218,-0.214,-0.2826,-0.1762,-0.137,-0.1959,-0.1426,-0.137,-0.1959,-0.2091,-0.2551,-0.333,-0.3377,-0.3471,-0.3579,-0.375,-0.381,-0.3832,0.0,0.0,-0.4145,-0.4254,-0.4267,-0.4131,-0.3453,-0.3149,-0.2982,-0.2248,-0.1913,-0.1712,-0.0907,-0.1108,-0.1509,-0.0101,-0.0572,-0.1811,-0.2045,-0.2986,-0.4064,-0.4164,-0.4164,0.0,0.0,0.0,0.0,-0.43,-0.43,0.0,-0.43,-0.43,-0.43,-0.43,-0.43,-0.43,-0.43,-0.43,-0.43,-0.43,-0.43,-0.4374,-0.4618,-0.4649,-0.4723,-0.4941,-0.5078,-0.5571,-0.6636,-0.6844,-0.765,-0.9314,-0.9536,-1.0019,-1.0972,-1.1248,-1.1417,-1.1441,-1.1968,-1.2143,-1.1968,-1.1908,-1.1736,-1.1531,-1.1224,-1.1074,-1.1074,-1.085,-1.0738,-1.0755,-1.0802,-1.0789,-1.0812,-1.1101,-1.1468,-1.1969,-1.2222,-1.245,-1.262,-1.2693,-1.2705,-1.2705,0.0,0.0,0.0,0.0,0.0,0.0,0.0,0.0,0.0,0.0,0.0,0.0,0.0,0.0,0.0,0.0,-0.2749,-0.27,-0.2747,-0.2493,-0.2184,-0.1846,-0.2155,-0.2184,-0.1846,-0.2336,-0.2728,-0.3,-0.3199,-0.3386,-0.3527,-0.3757,-0.3952,-0.405,-0.4096,-0.4172,-0.4268,-0.4289,-0.3961,-0.3418,-0.3251,-0.2848,-0.2213,-0.1376,-0.0605,0.0034,0.0371,0.0471,0.0403,-0.0134,-0.0605,-0.1142,-0.1879,-0.2315,-0.2649,-0.3251,-0.3418,-0.3553,-0.4131,-0.43,-0.43,-0.43,-0.43,0.0,-0.43,-0.43,-0.43,-0.43,-0.43,-0.43,-0.43,-0.43,-0.43,-0.43,-0.43,-0.4317,-0.4363,-0.4371,-0.4436,-0.4667,-0.4805,-0.5241,-0.6145,-0.6405,-0.6885,-0.7798,-0.8602,-0.9461,-1.0395,-1.0695,-1.0972,-1.1184,-1.1477,-1.182,-1.2234,-1.1778,-1.1645,-1.1802,-1.1156,-1.085,-1.085,-1.0663,-1.0481,-1.0331,-1.0343,-1.0252,-1.0128,-1.0378,-1.0857,-1.1462,-1.1916,-1.2099,-1.2165,-1.2541,-1.2705,-1.2705,0.0,0.0,0.0,0.0,0.0,0.0,0.0,0.0,0.0,0.0,0.0,0.0,0.0,0.0,0.0,0.0,0.0,0.0,0.0,0.0,-0.2704,-0.2408,-0.2675,-0.2704,-0.2408,-0.2763,-0.297,-0.306,-0.3255,-0.343,-0.3618,-0.3784,-0.3709,-0.3476,-0.3986,-0.4007,-0.3689,-0.4131,-0.4097,-0.3689,-0.295,-0.2179,-0.1376,-0.0572,0.0067,0.0539,0.0742,0.0943,0.0941,-0.0134,-0.0571,-0.0739,-0.1276,-0.1745,-0.2248,-0.2982,-0.3215,-0.3351,-0.4097,-0.43,-0.43,-0.43,-0.43,0.0,0.0,-0.43,-0.43,-0.43,-0.43,-0.43,-0.43,-0.43,-0.43,-0.43,-0.43,-0.43,-0.43,-0.43,-0.4334,-0.4431,-0.4595,-0.4894,-0.5388,-0.5646,-0.6071,-0.6859,-0.8002,-0.8915,-0.9382,-0.9977,-1.0358,-1.0485,-1.0882,-1.1279,-1.1709,-1.134,-1.1307,-1.1524,-1.093,-1.0663,-1.0625,-1.0443,-1.0293,-1.018,-1.0105,-0.9992,-0.9927,-1.0056,-1.0291,-1.0667,-1.1278,-1.1548,-1.17,-1.2081,-1.2217,-1.2235,-0.2323,-0.2392,0.0,0.0,0.0,0.0,0.0,0.0,0.0,0.0,0.0,0.0,-0.2985,-0.2907,-0.2881,-0.295,0.0,0.0,-0.2801,-0.2801,-0.2862,-0.2985,-0.2862,-0.2862,-0.2985,-0.2954,-0.3018,-0.3171,-0.3314,-0.348,-0.3639,-0.3776,-0.3533,-0.3018,-0.3723,-0.3723,-0.3215,-0.3792,-0.3961,-0.3725,-0.2549,-0.1744,-0.1176,-0.0202,0.0202,0.0371,0.0741,0.0976,0.0941,0.0,-0.0403,-0.0504,-0.0605,-0.1209,-0.2013,-0.2748,-0.2982,-0.3151,-0.4061,-0.43,-0.43,-0.43,-0.43,-0.43,0.0,0.0,0.0,-0.43,-0.43,-0.43,-0.43,-0.43,-0.4295,-0.427,-0.4284,-0.4292,-0.4268,-0.4284,-0.43,-0.43,-0.4461,-0.4661,-0.4797,-0.5027,-0.555,-0.6531,-0.7642,-0.8393,-0.8683,-0.9408,-0.9853,-0.9907,-1.0316,-1.0707,-1.1031,-1.084,-1.0863,-1.114,-1.0682,-1.0443,-1.0443,-1.0218,-1.0143,-1.0143,-0.996,-0.9884,-0.9884,-0.9884,-0.9884,-0.996,-1.0678,-1.1009,-1.1198,-1.153,-1.1622,-1.1698,-0.2422,-0.2392,0.0,0.0,0.0,0.0,0.0,0.0,0.0,0.0,0.0,-0.2988,-0.2999,-0.3001,-0.2728,-0.2094,-0.2033,-0.2033,-0.2033,-0.2033,-0.231,-0.2985,-0.2371,-0.234,-0.2985,-0.2371,-0.2371,-0.3015,-0.329,-0.3398,-0.3432,-0.3793,-0.3875,-0.3673,-0.3313,-0.3418,-0.3859,-0.3351,-0.2781,-0.2146,-0.1978,-0.2313,-0.2748,-0.1041,-0.0403,-0.0269,0.0706,0.1076,0.1042,0.0539,0.0,-0.0437,-0.0168,-0.0471,-0.1109,-0.198,-0.2146,-0.2382,-0.3894,-0.43,-0.43,-0.43,-0.43,-0.43,-0.43,0.0,-0.43,-0.43,0.0,-0.43,-0.43,0.0,0.0,-0.4156,-0.423,-0.4262,-0.4153,-0.4232,-0.43,-0.43,-0.4461,-0.4661,-0.4797,-0.513,-0.5885,-0.719,-0.7419,-0.8074,-0.9318,-0.9476,-0.9666,-0.9901,-0.9961,-1.027,-1.0844,-1.0589,-1.0619,-1.0951,-1.0454,-1.0218,-1.0218,-1.003,-0.9922,-0.9922,-0.9922,-0.9884,-0.9884,-0.9884,-0.9884,-0.9943,-1.044,-1.0656,-1.0729,-1.1187,-1.1364,-1.1398,-0.2591,-0.2576,-0.2589,0.0,0.0,0.0,0.0,0.0,0.0,0.0,0.0,-0.3005,-0.3059,-0.3063,-0.2959,-0.2688,-0.2659,-0.2659,-0.2659,-0.2659,0.0,-0.3111,-0.2821,-0.2788,-0.3111,-0.2821,-0.2821,-0.3111,-0.3218,-0.3335,-0.3469,-0.3644,-0.346,-0.2986,-0.2885,-0.2683,-0.2447,-0.2716,-0.2649,-0.2348,-0.2348,-0.2582,-0.2683,-0.0538,0.0336,0.0504,0.0941,0.1109,0.1076,0.0908,0.0505,0.0135,0.0371,0.0101,-0.0538,-0.1644,-0.2012,-0.2348,-0.3894,-0.3995,-0.3758,-0.4197,-0.3995,-0.3758,-0.4197,-0.43,-0.43,-0.43,0.0,0.0,0.0,0.0,0.0,0.0,-0.4268,-0.4281,-0.4232,-0.4268,-0.43,-0.43,-0.4367,-0.4495,-0.4661,-0.5292,-0.5756,-0.5881,-0.6634,-0.7414,-0.8134,-0.8458,-0.8901,-0.9536,-0.9438,-0.9567,-0.9997,-0.9913,-1.0047,-1.0323,-1.0132,-1.003,-1.003,-0.9922,-0.9884,-0.9884,-0.9884,-0.9884,-0.9884,-0.9884,-0.9884,-0.9927,-1.01,-1.0177,-1.0248,-1.0583,-1.0716,-1.0789,-0.2787,-0.2723,-0.2699,-0.2723,-0.2728,-0.2758,0.0,-0.2966,-0.3022,-0.3022,-0.3045,-0.3086,-0.3122,-0.3128,-0.3089,-0.295,-0.2922,-0.2922,-0.2922,-0.2922,-0.2922,-0.2922,-0.2922,-0.2922,-0.2922,-0.2922,-0.3023,-0.3192,-0.3192,-0.3261,-0.3431,-0.3464,-0.3192,-0.2619,-0.2619,-0.2248,-0.1642,-0.2114,-0.2214,-0.2048,-0.2048,-0.1879,-0.151,-0.0067,0.074,0.1109,0.1109,0.1109,0.1076,0.1043,0.0673,0.0337,0.064,0.0337,-0.0269,-0.1242,-0.1543,-0.1911,-0.3255,-0.3253,-0.3015,-0.3792,-0.3589,-0.3384,-0.4131,-0.43,-0.43,-0.43,-0.43,0.0,0.0,0.0,-0.4289,0.0,0.0,-0.4289,-0.4257,-0.4278,-0.43,-0.43,-0.4364,-0.4498,-0.4858,-0.5491,-0.5756,-0.5388,-0.6338,-0.7051,-0.7409,-0.78,-0.8388,-0.921,-0.9081,-0.9104,-0.9321,-0.9377,-0.9523,-0.9832,-0.9818,-0.9863,-0.9884,-0.9884,-0.9884,-0.9884,-0.9884,-0.9884,-0.9884,-0.9884,-0.9884,-0.9884,-0.9884,-0.9884,-0.9943,-1.0126,-1.0191,-1.0262,-0.296,-0.2836,-0.2719,-0.2778,-0.2794,-0.2852,-0.2968,-0.3059,-0.3087,-0.3087,-0.3162,-0.3186,-0.3188,-0.3188,-0.2919,-0.2281,-0.2248,-0.2248,-0.2248,-0.2248,-0.2248,-0.2248,-0.2248,-0.2248,-0.2248,-0.2248,-0.2551,-0.3192,-0.3192,-0.3192,0.0,0.0,0.0,0.0,-0.2653,-0.2383,-0.2315,-0.1642,-0.0973,-0.037,-0.037,0.0168,0.0874,0.0067,0.0302,0.1109,0.1109,0.1109,0.1076,0.0876,0.0337,-0.0168,0.0337,0.0135,-0.0336,-0.0504,-0.047,-0.0604,-0.1677,-0.1945,-0.2146,-0.3015,-0.3215,-0.3384,-0.4131,-0.43,-0.43,-0.43,-0.43,-0.43,-0.43,-0.43,0.0,0.0,0.0,0.0,0.0,-0.4227,-0.43,-0.43,-0.4461,-0.4858,-0.5517,-0.5752,-0.6148,-0.6793,-0.6859,-0.7214,-0.7929,-0.7994,-0.8323,-0.8985,-0.9017,-0.9039,-0.912,-0.9097,-0.9277,-0.9614,-0.9625,-0.9707,-0.9884,-0.9884,-0.9884,-0.9884,-0.9884,-0.9884,-0.9884,-0.9884,-0.9884,-0.9884,-0.9884,-0.9884,-0.9922,-0.9927,-0.9933,-0.997,-0.2979,-0.2935,-0.2904,-0.2935,-0.2941,-0.2972,-0.3061,-0.3122,-0.3181,-0.3181,-0.3174,-0.3192,-0.3192,-0.3192,-0.3125,-0.2889,-0.2855,-0.2855,-0.2855,-0.2855,-0.2653,-0.2214,-0.2619,-0.2653,-0.2214,-0.2619,-0.2989,-0.3192,-0.3192,-0.3192,0.0,0.0,0.0,0.0,-0.2551,-0.2013,-0.1511,-0.1276,-0.0739,-0.0101,-0.0101,0.0068,0.0345,0.0541,0.084,0.1109,0.1109,0.1109,0.1076,0.1009,0.074,0.0471,0.0808,0.0606,0.0135,-0.0235,-0.0403,-0.0605,-0.1476,-0.1342,-0.1208,-0.2112,-0.2347,-0.2547,-0.3387,-0.3961,-0.43,-0.43,-0.43,-0.43,-0.43,0.0,0.0,0.0,0.0,0.0,0.0,-0.4273,-0.43,-0.43,-0.4755,-0.4984,-0.4761,-0.565,-0.5943,-0.5223,-0.5576,-0.6001,-0.6396,-0.6756,-0.7312,-0.8096,-0.8468,-0.8679,-0.8695,-0.8881,-0.901,-0.9144,-0.9462,-0.962,-0.9696,-0.9852,-0.9884,-0.9884,-0.9884,-0.9884,-0.9884,-0.9884,-0.9884,-0.9884,-0.9884,-0.9884,-0.9884,-0.9884,-0.9884,-0.9933,-0.3076,-0.3082,-0.3074,-0.304,-0.3061,-0.3071,-0.313,-0.3156,-0.3192,-0.3192,-0.3192,-0.3192,-0.3192,-0.3192,-0.3192,-0.3192,-0.3192,-0.3192,-0.3192,-0.3192,-0.2889,-0.2214,-0.2619,-0.2519,-0.1813,-0.2485,-0.2855,-0.2855,-0.3092,-0.3192,0.0,0.0,0.0,0.0,-0.2753,-0.2014,-0.1109,-0.1109,-0.0538,0.0403,0.0403,0.0374,0.0379,0.0913,0.0913,0.0715,0.1012,0.1109,0.1109,0.1109,0.1009,0.0943,0.1042,0.0908,0.064,0.0303,0.0134,-0.0034,-0.0604,-0.0403,-0.0269,-0.1175,-0.141,-0.1643,-0.2547,-0.3119,-0.3458,-0.3458,-0.3491,-0.3491,-0.3355,-0.3658,0.0,0.0,0.0,0.0,0.0,-0.43,-0.43,-0.43,-0.4691,-0.4987,-0.5057,-0.5642,-0.584,-0.5451,-0.5345,-0.5474,-0.5877,-0.5972,-0.6494,-0.7582,-0.7949,-0.8252,-0.8484,-0.8662,-0.8814,-0.89,-0.9295,-0.9491,-0.9625,-0.9814,-0.9884,-0.9884,-0.9884,-0.9884,-0.9884,-0.9884,-0.9884,-0.9884,-0.9884,-0.9884,-0.9884,-0.9884,-0.9884,-0.9884,-0.3176,-0.3192,-0.3166,-0.3111,-0.3169,-0.3192,-0.3192,-0.3192,-0.3192,-0.3192,-0.3196,-0.3198,-0.3198,-0.3204,-0.3206,-0.3206,-0.3206,-0.3204,-0.32,-0.3198,-0.2893,-0.2214,-0.2248,-0.1913,-0.1176,-0.1879,-0.2248,-0.2248,-0.2889,-0.3192,0.0,0.0,0.0,0.0,-0.3192,-0.242,-0.1109,-0.1109,-0.0235,0.1111,0.1111,0.108,0.1049,0.1081,0.0618,0.0,0.0815,0.1109,0.1109,0.1109,0.1109,0.1109,0.1109,0.1109,0.1109,0.1109,0.1109,0.1042,0.0876,0.0809,0.0606,-0.0235,-0.047,-0.0739,-0.161,-0.1844,-0.1878,-0.1878,-0.1978,-0.1978,-0.1676,-0.2479,0.0,0.0,0.0,0.0,0.0,-0.43,-0.43,-0.43,-0.43,-0.4827,-0.617,-0.5738,-0.5935,-0.7293,-0.61,-0.5639,-0.6367,-0.5705,-0.5968,-0.7391,-0.7489,-0.7819,-0.8447,-0.8447,-0.8592,-0.8845,-0.9008,-0.9212,-0.9457,-0.9686,-0.9755,-0.9765,-0.9765,-0.9765,-0.9765,-0.9809,-0.9841,-0.9841,-0.9879,-0.9884,-0.9884,-0.9884,-0.9884,-0.9884,-0.3188,-0.3192,-0.3186,-0.3162,-0.3178,-0.3192,-0.3192,-0.3192,-0.3192,-0.3192,-0.3285,-0.3364,-0.3364,-0.3389,-0.343,-0.343,-0.343,-0.3401,-0.3368,-0.3364,-0.3021,-0.2251,-0.2686,-0.2586,-0.1846,-0.2552,-0.2956,-0.2956,-0.3125,-0.3192,-0.3192,0.0,0.0,0.0,-0.3192,-0.242,-0.1109,-0.1109,-0.0238,0.111,0.111,0.0781,0.033,0.0935,0.069,0.0074,0.0827,0.1109,0.1109,0.1109,0.1109,0.1109,0.1109,0.1109,0.1109,0.1109,0.1109,0.1076,0.1043,0.1009,0.0942,0.0573,0.0067,-0.0437,-0.0772,-0.1275,-0.1676,-0.1676,-0.1709,-0.1743,-0.1811,-0.2479,-0.3082,0.0,0.0,0.0,-0.43,-0.43,-0.43,-0.43,-0.43,-0.4434,-0.4794,-0.5613,-0.6034,-0.587,-0.5507,-0.5639,-0.6367,-0.5705,-0.5738,-0.6662,-0.7223,-0.7587,-0.7754,-0.7754,-0.7779,-0.7871,-0.7545,-0.7464,-0.7615,-0.7855,-0.8023,-0.8114,-0.8114,-0.8114,-0.8152,-0.877,-0.9003,-0.9084,-0.9652,-0.9884,-0.9884,-0.9884,-0.9884,-0.9884,-0.3192,-0.3192,-0.3206,-0.3279,-0.3287,-0.3273,-0.3198,-0.326,-0.3287,-0.3287,-0.3367,-0.3459,-0.3459,-0.3469,-0.3499,-0.3499,-0.3499,-0.3479,-0.3461,-0.3459,-0.3258,-0.2787,-0.2789,-0.2599,-0.2187,-0.2567,-0.2771,-0.2804,-0.3114,-0.3287,-0.3287,0.0,0.0,0.0,-0.3287,-0.2687,-0.1636,-0.094,-0.0176,0.0606,0.0998,0.0907,0.0,0.1026,0.0919,0.0592,0.0992,0.115,0.115,0.115,0.115,0.1148,0.1099,0.1095,0.1093,0.1113,0.1109,0.1109,0.1109,0.1109,0.1076,0.0976,0.0605,0.0269,0.0101,-0.0269,-0.0538,-0.0538,-0.0605,-0.0671,-0.0604,-0.1374,-0.228,-0.3082,-0.3825,-0.43,-0.43,-0.43,-0.43,-0.43,-0.43,-0.43,-0.43,-0.5282,-0.587,-0.5804,-0.5771,-0.5837,-0.5903,-0.554,-0.5474,-0.5903,-0.633,-0.6695,-0.7027,-0.7027,-0.7027,-0.7027,-0.6861,-0.6835,-0.69,-0.7196,-0.7376,-0.7502,-0.7502,-0.7502,-0.754,-0.8003,-0.8161,-0.8275,-0.9079,-0.9576,-0.9884,-0.9884,-0.9884,-0.9884,-0.3208,-0.321,-0.3275,-0.3401,-0.3416,-0.3389,-0.3241,-0.333,-0.3416,-0.3416,-0.346,-0.3518,-0.3518,-0.3528,-0.3534,-0.3534,-0.3534,-0.353,-0.3518,-0.3518,-0.3511,-0.3499,-0.2814,-0.2461,-0.2461,-0.2405,-0.2403,-0.2461,-0.3098,-0.3416,0.0,0.0,0.0,0.0,-0.3416,-0.2995,-0.2147,-0.0692,-0.0037,0.0146,0.0879,0.1211,0.1215,0.1215,0.1215,0.1215,0.1215,0.121,0.1203,0.1203,0.1203,0.1198,0.1136,0.1127,0.1121,0.1091,0.1116,0.1115,0.1111,0.1109,0.1109,0.1109,0.1109,0.1043,0.0876,0.0843,0.0843,0.0843,0.0708,0.0674,0.1009,0.0067,-0.1276,-0.2781,-0.3556,-0.3961,-0.3961,-0.3961,-0.403,-0.4131,-0.4131,0.0,-0.43,-0.4921,-0.5573,-0.6199,-0.633,-0.6133,-0.5474,-0.5342,-0.5309,-0.5309,-0.5309,-0.5606,-0.6264,-0.6268,-0.6268,-0.6268,-0.6398,-0.6537,-0.6615,-0.6843,-0.7057,-0.7157,-0.7157,-0.7157,-0.7195,-0.7272,-0.7387,-0.7579,-0.8275,-0.8965,-0.9609,-0.969,-0.9728,-0.9771,-0.3358,-0.3375,-0.3404,-0.346,-0.3477,-0.3471,-0.3454,-0.3465,-0.3477,-0.3477,-0.355,-0.3566,-0.3566,-0.3671,-0.3756,-0.3756,-0.3756,-0.3685,-0.3572,-0.3566,-0.3573,-0.3503,-0.3374,-0.3294,-0.3294,-0.3279,-0.3279,-0.3294,-0.3403,-0.3477,0.0,0.0,0.0,0.0,-0.3477,-0.2718,-0.1344,-0.0473,0.0332,0.0978,0.1129,0.1219,0.128,0.128,0.128,0.128,0.128,0.1247,0.1203,0.1203,0.1203,0.1202,0.1196,0.1194,0.1189,0.1122,0.1113,0.1108,0.1116,0.1109,0.1109,0.1109,0.1109,0.1076,0.1042,0.1043,0.1043,0.1043,0.1009,0.0975,0.0876,0.0067,-0.0906,-0.1945,-0.2246,-0.2246,-0.2111,-0.2213,-0.2547,-0.3151,-0.3215,-0.352,-0.4233,-0.4921,-0.5342,-0.5474,-0.6067,-0.633,-0.6199,-0.5639,-0.5309,-0.5309,-0.5309,-0.5375,-0.5507,-0.5507,-0.5507,-0.5474,-0.4982,-0.4855,-0.5084,-0.5144,-0.525,-0.5437,-0.5437,-0.5437,-0.5476,-0.6167,-0.6853,-0.7502,-0.7655,-0.7808,-0.7999,-0.8661,-0.8894,-0.9003,-0.3426,-0.347,-0.3462,-0.355,-0.3565,-0.3581,-0.363,-0.3674,-0.362,-0.3571,-0.3642,-0.3697,-0.3697,-0.3775,-0.3802,-0.3802,-0.3802,-0.3783,-0.3699,-0.3697,-0.3679,-0.3676,-0.3591,-0.3565,-0.3565,-0.3522,-0.3522,-0.3565,-0.3565,-0.3565,-0.3565,-0.3565,-0.3565,-0.353,-0.3163,-0.2575,-0.1778,-0.0568,0.0191,0.0617,0.108,0.1283,0.1296,0.1296,0.1296,0.1296,0.1296,0.1277,0.1251,0.1251,0.1251,0.1248,0.1195,0.1189,0.1184,0.1153,0.1133,0.1083,0.1103,0.1087,0.1109,0.1109,0.1109,0.1109,0.1109,0.1109,0.1109,0.1109,0.1109,0.1043,0.0843,0.0135,-0.0571,-0.1074,-0.1509,-0.1709,-0.1609,-0.1676,-0.1877,-0.2245,-0.2278,-0.2614,-0.3553,-0.3915,-0.4281,-0.4755,-0.5774,-0.6071,-0.5352,-0.5312,-0.5147,-0.4788,-0.4791,-0.4791,-0.4791,-0.4791,-0.4791,-0.4791,-0.4464,-0.4425,-0.469,-0.469,-0.4824,-0.5018,-0.5018,-0.5018,-0.5015,-0.5401,-0.6089,-0.6815,-0.6815,-0.7119,-0.754,-0.7927,-0.808,-0.8237,-0.3524,-0.3528,-0.3554,-0.364,-0.3654,-0.3679,-0.3791,-0.3802,-0.3775,-0.3665,-0.3718,-0.3802,-0.3802,-0.3802,-0.3802,-0.3802,-0.3802,-0.3802,-0.3802,-0.3802,-0.3802,-0.3802,-0.3693,-0.3654,-0.3654,-0.3591,-0.3589,-0.3654,-0.3654,-0.3644,-0.3588,-0.3646,-0.3541,-0.3353,-0.2761,-0.2314,-0.1882,-0.0548,0.0118,0.0353,0.1021,0.1296,0.1296,0.1296,0.1296,0.1296,0.1296,0.1296,0.1296,0.1296,0.1296,0.1292,0.1229,0.1221,0.1215,0.1222,0.1159,0.1102,0.109,0.1104,0.1084,0.1111,0.1109,0.1109,0.1109,0.1109,0.1109,0.1109,0.1109,0.1043,0.0843,0.037,-0.0067,-0.0202,-0.0705,-0.1074,-0.1039,-0.1106,-0.1208,-0.1307,-0.1508,-0.1944,-0.2646,-0.3049,-0.3487,-0.3995,-0.5345,-0.5613,-0.4367,-0.4951,-0.5047,-0.4528,-0.4367,-0.4367,-0.4498,-0.4367,-0.43,-0.43,-0.43,-0.4425,-0.469,-0.469,-0.4824,-0.5018,-0.5018,-0.5018,-0.5018,-0.5018,-0.5362,-0.5935,-0.5935,-0.6356,-0.7003,-0.7157,-0.7234,-0.7425,-0.3562,-0.3576,-0.3642,-0.3773,-0.3789,-0.3793,-0.3802,-0.3802,-0.38,-0.3791,-0.3798,-0.3802,-0.3802,-0.3802,-0.3802,-0.3802,-0.3802,-0.3802,-0.3802,-0.3802,-0.3802,-0.3802,-0.3793,-0.3789,-0.3789,-0.3781,-0.3781,-0.3789,-0.3789,-0.3707,-0.359,-0.3712,-0.3359,-0.2618,-0.2547,-0.1646,-0.0235,-0.0078,0.047,0.1178,0.1257,0.1296,0.1296,0.1296,0.1296,0.1296,0.1296,0.1296,0.1296,0.1296,0.1296,0.1296,0.1293,0.1292,0.1286,0.1216,0.1205,0.1191,0.1101,0.1084,0.111,0.1116,0.1109,0.1109,0.1109,0.1109,0.1109,0.1109,0.1109,0.1043,0.0843,0.0909,0.0908,0.0707,0.0607,0.064,0.0807,0.0538,0.0135,-0.037,-0.1275,-0.1844,-0.1743,-0.322,-0.3892,-0.3182,-0.4544,-0.5084,-0.4334,-0.4951,-0.5276,-0.5213,-0.4625,-0.4595,-0.5213,-0.4595,-0.43,-0.43,-0.43,-0.4425,-0.469,-0.469,-0.4824,-0.5018,-0.5018,-0.5018,-0.5018,-0.5018,-0.5054,-0.5093,-0.5093,-0.5171,-0.5323,-0.6051,-0.6318,-0.6468,-0.3701,-0.3707,-0.372,-0.3795,-0.3802,-0.3802,-0.3802,-0.3802,-0.3802,-0.3802,-0.3802,-0.3802,-0.3802,-0.3802,-0.3802,-0.3802,-0.3802,-0.3802,-0.3802,-0.3802,-0.3802,-0.3802,-0.3802,-0.3802,-0.3802,-0.3802,-0.3802,-0.3802,-0.3802,-0.3783,-0.371,-0.3785,-0.3333,-0.247,-0.1999,-0.1136,0.0039,0.0549,0.0982,0.1296,0.1296,0.1296,0.1296,0.1296,0.1296,0.1296,0.1296,0.1296,0.1296,0.1296,0.1296,0.1296,0.1296,0.1296,0.1294,0.1281,0.1226,0.1206,0.1182,0.1149,0.1083,0.1106,0.1089,0.1109,0.1109,0.1109,0.1109,0.1109,0.1109,0.1076,0.101,0.1043,0.1076,0.101,0.0976,0.1009,0.1076,0.0975,0.0774,0.0571,0.0168,-0.0302,-0.0772,-0.1945,-0.2781,-0.298,-0.4054,-0.4595,-0.43,-0.4561,-0.4691,-0.4691,-0.4431,-0.4431,-0.4691,-0.4431,-0.43,-0.43,-0.43,-0.4425,-0.469,-0.469,-0.4824,-0.5018,-0.5018,-0.5018,-0.5018,-0.5018,-0.5018,-0.5018,-0.5018,-0.5018,-0.5054,-0.5362,-0.5476,-0.5515,-0.3802,-0.3824,-0.3843,-0.3843,-0.3866,-0.3842,-0.3842,-0.3842,-0.3842,-0.3842,-0.3842,-0.3864,-0.3808,-0.3802,-0.3802,-0.3802,-0.3802,-0.3802,-0.3802,-0.3802,-0.3802,-0.3802,-0.3802,-0.3802,-0.3802,-0.3802,-0.3802,-0.3802,-0.3802,-0.3789,-0.3724,-0.3724,-0.3309,-0.247,-0.1921,-0.1019,0.0039,0.0667,0.106,0.1296,0.1296,0.1296,0.1296,0.1296,0.1296,0.1296,0.1296,0.1296,0.1296,0.1296,0.1296,0.1296,0.1296,0.1296,0.1296,0.1296,0.1281,0.1224,0.1214,0.1174,0.1132,0.1088,0.1098,0.1109,0.1109,0.1109,0.1109,0.1109,0.1109,0.1109,0.1109,0.1109,0.1109,0.1109,0.1109,0.1109,0.1109,0.1043,0.0942,0.0806,0.0504,0.0168,-0.0168,-0.1241,-0.2012,-0.2178,-0.3017,-0.3725,-0.4197,-0.4197,-0.4298,-0.4531,-0.4331,-0.4331,-0.4595,-0.4398,-0.43,-0.43,-0.43,-0.4404,-0.4638,-0.4709,-0.4819,-0.5018,-0.5018,-0.5018,-0.5018,-0.5018,-0.5018,-0.5018,-0.5018,-0.5018,-0.5018,-0.5018,-0.5018,-0.5018,-0.3802,-0.3836,-0.3897,-0.3897,-0.3973,-0.399,-0.399,-0.399,-0.399,-0.399,-0.399,-0.3963,-0.3822,-0.3802,-0.3802,-0.3802,-0.3802,-0.3802,-0.3802,-0.3802,-0.3802,-0.3802,-0.3802,-0.3802,-0.3802,-0.3802,-0.3802,-0.3802,-0.3802,-0.3716,-0.359,-0.359,-0.3217,-0.2511,-0.247,-0.1568,0.0,0.0,0.051,0.1296,0.1296,0.1296,0.1296,0.1296,0.1296,0.1296,0.1296,0.1296,0.1296,0.1296,0.1296,0.1296,0.1296,0.1296,0.1296,0.1296,0.1296,0.1289,0.122,0.1189,0.1195,0.1129,0.1098,0.1109,0.1109,0.1109,0.1109,0.1109,0.1109,0.1109,0.1109,0.1109,0.1109,0.1109,0.1109,0.1109,0.1109,0.0943,0.0606,0.0067,-0.0906,-0.114,-0.0101,-0.1644,-0.2048,-0.0437,-0.1141,-0.2313,-0.3928,-0.3995,-0.4325,-0.5054,-0.4392,-0.4422,-0.5276,-0.4625,-0.43,-0.43,-0.43,-0.436,-0.4514,-0.4722,-0.4863,-0.5018,-0.5018,-0.5018,-0.5018,-0.5018,-0.5018,-0.5018,-0.5018,-0.5018,-0.5018,-0.5018,-0.5018,-0.5018,-0.3948,-0.3973,-0.3952,-0.3952,-0.3974,-0.3994,-0.3994,-0.3994,-0.3994,-0.3994,-0.3994,-0.3972,-0.3955,-0.3893,-0.3857,-0.3857,-0.3839,-0.3802,-0.3802,-0.3802,-0.3802,-0.3802,-0.3802,-0.3802,-0.3802,-0.3802,-0.3802,-0.3802,-0.3802,-0.3787,-0.372,-0.372,-0.3307,-0.2511,-0.2511,-0.1882,-0.0901,-0.0901,-0.0392,0.0431,0.0431,0.0785,0.1296,0.1296,0.1296,0.1296,0.1296,0.1296,0.1296,0.1296,0.1296,0.1296,0.1296,0.1296,0.1296,0.1296,0.1296,0.1294,0.1284,0.1221,0.119,0.1159,0.1129,0.1101,0.1114,0.1109,0.1109,0.1109,0.1109,0.1109,0.1109,0.1109,0.1109,0.1109,0.1109,0.1109,0.1109,0.1043,0.0942,0.0773,0.0436,0.0369,0.0706,-0.0336,-0.1041,-0.0972,-0.1844,-0.2584,-0.3088,-0.3121,-0.3456,-0.4189,-0.3992,-0.3992,-0.4287,-0.4059,-0.3961,-0.3961,-0.3961,-0.4125,-0.4454,-0.4686,-0.4863,-0.5018,-0.5018,-0.5018,-0.5018,-0.5018,-0.5018,-0.5018,-0.5018,-0.5018,-0.5018,-0.5018,-0.5018,-0.5018,-0.3994,-0.4021,-0.4087,-0.4087,-0.4114,-0.4091,-0.4091,-0.4091,-0.4091,-0.4091,-0.4091,-0.4091,-0.4091,-0.4055,-0.3975,-0.3906,-0.3846,-0.3839,-0.3804,-0.3802,-0.3802,-0.3802,-0.3802,-0.3802,-0.3802,-0.3802,-0.3802,-0.3802,-0.3802,-0.3802,-0.3802,-0.3802,-0.3528,-0.2979,-0.2979,-0.251,-0.1724,-0.1411,-0.0784,0.0039,0.0353,0.0824,0.1296,0.1296,0.1296,0.1296,0.1296,0.1296,0.1296,0.1296,0.1296,0.1296,0.1296,0.1296,0.1296,0.1296,0.1296,0.1296,0.1296,0.1235,0.1204,0.121,0.1143,0.1113,0.1116,0.1109,0.1109,0.1109,0.1109,0.1109,0.1109,0.1109,0.1109,0.1109,0.1109,0.1109,0.1109,0.1109,0.1008,0.0706,0.0672,0.0672,0.0672,0.0168,-0.0235,-0.0402,-0.0939,-0.141,-0.1678,-0.2519,-0.309,-0.3255,-0.3558,-0.3727,-0.3792,-0.3792,-0.3792,-0.3792,-0.3792,-0.3971,-0.4292,-0.4473,-0.4631,-0.4779,-0.4779,-0.4818,-0.4898,-0.4898,-0.4937,-0.5018,-0.5018,-0.5018,-0.5018,-0.5018,-0.5018,-0.5018,-0.401,-0.4124,-0.4225,-0.4225,-0.4246,-0.43,-0.43,-0.43,-0.43,-0.43,-0.43,-0.43,-0.43,-0.4228,-0.4112,-0.3934,-0.3908,-0.3865,-0.3816,-0.3806,-0.3802,-0.3802,-0.3802,-0.3802,-0.3802,-0.3802,-0.3802,-0.3802,-0.3802,-0.3802,-0.3802,-0.3802,-0.3802,-0.3802,-0.3802,-0.3333,-0.2431,-0.1685,-0.0901,0.0,0.0863,0.1218,0.1218,0.1296,0.1296,0.1296,0.1296,0.1296,0.1296,0.1296,0.1296,0.1296,0.1296,0.1296,0.1296,0.1296,0.1296,0.1296,0.1296,0.1236,0.1207,0.1211,0.1142,0.111,0.1116,0.1109,0.1109,0.1109,0.1109,0.1109,0.1109,0.1109,0.1109,0.1109,0.1109,0.1109,0.1109,0.1109,0.084,0.0168,0.0067,0.0067,0.0067,0.0067,0.0336,0.0975,0.1008,0.0739,0.0034,-0.2116,-0.3058,-0.2417,-0.3058,-0.3529,-0.3758,-0.3758,-0.3758,-0.3758,-0.3758,-0.3866,-0.4065,-0.4109,-0.4222,-0.4375,-0.4382,-0.4501,-0.4659,-0.4659,-0.4779,-0.4976,-0.4976,-0.4979,-0.4979,-0.4979,-0.5018,-0.5018,-0.4236,-0.4253,-0.4269,-0.4269,-0.4285,-0.43,-0.43,-0.43,-0.43,-0.43,-0.43,-0.43,-0.43,-0.4281,-0.4226,-0.4118,-0.3981,-0.3889,-0.3869,-0.3841,-0.3802,-0.3802,-0.3802,-0.3802,-0.3802,-0.3802,-0.3802,-0.3802,-0.3802,-0.3802,-0.3802,-0.3802,-0.3802,-0.3802,-0.3802,-0.3333,-0.247,-0.2314,-0.1724,-0.0901,-0.0039,0.0313,0.0392,0.106,0.1296,0.1296,0.1296,0.1296,0.1296,0.1296,0.1296,0.1296,0.1296,0.1296,0.1296,0.1296,0.1296,0.1296,0.1296,0.1291,0.1272,0.1217,0.1161,0.1084,0.1111,0.1109,0.1109,0.1109,0.1109,0.1109,0.1109,0.1109,0.1109,0.1109,0.1109,0.1109,0.1109,0.1109,0.1042,0.0874,0.084,0.084,0.084,0.084,0.0672,0.0302,0.0269,0.0168,0.0,-0.1075,-0.1847,-0.2248,-0.2417,-0.2787,-0.3326,-0.3326,-0.3326,-0.336,-0.3496,-0.366,-0.3815,-0.4003,-0.4186,-0.4313,-0.439,-0.4423,-0.4462,-0.4462,-0.4501,-0.4543,-0.4701,-0.4779,-0.4779,-0.4937,-0.5018,-0.5018,-0.43,-0.43,-0.43,-0.43,-0.43,-0.43,-0.43,-0.43,-0.43,-0.43,-0.43,-0.43,-0.43,-0.43,-0.4279,-0.4234,-0.4065,-0.3944,-0.3903,-0.3853,-0.3802,-0.3802,-0.3802,-0.3802,-0.3802,-0.3802,-0.3802,-0.3802,-0.3802,-0.3802,-0.3802,-0.3802,-0.3802,-0.3802,-0.3802,-0.3333,-0.247,-0.2117,-0.145,-0.0627,0.0235,0.0588,0.0628,0.1139,0.1296,0.1296,0.1296,0.1296,0.1296,0.1296,0.1296,0.1296,0.1296,0.1296,0.1296,0.1296,0.1296,0.1296,0.1296,0.1296,0.1281,0.1219,0.1156,0.1109,0.1109,0.1109,0.1109,0.1109,0.1109,0.1109,0.1109,0.1109,0.1109,0.1109,0.1109,0.1109,0.1109,0.1109,0.1109,0.1109,0.1109,0.1109,0.1109,0.1109,0.0941,0.0538,0.0504,0.0504,0.0504,0.0134,-0.0571,-0.1679,-0.2013,-0.2517,-0.3192,-0.3192,-0.3192,-0.3192,-0.3295,-0.3445,-0.3574,-0.3743,-0.3877,-0.3975,-0.4069,-0.4192,-0.427,-0.427,-0.4309,-0.4423,-0.4501,-0.4582,-0.4582,-0.4701,-0.474,-0.474,-0.43,-0.43,-0.43,-0.43,-0.43,-0.43,-0.43,-0.43,-0.43,-0.43,-0.43,-0.43,-0.43,-0.43,-0.43,-0.43,-0.4151,-0.3976,-0.3926,-0.3834,-0.3816,-0.3804,-0.3802,-0.3802,-0.3802,-0.3802,-0.3802,-0.3802,-0.3802,-0.3802,-0.3802,-0.3802,-0.3802,-0.3802,-0.3802,-0.3333,-0.2431,-0.1646,-0.0862,-0.0118,0.0903,0.1218,0.11,0.1257,0.1335,0.1335,0.1296,0.1335,0.1335,0.1296,0.1296,0.1296,0.1296,0.1296,0.1296,0.1296,0.1296,0.1296,0.1296,0.1293,0.1276,0.1217,0.1159,0.1115,0.1111,0.1109,0.1109,0.1109,0.1109,0.1109,0.1109,0.1109,0.1109,0.1109,0.1109,0.1109,0.1109,0.1109,0.1109,0.1109,0.1109,0.1109,0.1109,0.1109,0.1109,0.1109,0.1109,0.1109,0.1109,0.1109,0.047,-0.0908,-0.1544,-0.2249,-0.3058,-0.3159,-0.3192,-0.3192,-0.3192,-0.3269,-0.3381,-0.3452,-0.3538,-0.3574,-0.3718,-0.3882,-0.404,-0.404,-0.4155,-0.4307,-0.4345,-0.4345,-0.4345,-0.4384,-0.4384,-0.4384,-0.43,-0.43,-0.43,-0.43,-0.43,-0.43,-0.43,-0.43,-0.43,-0.43,-0.43,-0.43,-0.43,-0.43,-0.43,-0.43,-0.4208,-0.4114,-0.398,-0.3928,-0.3844,-0.3806,-0.3802,-0.3802,-0.3802,-0.3802,-0.3802,-0.3802,-0.3802,-0.3802,-0.3802,-0.3802,-0.3802,-0.3802,-0.3802,-0.3333,-0.2431,-0.1646,-0.1214,-0.094,0.0667,0.0863,0.0274,0.1021,0.1415,0.1533,0.1375,0.1415,0.1533,0.1375,0.1296,0.1296,0.1296,0.1296,0.1296,0.1296,0.1296,0.1296,0.1296,0.1277,0.1211,0.1212,0.114,0.1108,0.1116,0.1109,0.1109,0.1109,0.1109,0.1109,0.1109,0.1109,0.1109,0.1109,0.1109,0.1109,0.1109,0.1109,0.1109,0.1109,0.1109,0.1109,0.1109,0.1109,0.1109,0.1109,0.1109,0.1109,0.1109,0.1109,0.0706,-0.0134,-0.0269,-0.0974,-0.2348,-0.2922,-0.3192,-0.3192,-0.3192,-0.32,-0.3254,-0.3424,-0.3507,-0.3528,-0.3732,-0.3802,-0.3843,-0.3843,-0.388,-0.3919,-0.4077,-0.4155,-0.4155,-0.4345,-0.4384,-0.4384,-0.43,-0.43,-0.43,-0.43,-0.43,-0.43,-0.43,-0.43,-0.43,-0.43,-0.43,-0.43,-0.43,-0.43,-0.43,-0.43,-0.4263,-0.4204,-0.4116,-0.3977,-0.3881,-0.3838,-0.3828,-0.3802,-0.3802,-0.3802,-0.3802,-0.3802,-0.3802,-0.3802,-0.3802,-0.3802,-0.3802,-0.3802,-0.3802,-0.3057,-0.1842,-0.145,-0.0745,0.0196,0.11,0.1139,0.0746,0.1257,0.1533,0.1572,0.1493,0.1572,0.1729,0.1533,0.1454,0.1454,0.1335,0.1296,0.1296,0.1296,0.1296,0.1296,0.1296,0.1235,0.1204,0.121,0.1143,0.1113,0.1116,0.1109,0.1109,0.1109,0.1109,0.1109,0.1109,0.1109,0.1109,0.1109,0.1109,0.1109,0.1109,0.1109,0.1109,0.1109,0.1109,0.1109,0.1109,0.1109,0.1109,0.1109,0.1109,0.1109,0.1109,0.1109,0.0941,0.0605,-0.0168,-0.0907,-0.1612,-0.1914,-0.2284,-0.2653,-0.2653,-0.2855,-0.3198,-0.3418,-0.3499,-0.3473,-0.3226,-0.3372,-0.3763,-0.3294,-0.3372,-0.3802,-0.3921,-0.3921,-0.396,-0.4036,-0.4073,-0.4073,-0.43,-0.43,-0.43,-0.43,-0.43,-0.43,-0.43,-0.43,-0.43,-0.43,-0.43,-0.43,-0.43,-0.43,-0.43,-0.43,-0.43,-0.4271,-0.4206,-0.4053,-0.3944,-0.3901,-0.3851,-0.3802,-0.3802,-0.3802,-0.3802,-0.3802,-0.3802,-0.3802,-0.3802,-0.3802,-0.3802,-0.3802,-0.3802,-0.3095,-0.1842,-0.141,-0.0431,0.0825,0.1414,0.1572,0.1454,0.1572,0.165,0.1728,0.165,0.1768,0.1925,0.1729,0.165,0.1572,0.1415,0.1335,0.1296,0.1296,0.1296,0.1296,0.1296,0.1279,0.1215,0.1222,0.1262,0.1298,0.1127,0.1215,0.1276,0.1143,0.1109,0.1109,0.1109,0.1109,0.1109,0.1109,0.1109,0.1109,0.1109,0.1109,0.1109,0.1109,0.1109,0.1109,0.1109,0.1109,0.1109,0.1109,0.1109,0.1109,0.1109,0.1109,0.1109,0.1109,-0.0168,-0.084,-0.084,-0.1008,-0.1377,-0.1946,-0.1946,-0.219,-0.2685,-0.2889,-0.2959,-0.291,-0.2425,-0.2586,-0.3175,-0.2508,-0.2744,-0.3489,-0.3489,-0.3606,-0.3802,-0.3802,-0.3802,-0.3802,-0.43,-0.43,-0.43,-0.43,-0.43,-0.43,-0.43,-0.43,-0.43,-0.43,-0.43,-0.43,-0.43,-0.43,-0.43,-0.43,-0.43,-0.4295,-0.4291,-0.4204,-0.4077,-0.3908,-0.3851,-0.3802,-0.3802,-0.3802,-0.3802,-0.3802,-0.3802,-0.3802,-0.3802,-0.3802,-0.3802,-0.3802,-0.3802,-0.3724,-0.3487,-0.1684,-0.0862,-0.0588,0.1178,0.1887,0.1848,0.165,0.1846,0.2118,0.1728,0.1846,0.2157,0.1964,0.1768,0.1611,0.1572,0.1454,0.1296,0.1296,0.1296,0.1296,0.1296,0.1295,0.1285,0.1216,0.1666,0.1947,0.1264,0.1573,0.1846,0.1244,0.1109,0.1109,0.1109,0.1109,0.1109,0.1109,0.1109,0.1109,0.1109,0.1109,0.1109,0.1109,0.1109,0.1109,0.1109,0.1109,0.1109,0.1109,0.1109,0.1109,0.1109,0.1109,0.1109,0.1109,0.0336,-0.0067,-0.0067,-0.0773,-0.1143,-0.1176,-0.1176,-0.1159,-0.1153,-0.1293,-0.1326,-0.1283,-0.1355,-0.1411,-0.1488,-0.1411,-0.1882,-0.2588,-0.2588,-0.3096,-0.3802,-0.3802,-0.3802,-0.3802,-0.3449,-0.3896,-0.43,-0.43,-0.43,-0.43,-0.43,-0.43,-0.43,-0.43,-0.43,-0.43,-0.43,-0.43,-0.43,-0.43,-0.43,-0.43,-0.43,-0.422,-0.4091,-0.3908,-0.3851,-0.3802,-0.3802,-0.3802,-0.3802,-0.3802,-0.3802,-0.3802,-0.3802,-0.3802,-0.3802,-0.3802,-0.3491,-0.2862,-0.1919,-0.094,0.0,0.0903,0.1765,0.2003,0.1887,0.1962,0.2079,0.2195,0.2041,0.2157,0.2353,0.2158,0.2041,0.1923,0.169,0.1533,0.1454,0.1335,0.1296,0.1296,0.1296,0.1649,0.2029,0.2018,0.2215,0.2395,0.2507,0.1977,0.1543,0.1684,0.1377,0.1109,0.1109,0.1109,0.1109,0.1109,0.1109,0.1109,0.1109,0.1109,0.1109,0.1109,0.1109,0.1109,0.1109,0.1109,0.1109,0.1109,0.1109,0.1109,0.1109,0.1109,0.1109,0.1109,0.084,0.0672,0.0672,0.0403,0.0034,-0.0414,-0.0414,-0.0629,-0.1004,-0.1104,-0.1123,-0.1059,-0.0659,-0.0784,-0.1254,-0.0705,-0.0979,-0.1763,-0.1763,-0.1959,-0.2233,-0.2233,-0.2233,-0.2233,-0.2911,-0.3673,-0.43,-0.43,-0.43,-0.43,-0.43,-0.43,-0.43,-0.43,-0.43,-0.43,-0.43,-0.43,-0.43,-0.43,-0.43,-0.43,-0.43,-0.422,-0.4091,-0.3908,-0.384,-0.3833,-0.3804,-0.3802,-0.3802,-0.3802,-0.3802,-0.3802,-0.3802,-0.3802,-0.3802,-0.3763,-0.3096,-0.2272,-0.1253,-0.0313,0.0666,0.1609,0.2118,0.2198,0.2081,0.2157,0.2235,0.2275,0.2235,0.2314,0.247,0.2353,0.2235,0.2157,0.1884,0.1728,0.165,0.1533,0.1454,0.1375,0.1375,0.1923,0.2422,0.2191,0.2471,0.2884,0.3071,0.2457,0.1933,0.2154,0.1599,0.1087,0.1111,0.1109,0.1109,0.1109,0.1109,0.1109,0.1109,0.1109,0.1109,0.1109,0.1109,0.1109,0.1109,0.1109,0.1109,0.1109,0.1109,0.1113,0.1089,0.1133,0.1139,0.1139,0.1139,0.1139,0.1139,0.1095,0.0863,0.039,0.039,0.0144,-0.0295,-0.0375,-0.0379,-0.0306,0.0195,0.0078,-0.0431,0.0157,-0.0118,-0.0901,-0.0901,-0.1058,-0.1293,-0.1293,-0.1293,-0.1293,-0.2867,-0.3628,-0.43,-0.43,-0.43,-0.43,-0.43,-0.43,-0.43,-0.43,-0.43,-0.43,-0.43,-0.43,-0.43,-0.43,-0.43,-0.43,-0.43,-0.422,-0.4091,-0.391,-0.3901,-0.3857,-0.3804,-0.3802,-0.3802,-0.3802,-0.3802,-0.3802,-0.3802,-0.3802,-0.3802,-0.3763,-0.266,-0.2189,-0.2033,0.0039,0.0901,0.1019,0.2078,0.2511,0.247,0.2275,0.2314,0.247,0.2275,0.2314,0.2511,0.2511,0.2353,0.2196,0.2196,0.2081,0.1887,0.1887,0.1768,0.1611,0.1611,0.2042,0.2315,0.1492,0.2426,0.3325,0.2684,0.3039,0.3285,0.2568,0.1715,0.1112,0.1116,0.1109,0.1109,0.1109,0.1109,0.1109,0.1109,0.1109,0.1109,0.1109,0.111,0.111,0.111,0.111,0.111,0.111,0.111,0.1089,0.1084,0.115,0.1203,0.1203,0.1203,0.1203,0.1203,0.1137,0.1137,0.1203,0.1203,0.1183,0.1212,0.1212,0.1228,0.1296,0.1296,0.1296,0.1296,0.1296,0.0785,0.0,0.0,-0.0509,-0.1293,-0.1293,-0.1293,-0.1293,-0.1835,-0.3178,-0.43,-0.43,-0.43,-0.43,-0.43,-0.43,-0.43,-0.43,-0.43,-0.43,-0.43,-0.43,-0.43,-0.43,-0.43,-0.43,-0.43,-0.4275,-0.421,-0.4095,-0.3967,-0.3857,-0.3804,-0.3802,-0.3802,-0.3802,-0.3802,-0.3802,-0.3802,-0.3802,-0.3802,-0.3724,-0.239,-0.1527,-0.0978,0.0705,0.1646,0.2038,0.2353,0.2511,0.2511,0.2431,0.2431,0.2511,0.2431,0.2431,0.2511,0.2511,0.247,0.2392,0.2235,0.2081,0.1887,0.1887,0.1768,0.1611,0.1611,0.1611,0.1727,0.208,0.2457,0.3009,0.39,0.3414,0.2856,0.3108,0.2554,0.201,0.2029,0.1506,0.1314,0.1901,0.1497,0.1109,0.1109,0.1094,0.1108,0.1108,0.1126,0.1175,0.1175,0.1175,0.1175,0.1175,0.1175,0.1179,0.1153,0.1198,0.1203,0.1203,0.1203,0.1213,0.1198,0.1168,0.1168,0.1198,0.1198,0.1214,0.1282,0.1282,0.1288,0.1296,0.1296,0.1296,0.1296,0.1296,0.1139,0.0903,0.0903,0.0746,0.051,0.051,0.051,0.051,-0.1924,-0.3223,-0.43,-0.43,-0.43,-0.43,-0.43,-0.43,-0.43,-0.43,-0.43,-0.43,-0.43,-0.43,-0.43,-0.43,-0.43,-0.43,-0.43,-0.43,-0.4261,-0.422,-0.4067,-0.3948,-0.3859,-0.382,-0.3802,-0.3802,-0.3802,-0.3802,-0.3802,-0.3802,-0.3802,-0.3724,-0.1997,-0.0979,-0.047,0.1214,0.2156,0.2511,0.2511,0.2511,0.2511,0.2511,0.2511,0.2511,0.2511,0.2511,0.2511,0.2511,0.2511,0.247,0.2353,0.2237,0.212,0.212,0.2003,0.1846,0.1846,0.1923,0.2118,0.2626,0.2627,0.2851,0.4105,0.3673,0.3233,0.393,0.3467,0.2907,0.2914,0.2191,0.1778,0.2309,0.1684,0.1146,0.1146,0.1127,0.1139,0.1139,0.1191,0.1203,0.1203,0.1203,0.1203,0.1203,0.1215,0.1184,0.1184,0.1233,0.124,0.124,0.124,0.1249,0.123,0.1249,0.1249,0.123,0.123,0.1278,0.1296,0.1296,0.1296,0.1296,0.1296,0.1296,0.1296,0.1296,0.1296,0.1296,0.1296,0.1296,0.1296,0.1296,0.1296,0.1296,-0.2597,-0.3583,-0.4253,-0.421,-0.4164,-0.421,-0.43,-0.421,-0.421,-0.43,-0.43,-0.43,-0.43,-0.43,-0.43,-0.43,-0.43,-0.43,-0.43,-0.43,-0.4265,-0.4231,-0.422,-0.4095,-0.3928,-0.3866,-0.381,-0.3802,-0.3802,-0.3802,-0.3802,-0.3724,-0.3684,-0.3606,-0.1448,-0.0509,-0.0352,0.1646,0.247,0.2511,0.2511,0.2511,0.2511,0.2511,0.2511,0.2511,0.2511,0.2511,0.2511,0.2511,0.2511,0.2511,0.2511,0.2511,0.2511,0.2511,0.2353,0.2196,0.2196,0.2586,0.3015,0.3093,0.2821,0.2782,0.3713,0.3908,0.4117,0.486,0.4382,0.383,0.3823,0.3107,0.2555,0.2628,0.1896,0.1312,0.1312,0.1241,0.1207,0.1207,0.1209,0.1211,0.1211,0.1211,0.1211,0.1211,0.12,0.1216,0.1216,0.1281,0.1296,0.1296,0.1296,0.1296,0.1296,0.1296,0.1296,0.1296,0.1296,0.1296,0.1296,0.1296,0.1296,0.1296,0.1296,0.1296,0.1296,0.1296,0.1296,0.1296,0.1296,0.1296,0.1296,0.1296,0.1296,0.1296,-0.1835,-0.3133,-0.4074,-0.3315,-0.3226,-0.3449,-0.421,-0.3673,-0.3449,-0.421,-0.43,-0.43,-0.43,-0.43,-0.43,-0.43,-0.43,-0.43,-0.43,-0.43,-0.4291,-0.4273,-0.4208,-0.4198,-0.4156,-0.3952,-0.3834,-0.3802,-0.3802,-0.3802,-0.3802,-0.3096,-0.2785,-0.2705,-0.0744,0.0196,0.0431,0.1724,0.2353,0.2511,0.2511,0.2511,0.2511,0.2511,0.2511,0.2511,0.2511,0.2511,0.2511,0.2511,0.2511,0.2511,0.2511,0.2511,0.2511,0.2511,0.2353,0.2196,0.2196,0.2198,0.2315,0.2938,0.2898,0.3129,0.4647,0.4844,0.48,0.4969,0.4848,0.4724,0.4701,0.4015,0.3626,0.4336,0.3128,0.2147,0.2147,0.1593,0.1202,0.1202,0.1261,0.1277,0.1277,0.1277,0.1277,0.1277,0.1282,0.1286,0.1286,0.1293,0.1296,0.1296,0.1296,0.1296,0.1296,0.1296,0.1296,0.1296,0.1296,0.1296,0.1296,0.1296,0.1296,0.1296,0.1296,0.1296,0.1296,0.1296,0.1296,0.1296,0.1296,0.1296,0.1296,0.1296,0.1296,0.1296,-0.2104,-0.2551,-0.2774,-0.2283,-0.2193,-0.2508,-0.3492,-0.282,-0.2552,-0.3492,-0.3223,-0.3089,-0.3583,-0.3628,-0.3807,-0.4253,-0.43,-0.43,-0.43,-0.43,-0.43,-0.43,-0.4257,-0.4214,-0.4216,-0.4079,-0.3963,-0.3868,-0.3824,-0.3802,-0.3763,-0.2902,-0.243,-0.2271,-0.0392,0.0548,0.0823,0.1882,0.2392,0.2511,0.2511,0.2511,0.2511,0.2511,0.2511,0.2511,0.2511,0.2511,0.2511,0.2511,0.2511,0.2511,0.2511,0.2511,0.2511,0.2511,0.2431,0.2353,0.2353,0.2588,0.3017,0.3795,0.4144,0.4453,0.5151,0.5154,0.5121,0.5553,0.5631,0.5631,0.5631,0.4911,0.4487,0.4909,0.3909,0.3088,0.3203,0.2478,0.2,0.2077,0.1792,0.1572,0.1572,0.1572,0.1572,0.1572,0.1572,0.1572,0.1572,0.1572,0.1533,0.1454,0.1454,0.1415,0.1296,0.1296,0.1296,0.1296,0.1296,0.1296,0.1296,0.1296,0.1296,0.1296,0.1296,0.1296,0.1296,0.1296,0.1296,0.1296,0.1296,0.1296,0.1296,0.1296,0.1296,0.1296,-0.2284,-0.188,-0.1342,-0.1208,-0.1164,-0.1477,-0.2508,-0.1791,-0.1522,-0.2508,-0.1924,-0.17,-0.2552,-0.2643,-0.3045,-0.3985,-0.3896,-0.3939,-0.43,-0.4164,-0.4074,-0.4074,-0.421,-0.4176,-0.3978,-0.4138,-0.4091,-0.3922,-0.3832,-0.3746,-0.3587,-0.271,-0.2116,-0.176,0.0,0.0902,0.1137,0.2038,0.247,0.2511,0.2511,0.2511,0.2511,0.2511,0.2511,0.2511,0.2511,0.2511,0.2511,0.2511,0.2511,0.2511,0.2511,0.2511,0.2511,0.2511,0.2511,0.2511,0.2511,0.3132,0.3986,0.4807,0.547,0.586,0.5657,0.5467,0.5547,0.6257,0.6412,0.6412,0.6412,0.5822,0.5312,0.5312,0.4649,0.4183,0.4341,0.3597,0.309,0.3093,0.2393,0.1887,0.1887,0.1887,0.1887,0.1887,0.1887,0.1887,0.1887,0.1887,0.1808,0.165,0.165,0.1572,0.1415,0.1375,0.1335,0.1335,0.1296,0.1296,0.1296,0.1296,0.1296,0.1296,0.1296,0.1296,0.1296,0.1296,0.1296,0.1296,0.1296,0.1296,0.1296,0.1296,0.1296,0.1296,-0.0538,-0.094,-0.1164,-0.0314,-0.0179,-0.0493,-0.1477,-0.0806,-0.0538,-0.1477,-0.1477,-0.1432,-0.1566,-0.1611,-0.2014,-0.3001,-0.2283,-0.2505,-0.4208,-0.3537,-0.3092,-0.3092,-0.3851,-0.3937,-0.3078,-0.3816,-0.4122,-0.3974,-0.3926,-0.3515,-0.2743,-0.1859,-0.1058,-0.0235,0.0942,0.1571,0.1767,0.2118,0.2353,0.2511,0.2511,0.2511,0.2511,0.2511,0.2511,0.2511,0.2511,0.2511,0.2511,0.2511,0.2511,0.2511,0.2511,0.2511,0.2511,0.2511,0.2511,0.2511,0.2511,0.3132,0.3986,0.4807,0.547,0.6096,0.6791,0.6788,0.6668,0.6788,0.6826,0.6826,0.6826,0.6707,0.663,0.663,0.5931,0.5351,0.5389,0.4686,0.3906,0.3171,0.2393,0.1887,0.1887,0.1887,0.1887,0.1887,0.1887,0.1887,0.1887,0.1887,0.1887,0.1848,0.1848,0.1848,0.1808,0.165,0.1572,0.1572,0.1375,0.1296,0.1296,0.1296,0.1296,0.1296,0.1296,0.1296,0.1296,0.1296,0.1296,0.1296,0.1296,0.1296,0.1296,0.1296,0.1296,0.1296,-0.009,0.009,0.0314,0.0717,0.0762,0.0448,-0.0493,0.0179,0.0448,-0.0493,-0.0179,-0.0045,-0.0582,-0.1074,-0.1566,-0.2014,-0.1656,-0.2013,-0.3403,-0.2596,-0.2329,-0.2867,-0.2774,-0.2506,-0.2059,-0.2439,-0.2594,-0.2568,-0.2988,-0.2712,-0.1784,-0.0963,-0.0317,0.0196,0.1295,0.1886,0.208,0.2275,0.2431,0.2511,0.2511,0.2511,0.2511,0.2511,0.2511,0.2511,0.2511,0.2511,0.2511,0.2511,0.2511,0.2511,0.2511,0.2511,0.2511,0.2511,0.2511,0.2511,0.2511,0.2784,0.3366,0.4691,0.5198,0.5741,0.7061,0.7292,0.7173,0.6942,0.6903,0.6903,0.6903,0.6903,0.6903,0.6903,0.6591,0.636,0.6479,0.5777,0.4805,0.3638,0.3171,0.2784,0.2277,0.2238,0.2238,0.2238,0.2238,0.2238,0.2238,0.2238,0.2199,0.208,0.208,0.2003,0.1887,0.1808,0.1768,0.1768,0.1572,0.1415,0.1296,0.1296,0.1296,0.1296,0.1296,0.1296,0.1296,0.1296,0.1296,0.1296,0.1296,0.1296,0.1296,0.1296,0.1296,0.1296]}]]